Date StartTime U_cm/s V_cm/s W_cm/s Ustd_cm/s Vstd_cm/s Wstd_cm/s Uvar_(cm/s)^2 Vvar_(cm/s)^2 Wvar_(cm/s)^2 KE_(m/s)^2 TurbulentKE_(m/s)^2 HorizWindSpeed_cm/s FrictionSpeec_cm/s DragCoef SpeedOfSound_m/s SonicTemperature_C Pressure_mb 
06/10/2014  00:00:00     -197.536      -49.375       -6.546       78.524       83.735       39.176     6166.043     7011.503     1534.741        2.810        0.736      203.613       39.519        0.038      345.768       23.531      858.164
06/10/2014  00:01:00     -186.813      -25.916      -11.794       81.319       57.720       40.842     6612.766     3331.614     1668.097        2.366        0.581      188.602       39.675        0.044      345.235       22.618      858.175
06/10/2014  00:02:00     -191.110      -55.668       -5.871       71.255       52.639       34.279     5077.256     2770.816     1175.083        2.434        0.451      199.053       29.772        0.022      345.303       22.734      858.187
06/10/2014  00:03:00     -194.154      -41.740      -12.022       75.126       43.872       35.355     5643.950     1924.731     1249.983        2.420        0.441      198.590       40.364        0.041      345.387       22.878      858.200
06/10/2014  00:04:00     -129.322      -20.160       -4.626       63.273       51.404       32.655     4003.498     2642.372     1066.379        1.243        0.386      130.884       32.835        0.063      345.233       22.617      858.198
06/10/2014  00:05:00     -210.424      -21.836      -19.518       60.749       44.217       29.777     3690.408     1955.130      886.697        2.583        0.327      211.554       30.422        0.021      345.203       22.562      858.206
06/10/2014  00:06:00     -191.282      -67.819       -6.357       54.511       44.489       30.194     2971.399     1979.305      911.684        2.354        0.293      202.949       27.002        0.018      345.195       22.550      858.207
06/10/2014  00:07:00     -176.511      -61.965       -8.586       46.756       51.927       29.205     2186.150     2696.404      852.952        2.040        0.287      187.072       26.277        0.020      345.105       22.397      858.193
06/10/2014  00:08:00     -203.208      -81.083       -0.577       71.916       64.196       42.861     5171.963     4121.103     1837.105        2.950        0.557      218.788       39.393        0.032      345.051       22.301      858.199
06/10/2014  00:09:00     -193.053      -31.238      -12.602       64.599       67.613       38.465     4173.049     4571.572     1479.575        2.431        0.511      195.564       31.067        0.025      345.043       22.289      858.212
06/10/2014  00:10:00     -206.090      -65.220       -9.915       56.542       45.274       31.443     3196.976     2049.732      988.645        2.653        0.312      216.164       30.256        0.020      345.023       22.254      858.221
06/10/2014  00:11:00     -170.579      -28.022      -15.040       60.169       52.443       33.326     3620.288     2750.316     1110.611        1.879        0.374      172.865       28.027        0.026      344.875       22.002      858.240
06/10/2014  00:12:00     -172.519      -19.306       -5.162       57.965       49.951       31.081     3359.919     2495.077      966.054        1.849        0.341      173.596       27.191        0.025      344.812       21.895      858.256
06/10/2014  00:13:00     -168.749      -38.169        1.209       79.284       50.180       37.366     6285.878     2517.996     1396.250        2.007        0.510      173.012       40.409        0.055      344.764       21.811      858.252
06/10/2014  00:14:00     -179.341      -88.955        8.624       72.015       55.752       35.617     5186.113     3108.266     1268.574        2.486        0.478      200.191       38.422        0.037      344.950       22.130      858.237
06/10/2014  00:15:00     -239.316      -95.100       -6.807       60.454       46.340       34.802     3654.667     2147.379     1211.192        3.669        0.351      257.519       34.890        0.018      345.010       22.231      858.235
06/10/2014  00:16:00     -214.790      -67.683       -4.332       66.639       54.176       34.707     4440.732     2935.078     1204.594        2.966        0.429      225.201       34.353        0.023      345.015       22.240      858.223
06/10/2014  00:17:00     -144.935      -37.436        1.525       79.675       55.640       31.189     6348.084     3095.859      972.732        1.641        0.521      149.692       32.929        0.048      344.943       22.120      858.209
06/10/2014  00:18:00     -149.239      -10.855        0.458       87.137       45.531       32.226     7592.801     2073.070     1038.488        1.655        0.535      149.633       41.707        0.078      344.597       21.527      858.205
06/10/2014  00:19:00     -138.140      -30.671        5.592       69.982       48.431       36.675     4897.515     2345.589     1345.051        1.432        0.429      141.504       40.773        0.083      344.487       21.340      858.183
06/10/2014  00:20:00     -167.466      -16.134        0.340       62.498       47.718       31.822     3906.028     2276.977     1012.658        1.775        0.360      168.242       31.685        0.035      344.582       21.503      858.178
06/10/2014  00:21:00     -161.285      -38.463       -8.796       46.955       42.518       24.785     2204.764     1807.751      614.311        1.610        0.231      165.808       20.245        0.015      344.513       21.386      858.177
06/10/2014  00:22:00     -182.429      -46.262       -9.622       49.312       58.426       32.267     2431.634     3413.558     1041.158        2.120        0.344      188.203       26.641        0.020      344.565       21.471      858.170
06/10/2014  00:23:00     -163.126      -62.998       -6.820       49.424       55.884       28.555     2442.739     3123.006      815.364        1.850        0.319      174.868       22.310        0.016      344.487       21.340      858.185
06/10/2014  00:24:00     -173.231      -39.948      -14.881       61.263       64.920       31.781     3753.104     4214.543     1010.002        2.040        0.449      177.777       26.803        0.023      344.484       21.333      858.182
06/10/2014  00:25:00     -210.546       20.699      -10.703       68.228       50.344       35.020     4655.094     2534.476     1226.434        2.664        0.421      211.561       32.979        0.024      344.511       21.377      858.181
06/10/2014  00:26:00     -220.217       -3.674      -20.020       67.473       70.367       37.041     4552.607     4951.561     1372.029        2.989        0.544      220.248       30.241        0.019      344.648       21.613      858.180
06/10/2014  00:27:00     -245.387       15.576      -19.572       79.519       50.996       37.198     6323.314     2600.561     1383.713        3.557        0.515      245.881       38.279        0.024      344.588       21.509      858.166
06/10/2014  00:28:00     -212.751       -9.913      -13.841       93.539       58.216       41.239     8749.464     3389.113     1700.668        2.969        0.692      212.982       46.357        0.047      344.449       21.274      858.164
06/10/2014  00:29:00     -244.393      -39.378      -18.416       54.625       64.482       40.007     2983.930     4157.888     1600.596        3.518        0.437      247.545       33.812        0.019      344.355       21.110      858.177
06/10/2014  00:30:00     -225.173      -26.078      -11.504      101.059       72.919       47.172    10212.999     5317.176     2225.227        3.463        0.888      226.678       56.414        0.062      344.223       20.887      858.164
06/10/2014  00:31:00     -226.159      -37.500      -17.479       76.128       74.286       43.267     5795.539     5518.427     1872.044        3.302        0.659      229.247       41.261        0.032      344.157       20.775      858.170
06/10/2014  00:32:00     -233.787      -41.795      -13.641       67.712       65.490       42.971     4584.957     4288.994     1846.545        3.365        0.536      237.493       37.948        0.026      344.224       20.887      858.166
06/10/2014  00:33:00     -189.652      -27.447      -30.064       64.749       60.134       35.148     4192.493     3616.132     1235.377        2.333        0.452      191.628       37.239        0.038      344.208       20.861      858.157
06/10/2014  00:34:00     -197.177       -4.036      -10.261       48.841       48.725       33.182     2385.491     2374.129     1101.050        2.243        0.293      197.218       22.276        0.013      344.210       20.863      858.162
06/10/2014  00:35:00     -205.151      -19.950      -19.810       59.566       43.540       34.431     3548.161     1895.772     1185.464        2.475        0.331      206.119       34.784        0.028      344.325       21.061      858.165
06/10/2014  00:36:00     -202.796      -16.816      -19.391       83.528       53.047       39.347     6976.905     2813.968     1548.181        2.656        0.567      203.492       40.564        0.040      344.321       21.055      858.166
06/10/2014  00:37:00     -219.490       -1.844      -19.910       64.242       59.543       31.181     4127.007     3545.315      972.247        2.861        0.432      219.498       29.888        0.019      344.309       21.032      858.180
06/10/2014  00:38:00     -172.586       -0.650       -9.349       58.537       62.209       38.566     3426.595     3869.961     1487.320        1.933        0.439      172.588       35.323        0.042      344.275       20.976      858.184
06/10/2014  00:39:00     -167.784       -5.873       -9.713       68.602       45.208       35.048     4706.203     2043.778     1228.350        1.813        0.399      167.887       34.717        0.043      344.287       20.998      858.185
06/10/2014  00:40:00     -223.450      -14.671      -17.991       93.298       46.545       41.850     8704.514     2166.479     1751.398        3.154        0.631      223.931       47.206        0.044      344.246       20.924      858.187
06/10/2014  00:41:00     -186.054        0.824      -21.584       46.212       53.363       28.834     2135.581     2847.559      831.418        2.045        0.291      186.055       17.537        0.009      344.206       20.858      858.179
06/10/2014  00:42:00     -182.537      -21.798      -25.179       65.142       57.259       38.802     4243.448     3278.650     1505.602        2.173        0.451      183.834       40.883        0.049      344.256       20.942      858.173
06/10/2014  00:43:00     -240.415       -6.835      -25.008       50.345       58.134       32.544     2534.657     3379.615     1059.105        3.272        0.349      240.512       27.322        0.013      344.273       20.971      858.168
06/10/2014  00:44:00     -198.337      -11.456      -30.616       56.619       52.142       31.024     3205.748     2718.741      962.509        2.365        0.344      198.667       32.304        0.026      344.262       20.954      858.164
06/10/2014  00:45:00     -195.848      -52.812      -20.023       62.069       53.249       33.505     3852.534     2835.416     1122.600        2.468        0.391      202.844       28.212        0.019      344.187       20.825      858.168
06/10/2014  00:46:00     -247.144      -24.379      -27.522       78.307       50.036       34.220     6131.914     2503.630     1171.036        3.612        0.490      248.343       30.478        0.015      344.071       20.626      858.168
06/10/2014  00:47:00     -261.610      -24.108      -34.209       50.036       50.505       27.810     2503.616     2550.805      773.382        3.801        0.291      262.718       20.268        0.006      344.098       20.672      858.178
06/10/2014  00:48:00     -248.516      -28.177      -27.232       58.440       53.362       37.075     3415.182     2847.506     1374.580        3.547        0.382      250.108       33.673        0.018      344.109       20.691      858.171
06/10/2014  00:49:00     -186.048       -8.954      -18.684       61.525       66.099       34.511     3785.357     4369.069     1191.016        2.219        0.467      186.263       31.441        0.028      344.119       20.709      858.160
06/10/2014  00:50:00     -187.313      -47.233      -24.588       46.897       54.749       31.357     2199.289     2997.475      983.237        2.205        0.309      193.176       24.223        0.016      344.183       20.818      858.166
06/10/2014  00:51:00     -169.172      -27.082      -15.220       40.841       48.539       31.252     1668.004     2356.008      976.705        1.729        0.250      171.326       25.980        0.023      344.252       20.937      858.155
06/10/2014  00:52:00     -137.468      -22.308       -8.460       56.011       44.540       28.678     3137.197     1983.850      822.418        1.270        0.297      139.266       31.086        0.050      344.235       20.910      858.155
06/10/2014  00:53:00     -139.406        0.782      -12.846       34.677       33.320       25.452     1202.491     1110.252      647.806        1.128        0.148      139.408       22.562        0.026      344.195       20.841      858.143
06/10/2014  00:54:00     -166.053       36.350      -15.661       42.107       28.936       22.795     1773.028      837.312      519.624        1.613        0.156      169.985       23.453        0.019      344.320       21.055      858.146
06/10/2014  00:55:00     -161.649       -0.447      -15.189       44.436       29.063       24.007     1974.574      844.652      576.321        1.488        0.170      161.650       23.384        0.021      344.261       20.954      858.138
06/10/2014  00:56:00     -119.005      -21.407      -10.671       68.392       32.322       25.393     4677.427     1044.701      644.790        1.055        0.318      120.915       33.744        0.078      344.232       20.904      858.130
06/10/2014  00:57:00      -53.417       -6.421      -11.226       26.166       30.623       17.680      684.665      937.739      312.599        0.248        0.097       53.802       10.283        0.037      344.130       20.729      858.134
06/10/2014  00:58:00      -86.858       -4.437       -1.250       62.789       28.773       21.009     3942.509      827.887      441.359        0.639        0.261       86.971       28.944        0.111      344.164       20.789      858.132
06/10/2014  00:59:00      -34.860       -6.055       -2.030       17.977       28.215       13.998      323.187      796.111      195.941        0.129        0.066       35.381        9.229        0.068      344.145       20.756      858.108
06/10/2014  01:00:00        6.875      -41.097       -8.996       12.861       21.831       15.061      165.409      476.614      226.846        0.134        0.043       41.668       13.939        0.112      344.138       20.743      858.115
06/10/2014  01:01:00        2.841      -16.974        7.018       23.243       17.298       18.924      540.246      299.207      358.135        0.077        0.060       17.210        8.683        0.255      343.987       20.485      858.097
06/10/2014  01:02:00      -20.237      -59.548       -0.859       28.835       19.836       19.855      831.442      393.451      394.226        0.279        0.081       62.893       18.717        0.089      344.083       20.651      858.086
06/10/2014  01:03:00      -40.431      -46.746       -4.055       25.430       19.829       14.151      646.662      393.174      200.264        0.254        0.062       61.805       10.601        0.029      344.170       20.797      858.094
06/10/2014  01:04:00      -12.456      -34.606        5.650       32.517       23.250       17.474     1057.372      540.558      305.353        0.164        0.095       36.779       16.984        0.213      344.216       20.878      858.083
06/10/2014  01:05:00       -1.952      -41.157       13.353       33.326       33.889       15.411     1110.604     1148.451      237.510        0.219        0.125       41.203       16.389        0.158      344.197       20.845      858.073
06/10/2014  01:06:00      -24.704      -42.623        9.672       48.658       44.203       29.350     2367.552     1953.872      861.416        0.385        0.259       49.265       25.550        0.269      344.015       20.533      858.072
06/10/2014  01:07:00       -9.582      -30.562       12.683       31.057       26.911       18.844      964.549      724.211      355.103        0.161        0.102       32.029       17.242        0.290      343.884       20.310      858.057
06/10/2014  01:08:00      -94.840      -84.065       -4.533       51.699       35.343       23.947     2672.786     1249.140      573.437        1.029        0.225      126.735       26.561        0.044      343.881       20.303      858.052
06/10/2014  01:09:00      -70.495      -87.566        8.189       54.192       44.038       28.233     2936.764     1939.326      797.084        0.919        0.284      112.416       33.069        0.087      343.802       20.171      858.043
06/10/2014  01:10:00      -67.275      -72.916        6.456       51.165       37.373       23.145     2617.815     1396.720      535.693        0.722        0.228       99.210       23.680        0.057      343.854       20.259      858.032
06/10/2014  01:11:00      -53.116      -53.672        0.664       43.659       31.288       21.906     1906.084      978.929      479.855        0.453        0.168       75.512       25.081        0.110      343.847       20.248      858.030
06/10/2014  01:12:00      -75.013      -83.534       -5.768       35.948       48.635       23.023     1292.234     2365.398      530.081        0.841        0.209      112.272       17.562        0.024      343.848       20.248      858.026
06/10/2014  01:13:00      -81.799     -103.557      -11.418       37.779       22.852       21.176     1427.265      522.201      448.420        0.997        0.120      131.966       16.568        0.016      343.883       20.308      858.013
06/10/2014  01:14:00     -101.736      -85.501      -11.472       24.147       33.330       20.545      583.054     1110.876      422.087        0.995        0.106      132.893       17.493        0.017      343.861       20.271      858.012
06/10/2014  01:15:00      -83.719      -69.710        0.096       40.026       33.113       21.523     1602.051     1096.469      463.235        0.751        0.158      108.942       19.771        0.033      343.834       20.224      858.017
06/10/2014  01:16:00      -87.878      -79.625       -0.522       30.366       43.801       14.884      922.101     1918.485      221.534        0.856        0.153      118.586       11.764        0.010      343.887       20.313      858.021
06/10/2014  01:17:00      -62.712      -77.285        7.225       43.933       26.354       25.044     1930.119      694.527      627.200        0.660        0.163       99.528       29.669        0.089      343.908       20.350      858.031
06/10/2014  01:18:00      -73.686      -49.979        2.929       36.172       27.129       17.327     1308.381      735.982      300.222        0.514        0.117       89.037       13.913        0.024      343.916       20.367      858.051
06/10/2014  01:19:00      -63.502      -39.655        2.539       34.565       22.550       18.891     1194.741      508.498      356.855        0.384        0.103       74.866       12.899        0.030      343.936       20.400      858.063
06/10/2014  01:20:00      -94.478      -55.531        2.335       43.065       41.637       19.948     1854.576     1733.620      397.932        0.800        0.199      109.589       18.391        0.028      343.884       20.312      858.063
06/10/2014  01:21:00     -110.294      -60.368       -0.548       44.508       38.673       27.430     1980.995     1495.597      752.413        1.002        0.211      125.734       24.916        0.039      343.891       20.321      858.067
06/10/2014  01:22:00      -81.196      -49.660        2.183       36.673       31.814       19.004     1344.920     1012.101      361.140        0.589        0.136       95.178       18.995        0.040      343.868       20.284      858.078
06/10/2014  01:23:00      -47.442      -38.307        1.615       32.521       25.548       16.486     1057.586      652.682      271.774        0.285        0.099       60.977       16.803        0.076      343.753       20.087      858.079
06/10/2014  01:24:00      -47.680      -37.984       -2.436       22.859       12.017       14.390      522.532      144.396      207.075        0.230        0.044       60.960        8.578        0.020      343.938       20.401      858.079
06/10/2014  01:25:00     -117.301      -38.777      -20.367       16.418       21.933       12.719      269.560      481.044      161.766        0.830        0.046      123.544        8.351        0.005      344.151       20.766      858.081
06/10/2014  01:26:00      -80.709      -82.989      -20.910       33.387       27.244       15.322     1114.710      742.235      234.759        0.796        0.105      115.763       12.396        0.011      344.237       20.913      858.069
06/10/2014  01:27:00       22.417      -78.216       -3.538       40.141       19.131       17.163     1611.269      365.986      294.570        0.445        0.114       81.365       14.918        0.034      344.734       21.762      858.059
06/10/2014  01:28:00       63.220      -82.737       -0.056       31.764       41.818       21.735     1008.935     1748.754      472.404        0.704        0.162      104.126       22.626        0.047      345.171       22.511      858.061
06/10/2014  01:29:00       -0.836      -42.613       -3.443       15.741       23.364       14.739      247.765      545.865      217.236        0.142        0.051       42.621       10.757        0.064      344.855       21.971      858.066
06/10/2014  01:30:00      -21.142      -45.632        9.775       16.198       11.872       14.215      262.380      140.935      202.067        0.162        0.030       50.292        9.521        0.036      344.799       21.873      858.049
06/10/2014  01:31:00       -3.478      -55.568       18.228       29.095       30.771       21.604      846.505      946.832      466.719        0.285        0.113       55.677        6.089        0.012      344.613       21.556      858.039
06/10/2014  01:32:00      -71.487        6.981       -7.976       23.681       33.892       14.707      560.805     1148.689      216.286        0.357        0.096       71.827       13.025        0.033      344.452       21.281      858.048
06/10/2014  01:33:00      -58.593      -33.958       -5.432       36.015       21.712       15.243     1297.108      471.419      232.348        0.331        0.100       67.722       16.469        0.059      344.215       20.876      858.025
06/10/2014  01:34:00       27.782        2.544       -1.948       38.333       16.125       26.045     1469.389      260.016      678.354        0.159        0.120       27.899       14.439        0.268      344.138       20.743      858.011
06/10/2014  01:35:00       38.335       -7.850       -0.301       23.777       27.400       21.693      565.337      750.769      470.607        0.166        0.089       39.131       14.540        0.138      343.711       20.015      858.021
06/10/2014  01:36:00       -0.061      -16.108        0.789       19.496       14.970       15.369      380.111      224.095      236.206        0.055        0.042       16.108       10.495        0.424      344.129       20.728      858.011
06/10/2014  01:37:00       12.288      -34.582       -1.249       39.383       22.005        9.797     1550.982      484.225       95.989        0.174        0.107       36.701        5.618        0.023      344.584       21.506      858.005
06/10/2014  01:38:00      -40.149      -20.113      -14.094       31.883       28.409       16.827     1016.504      807.093      283.162        0.216        0.105       44.905       14.539        0.105      344.644       21.609      857.991
06/10/2014  01:39:00       11.713        3.615       -4.794       32.897       17.326       12.366     1082.182      300.187      152.913        0.085        0.077       12.258        6.683        0.297      344.166       20.791      857.991
06/10/2014  01:40:00       11.905        1.791        7.037       14.423       22.461       15.850      208.024      504.495      251.237        0.058        0.048       12.039        8.036        0.446      343.891       20.322      857.994
06/10/2014  01:41:00      -60.275        6.084        2.076       37.096       25.854       17.208     1376.138      668.425      296.103        0.301        0.117       60.581       17.181        0.080      344.065       20.621      857.984
06/10/2014  01:42:00      -49.675      -29.904       -0.574       31.812       24.477       11.203     1012.018      599.124      125.505        0.255        0.087       57.981       10.838        0.035      344.477       21.323      857.966
06/10/2014  01:43:00        2.140        3.015        5.206       21.134       15.343       12.295      446.635      235.408      151.166        0.044        0.042        3.697       11.362        9.444      344.295       21.012      857.955
06/10/2014  01:44:00      -54.627       -4.216        0.002       67.333       20.355       19.475     4533.678      414.333      379.260        0.416        0.266       54.789       32.167        0.345      344.305       21.029      857.959
06/10/2014  01:45:00     -123.627      -48.781      -13.405       40.180       23.943       18.813     1614.436      573.249      353.941        1.019        0.127      132.903       14.499        0.012      344.359       21.123      857.958
06/10/2014  01:46:00      -92.188      -63.634       -0.492       38.723       26.059       18.232     1499.489      679.059      332.404        0.753        0.126      112.017       15.985        0.020      344.227       20.895      857.950
06/10/2014  01:47:00      -90.597      -77.686       -3.986       27.659       28.149       14.096      765.033      792.345      198.686        0.801        0.088      119.344       14.786        0.015      344.485       21.338      857.942
06/10/2014  01:48:00     -104.597      -54.792       -9.378       22.888       15.800       11.780      523.879      249.652      138.764        0.747        0.046      118.079        6.028        0.003      344.296       21.013      857.930
06/10/2014  01:49:00      -93.045      -55.491       -6.292       35.039       18.009       17.675     1227.701      324.326      312.406        0.682        0.093      108.336        9.759        0.008      344.153       20.770      857.934
06/10/2014  01:50:00     -111.279      -49.904       -8.151       26.478       18.267       13.939      701.079      333.670      194.292        0.808        0.061      121.957       10.229        0.007      344.148       20.760      857.947
06/10/2014  01:51:00     -124.994      -32.954       -2.797       18.036       17.502       12.360      325.305      306.337      152.781        0.875        0.039      129.266        9.422        0.005      343.986       20.485      857.966
06/10/2014  01:52:00     -106.800      -58.463        1.530       38.260       29.630       12.608     1463.794      877.938      158.958        0.866        0.125      121.754       13.530        0.012      344.055       20.602      857.970
06/10/2014  01:53:00      -57.919      -38.377        5.086       41.290       37.320       22.605     1704.827     1392.771      510.965        0.423        0.180       69.479       19.966        0.083      344.133       20.736      857.972
06/10/2014  01:54:00      -85.853      -39.852        0.120       49.925       42.970       21.428     2492.545     1846.459      459.144        0.688        0.240       94.652       24.316        0.066      343.976       20.468      857.971
06/10/2014  01:55:00     -100.041      -82.680       -1.312       55.867       38.817       25.498     3121.118     1506.758      650.166        1.106        0.264      129.785       23.854        0.034      344.150       20.765      857.984
06/10/2014  01:56:00      -68.179      -56.096        4.508       50.645       33.542       25.006     2564.925     1125.055      625.298        0.606        0.216       88.290       26.334        0.089      344.051       20.597      857.997
06/10/2014  01:57:00      -62.944      -48.560       11.540       54.179       40.010       32.710     2935.415     1600.833     1069.958        0.603        0.280       79.499       27.756        0.122      343.997       20.503      857.996
06/10/2014  01:58:00     -122.941     -117.260       -7.300       74.827       50.645       27.141     5599.044     2564.870      736.622        1.891        0.445      169.895       29.871        0.031      343.935       20.395      857.980
06/10/2014  01:59:00     -111.662      -57.029        6.692       54.860       53.944       33.855     3009.669     2909.936     1146.143        1.141        0.353      125.382       30.184        0.058      343.837       20.230      857.978
06/10/2014  02:00:00     -123.991      -92.380       -7.667       58.298       35.818       20.348     3398.644     1282.902      414.028        1.453        0.255      154.622       16.337        0.011      343.827       20.212      857.991
06/10/2014  02:01:00      -92.588      -61.782       -5.072       52.536       34.828       25.285     2760.014     1212.997      639.337        0.851        0.231      111.309       25.162        0.051      343.679       19.959      857.998
06/10/2014  02:02:00     -150.677      -61.846       -7.376       46.923       31.028       22.285     2201.790      962.719      496.640        1.512        0.183      162.876       20.598        0.016      343.683       19.967      858.001
06/10/2014  02:03:00     -106.508      -61.584        1.260       40.934       29.827       20.012     1675.629      889.666      400.483        0.905        0.148      123.031       18.641        0.023      343.710       20.014      857.996
06/10/2014  02:04:00      -90.092      -56.791       -3.236       51.009       42.149       25.469     2601.926     1776.513      648.653        0.819        0.251      106.497       26.950        0.064      343.780       20.132      857.991
06/10/2014  02:05:00      -65.540      -65.237       -0.862       59.390       35.463       18.912     3527.214     1257.598      357.669        0.685        0.257       92.474       19.914        0.046      343.774       20.123      857.984
06/10/2014  02:06:00      -62.966      -61.883        7.119       46.579       28.725       20.792     2169.573      825.153      432.291        0.564        0.171       88.284       23.059        0.068      343.763       20.104      857.991
06/10/2014  02:07:00      -74.307      -74.947       -0.574       35.396       28.678       21.924     1252.899      822.455      480.647        0.685        0.128      105.539       19.750        0.035      343.696       19.989      857.996
06/10/2014  02:08:00     -101.486      -79.191        2.863       59.285       38.812       29.350     3514.755     1506.353      861.431        1.123        0.294      128.727       31.624        0.060      343.643       19.898      858.008
06/10/2014  02:09:00     -111.030      -80.867       -8.411       39.786       42.729       28.149     1582.907     1825.782      792.366        1.157        0.210      137.358       19.880        0.021      343.610       19.843      858.014
06/10/2014  02:10:00      -91.521      -68.902        9.404       70.691       45.864       34.012     4997.267     2103.469     1156.822        1.073        0.413      114.558       32.653        0.081      343.573       19.779      858.004
06/10/2014  02:11:00     -145.347     -112.563       -0.346       83.354       47.974       41.103     6947.913     2301.508     1689.485        2.237        0.547      183.837       45.581        0.061      343.726       20.038      857.999
06/10/2014  02:12:00     -108.636      -61.647        3.320       61.952       53.877       27.978     3838.102     2902.757      782.759        1.157        0.376      124.908       18.119        0.021      343.774       20.122      857.998
06/10/2014  02:13:00     -123.803     -100.082       -3.836       54.477       51.628       32.109     2967.722     2665.500     1030.960        1.601        0.333      159.197       24.653        0.024      343.632       19.879      857.998
06/10/2014  02:14:00     -141.934     -106.887       -7.232       51.653       47.258       27.444     2668.077     2233.282      753.187        1.864        0.283      177.680       28.698        0.026      343.634       19.884      857.986
06/10/2014  02:15:00     -121.958     -100.679       -7.260       45.612       45.890       27.991     2080.492     2105.911      783.473        1.502        0.248      158.145       22.023        0.019      343.641       19.895      857.987
06/10/2014  02:16:00     -116.089      -61.063       -5.679       43.925       47.835       30.201     1929.417     2288.217      912.115        1.118        0.256      131.169       22.253        0.029      343.572       19.779      857.998
06/10/2014  02:17:00      -77.052      -58.830       -5.753       44.381       49.833       22.876     1969.677     2483.376      523.318        0.720        0.249       96.944       19.983        0.042      343.557       19.751      858.004
06/10/2014  02:18:00      -70.193      -60.727       -2.613       45.932       30.663       20.434     2109.734      940.238      417.563        0.604        0.173       92.816       20.150        0.047      343.529       19.705      858.002
06/10/2014  02:19:00      -51.230       10.815       -8.213       46.002       34.867       16.258     2116.191     1215.701      264.322        0.320        0.180       52.359       14.945        0.081      343.426       19.530      858.015
06/10/2014  02:20:00        7.650       28.456       -1.725       16.580       19.415        8.660      274.892      376.924       75.002        0.080        0.036       29.467        5.881        0.040      343.170       19.094      858.010
06/10/2014  02:21:00       16.628        8.824        2.445       28.835       14.333       19.320      831.454      205.436      373.253        0.089        0.071       18.825       10.968        0.339      342.942       18.706      858.007
06/10/2014  02:22:00       19.801       -6.616       21.628       19.091       21.388       14.739      364.482      457.462      217.225        0.097        0.052       20.877        7.284        0.122      342.628       18.169      857.999
06/10/2014  02:23:00      -12.651      -40.446       16.229       20.294       25.349       20.676      411.851      642.564      427.494        0.177        0.074       42.378       11.993        0.080      343.381       19.453      857.994
06/10/2014  02:24:00        3.710      -33.270       13.665       37.763       22.656       21.795     1426.032      513.309      475.041        0.186        0.121       33.476       17.998        0.289      343.238       19.207      857.987
06/10/2014  02:25:00      -18.120      -19.931        4.108       31.964       23.513       15.685     1021.689      552.847      246.018        0.128        0.091       26.937       10.162        0.142      343.297       19.309      857.980
06/10/2014  02:26:00      -13.799      -18.047        3.285       24.113       15.068       11.203      581.428      227.046      125.517        0.073        0.047       22.718       10.842        0.228      343.248       19.225      857.968
06/10/2014  02:27:00      -55.424      -12.537       -2.426       17.786       16.554       13.355      316.327      274.047      178.354        0.200        0.038       56.824       11.930        0.044      343.291       19.298      857.968
06/10/2014  02:28:00      -51.646      -13.714        1.599       25.916       15.723       12.614      671.644      247.218      159.102        0.197        0.054       53.436       11.594        0.047      343.181       19.113      857.979
06/10/2014  02:29:00      -28.486      -25.312        1.696       36.390       16.316       12.811     1324.255      266.216      164.133        0.160        0.088       38.107       15.234        0.160      343.226       19.188      857.980
06/10/2014  02:30:00      -25.656      -27.592        2.743       31.517       22.728       13.109      993.322      516.540      171.847        0.155        0.084       37.677       15.268        0.164      343.190       19.127      857.984
06/10/2014  02:31:00      -13.868      -13.594        9.795       30.263       24.435       22.037      915.864      597.074      485.648        0.124        0.100       19.419       20.431        1.107      342.939       18.700      857.993
06/10/2014  02:32:00      -69.043      -38.951       10.467       43.749       27.004       19.654     1914.006      729.207      386.282        0.471        0.151       79.272       19.006        0.057      343.223       19.184      857.988
06/10/2014  02:33:00      -98.121      -61.526       -2.284       43.054       52.963       26.737     1853.651     2805.074      714.855        0.940        0.269      115.815       29.261        0.064      343.357       19.411      857.990
06/10/2014  02:34:00     -100.141      -51.846       -4.102       26.836       32.521       19.922      720.196     1057.609      396.904        0.745        0.109      112.766       16.408        0.021      343.351       19.401      857.994
06/10/2014  02:35:00      -35.470       -8.186        6.028       25.472       18.096       15.508      648.836      327.471      240.487        0.129        0.061       36.402       13.825        0.144      343.207       19.156      857.989
06/10/2014  02:36:00      -11.875       -6.886       14.289       26.012       21.455       14.150      676.637      460.309      200.216        0.086        0.067       13.728       13.494        0.966      343.011       18.822      857.984
06/10/2014  02:37:00        4.813        7.921        4.745       17.029       30.684       10.072      289.985      941.512      101.454        0.072        0.067        9.268       12.646        1.862      342.621       18.160      857.999
06/10/2014  02:38:00       21.346       42.212        5.876       19.487       16.343       11.134      379.757      267.109      123.955        0.152        0.039       47.302       10.360        0.048      342.956       18.729      857.997
06/10/2014  02:39:00       35.686       27.384       33.728       21.008       18.446       16.976      441.333      340.261      288.196        0.212        0.053       44.981        8.564        0.036      342.255       17.538      857.989
06/10/2014  02:40:00       33.695       -9.024       -3.319       28.366       18.143       12.628      804.628      329.187      159.455        0.126        0.065       34.883        8.138        0.054      342.586       18.100      858.012
06/10/2014  02:41:00       23.294       15.073       23.354       21.682       18.880       25.015      470.128      356.456      625.769        0.138        0.073       27.746       15.330        0.305      342.792       18.449      858.022
06/10/2014  02:42:00       41.043       17.801       16.932       19.524       16.287       13.521      381.204      265.257      182.827        0.156        0.041       44.737        8.955        0.040      342.805       18.472      858.035
06/10/2014  02:43:00       28.388       27.571        6.978       23.718       17.337       20.978      562.534      300.583      440.081        0.146        0.065       39.573        9.432        0.057      342.843       18.536      858.046
06/10/2014  02:44:00       58.840       32.941        5.578       22.809       24.931       17.384      520.249      621.536      302.191        0.301        0.072       67.433       10.972        0.026      342.790       18.446      858.059
06/10/2014  02:45:00       56.065       37.980        1.812       31.491       23.248       22.188      991.701      540.472      492.316        0.331        0.101       67.718       12.345        0.033      342.829       18.513      858.065
06/10/2014  02:46:00       90.636       48.500       16.651       31.438       27.444       19.379      988.340      753.149      375.551        0.648        0.106      102.796        7.524        0.005      343.036       18.865      858.085
06/10/2014  02:47:00       79.116       63.989        2.371       41.004       23.534       25.073     1681.315      553.835      628.672        0.661        0.143      101.754       16.623        0.027      343.227       19.191      858.101
06/10/2014  02:48:00       48.685       64.476        3.320       28.510       35.294       26.440      812.822     1245.690      699.078        0.465        0.138       80.792       24.048        0.089      342.936       18.693      858.108
06/10/2014  02:49:00       55.308       47.400        7.896       32.997       32.011       17.594     1088.806     1024.707      309.565        0.390        0.121       72.840       12.662        0.030      342.932       18.688      858.120
06/10/2014  02:50:00       20.453       25.833        4.416       17.591       21.758       15.207      309.439      473.428      231.240        0.106        0.051       32.950       12.208        0.137      342.860       18.564      858.127
06/10/2014  02:51:00       51.534       15.808       25.940       24.840       19.316       19.425      617.016      373.112      377.333        0.247        0.068       53.904        9.740        0.033      342.788       18.443      858.126
06/10/2014  02:52:00       69.600       13.109        6.727       36.601       33.848       29.581     1339.649     1145.717      875.053        0.421        0.168       70.824       14.856        0.044      342.408       17.796      858.133
06/10/2014  02:53:00       86.556       23.593        8.217       29.039       36.960       27.244      843.244     1366.014      742.234        0.553        0.148       89.714       16.971        0.036      342.355       17.708      858.152
06/10/2014  02:54:00       58.154      -19.598       -5.135       22.957       21.969       18.707      527.015      482.648      349.951        0.258        0.068       61.367       15.967        0.068      342.353       17.704      858.157
06/10/2014  02:55:00       55.894       10.628       14.490       21.440       23.209       29.792      459.671      538.675      887.539        0.267        0.094       56.895       16.421        0.083      342.588       18.103      858.164
06/10/2014  02:56:00       50.278        4.921       -8.317       20.528       23.250       24.983      421.416      540.580      624.170        0.210        0.079       50.518       11.650        0.053      343.060       18.906      858.172
06/10/2014  02:57:00       77.712        3.481       -2.506       15.090       13.778       15.734      227.723      189.845      247.570        0.336        0.033       77.790       12.364        0.025      343.297       19.309      858.167
06/10/2014  02:58:00       14.464       13.385       11.246       32.014       37.548       26.231     1024.880     1409.885      688.077        0.182        0.156       19.707       19.408        0.970      343.314       19.337      858.148
06/10/2014  02:59:00       15.398       37.491       33.600       31.881       37.429       21.201     1016.369     1400.953      449.499        0.282        0.143       40.530       15.230        0.141      342.893       18.623      858.138
06/10/2014  03:00:00      132.184       79.184       31.488       41.676       26.552       35.527     1736.888      704.995     1262.164        1.422        0.185      154.086       25.423        0.027      343.749       20.080      858.138
06/10/2014  03:01:00       25.752      -36.729       -2.384       34.758       59.719       36.144     1208.094     3566.351     1306.420        0.405        0.304       44.857       36.297        0.655      343.074       18.931      858.134
06/10/2014  03:02:00        8.966      -20.912       -1.977       23.086       25.521       15.711      532.951      651.311      246.841        0.098        0.072       22.753       10.073        0.196      343.073       18.928      858.128
06/10/2014  03:03:00       28.317        7.930       -0.586       26.420       13.574       18.232      698.017      184.258      332.396        0.104        0.061       29.406       15.797        0.289      343.093       18.963      858.138
06/10/2014  03:04:00       53.156       -1.809       13.417       48.743       24.894       21.970     2375.921      619.719      482.703        0.324        0.174       53.187       17.890        0.113      343.344       19.389      858.152
06/10/2014  03:05:00       33.483       -8.485       10.148       28.678       22.558       17.915      822.420      508.841      320.959        0.147        0.083       34.542       16.841        0.238      343.153       19.064      858.155
06/10/2014  03:06:00       45.124      -28.466       -0.920       18.540       15.515       21.366      343.728      240.712      456.505        0.194        0.052       53.353        9.967        0.035      342.769       18.411      858.165
06/10/2014  03:07:00       56.966      -23.408        4.777       33.224       21.327       21.339     1103.858      454.843      455.366        0.291        0.101       61.588       11.821        0.037      342.816       18.490      858.187
06/10/2014  03:08:00       40.697      -26.512       20.573       27.975       33.638       21.859      782.574     1131.527      477.834        0.259        0.120       48.571       17.710        0.133      342.483       17.923      858.200
06/10/2014  03:09:00       26.347      -33.177       19.631       16.842       17.891       15.648      283.640      320.082      244.870        0.151        0.042       42.366       10.301        0.059      343.302       19.317      858.212
06/10/2014  03:10:00        8.598      -35.192        8.482       19.135       24.274       14.531      366.153      589.239      211.137        0.128        0.058       36.227       13.483        0.139      343.624       19.866      858.224
06/10/2014  03:11:00      -10.843      -30.786        2.204       25.081       15.269       17.048      629.076      233.157      290.636        0.111        0.058       32.639       13.403        0.169      343.706       20.005      858.229
06/10/2014  03:12:00      -22.384      -14.226        0.913       36.369       46.943       28.985     1322.694     2203.611      840.149        0.253        0.218       26.522       21.930        0.684      343.559       19.756      858.229
06/10/2014  03:13:00        6.388      -11.790      -16.310       33.691       28.835       13.758     1135.070      831.435      189.291        0.130        0.108       13.409       13.186        0.967      343.333       19.371      858.237
06/10/2014  03:14:00       54.291      -30.554       14.199       23.947       23.251       22.079      573.475      540.623      487.501        0.284        0.080       62.298       18.219        0.086      343.022       18.841      858.253
06/10/2014  03:15:00       49.031       -6.164       13.559       27.546       49.948       33.567      758.789     2494.772     1126.728        0.350        0.219       49.417       33.763        0.467      342.882       18.603      858.258
06/10/2014  03:16:00       28.276      -11.328       27.472       32.241       40.922       26.025     1039.467     1674.622      677.293        0.254        0.170       30.461       25.166        0.683      343.183       19.116      858.271
06/10/2014  03:17:00       24.809      -19.723       -7.145       13.201       25.535       18.861      174.275      652.012      355.720        0.112        0.059       31.694       13.940        0.193      343.203       19.149      858.279
06/10/2014  03:18:00       26.368        1.591        0.108        9.684       12.145        9.942       93.773      147.507       98.853        0.052        0.017       26.416        1.191        0.002      343.155       19.067      858.290
06/10/2014  03:19:00       16.996       12.400       16.613       19.369       10.784       10.519      375.156      116.296      110.655        0.066        0.030       21.039        5.168        0.060      343.214       19.169      858.315
06/10/2014  03:20:00      -35.719       53.930       -7.534       22.967       21.495       14.881      527.497      462.032      221.440        0.273        0.061       64.686       10.576        0.027      343.163       19.080      858.337
06/10/2014  03:21:00      -55.625       33.616       -7.703       16.122       20.553       10.924      259.908      422.435      119.343        0.254        0.040       64.994       11.427        0.031      343.035       18.863      858.344
06/10/2014  03:22:00      -49.534       47.508      -10.076       17.553       43.370       11.446      308.109     1880.959      131.014        0.357        0.116       68.634       10.608        0.024      343.189       19.126      858.351
06/10/2014  03:23:00      -65.604       38.863      -11.388       20.090       38.449       11.920      403.622     1478.318      142.082        0.398        0.101       76.251       11.566        0.023      342.743       18.366      858.363
06/10/2014  03:24:00      -59.105      105.418      -17.037       32.621       34.469       19.430     1064.143     1188.119      377.539        0.876        0.131      120.857       17.671        0.021      343.230       19.194      858.382
06/10/2014  03:25:00      -73.668      132.494      -12.221       65.825       96.812       30.523     4332.928     9372.659      931.639        1.888        0.732      151.597       15.468        0.010      343.120       19.006      858.385
06/10/2014  03:26:00     -100.993       45.426      -23.149       46.486       66.379       21.131     2160.988     4406.178      446.528        0.991        0.351      110.739       20.962        0.036      343.151       19.060      858.389
06/10/2014  03:27:00     -171.815      -17.370      -13.838       28.139       45.341       22.636      791.809     2055.765      512.384        1.669        0.168      172.691       14.892        0.007      342.295       17.604      858.389
06/10/2014  03:28:00     -148.872      -14.945      -19.789       20.526       25.075       19.286      421.315      628.773      371.945        1.210        0.071      149.620       11.203        0.006      342.279       17.577      858.381
06/10/2014  03:29:00     -115.288       10.413       -3.356       32.794       28.793       20.903     1075.429      829.031      436.929        0.788        0.117      115.757       17.035        0.022      342.246       17.522      858.377
06/10/2014  03:30:00      -79.749      -40.957       -0.235       23.601       30.671       13.296      556.984      940.719      176.785        0.486        0.084       89.652       11.794        0.017      342.421       17.818      858.357
06/10/2014  03:31:00      -60.030        5.683       -8.315       21.001       23.051       13.479      441.045      531.367      181.695        0.243        0.058       60.298        9.752        0.026      342.622       18.160      858.352
06/10/2014  03:32:00      -77.862      -22.959       -9.193       26.521       20.452       12.119      703.373      418.282      146.861        0.397        0.063       81.176        8.260        0.010      342.946       18.712      858.348
06/10/2014  03:33:00      -16.901       31.822       10.530       17.914       21.793       11.948      320.929      474.932      142.762        0.117        0.047       36.031        9.072        0.063      343.210       19.160      858.352
06/10/2014  03:34:00       12.679       16.320       28.689       18.943       27.724       17.047      358.820      768.597      290.594        0.133        0.071       20.666       17.241        0.696      342.929       18.683      858.360
06/10/2014  03:35:00       20.535       -1.544        5.211       15.822       19.170       20.433      250.350      367.480      417.500        0.074        0.052       20.593       17.102        0.690      342.596       18.115      858.365
06/10/2014  03:36:00       10.576       -6.033       14.074       10.135       17.610       10.102      102.715      310.123      102.054        0.043        0.026       12.176       11.154        0.839      342.300       17.613      858.357
06/10/2014  03:37:00      -16.480       14.416       -5.664       17.865       18.267       11.242      319.161      333.669      126.392        0.065        0.039       21.895       12.768        0.340      342.903       18.639      858.356
06/10/2014  03:38:00       59.292       -5.474       25.734       33.277       17.445       16.793     1107.368      304.312      282.000        0.295        0.085       59.544        8.131        0.019      342.571       18.074      858.353
06/10/2014  03:39:00       70.231       -6.457        0.397       21.365       24.873       18.543      456.482      618.648      343.860        0.320        0.071       70.527        6.167        0.008      342.501       17.953      858.354
06/10/2014  03:40:00       32.160      -26.965        7.118       17.595       16.589       16.924      309.586      275.208      286.410        0.134        0.044       41.969       13.696        0.106      342.564       18.062      858.354
06/10/2014  03:41:00      -64.745      -38.554       -1.838       63.567       32.644       19.308     4040.782     1065.616      372.792        0.558        0.274       75.355       20.759        0.076      342.623       18.160      858.359
06/10/2014  03:42:00      -63.783      -60.557        0.203       31.619       30.489       17.085      999.731      929.597      291.910        0.498        0.111       87.951        9.953        0.013      342.750       18.378      858.354
06/10/2014  03:43:00      -27.405     -100.014        6.357       18.731       24.175       13.514      350.834      584.432      182.633        0.596        0.056      103.701        8.070        0.006      343.033       18.859      858.349
06/10/2014  03:44:00      -90.465      -28.238        2.046       79.557       36.734       22.818     6329.392     1349.377      520.658        0.859        0.410       94.769       27.855        0.086      342.665       18.233      858.356
06/10/2014  03:45:00     -109.635     -103.856        0.482       65.863       37.006       24.047     4337.922     1369.463      578.277        1.454        0.314      151.016       20.586        0.019      342.537       18.015      858.363
06/10/2014  03:46:00      -76.773      -58.736       -8.264       32.883       60.537       17.415     1081.308     3664.726      303.265        0.723        0.252       96.665       14.650        0.023      342.678       18.257      858.374
06/10/2014  03:47:00      -78.893      -91.222       -0.287       60.356       48.482       28.155     3642.885     2350.538      792.690        1.066        0.339      120.605       26.444        0.048      342.604       18.129      858.378
06/10/2014  03:48:00      -42.095      -69.691        2.755       52.867       54.705       33.545     2794.908     2992.689     1125.237        0.677        0.346       81.417       27.713        0.116      342.679       18.257      858.383
06/10/2014  03:49:00     -110.450      -61.597       -3.861       66.445       41.910       32.045     4414.884     1756.415     1026.866        1.160        0.360      126.465       31.576        0.062      342.696       18.286      858.390
06/10/2014  03:50:00      -85.108      -67.126        0.227       64.298       35.379       24.925     4134.193     1251.641      621.237        0.888        0.300      108.395       30.313        0.078      342.506       17.964      858.388
06/10/2014  03:51:00     -105.516      -83.804       -5.414       37.279       33.899       21.677     1389.753     1149.129      469.883        1.060        0.150      134.747       15.165        0.013      342.509       17.967      858.367
06/10/2014  03:52:00      -88.821      -75.051        4.499       43.198       37.206       25.873     1866.107     1384.319      669.406        0.873        0.196      116.284       26.571        0.052      342.458       17.881      858.342
06/10/2014  03:53:00      -96.988      -52.755        8.621       68.336       37.974       29.133     4669.876     1442.008      848.737        0.961        0.348      110.407       32.907        0.089      342.416       17.810      858.324
06/10/2014  03:54:00     -129.223      -89.802        4.113       66.938       55.653       33.113     4480.742     3097.300     1096.468        1.673        0.434      157.362       34.780        0.049      342.325       17.655      858.319
06/10/2014  03:55:00     -127.863      -61.200        8.334       60.988       40.430       31.536     3719.550     1634.577      994.536        1.326        0.317      141.755       32.757        0.053      342.276       17.572      858.327
06/10/2014  03:56:00     -132.872      -91.074       -2.564       39.803       39.089       23.123     1584.286     1527.960      534.675        1.480        0.182      161.088       19.594        0.015      342.318       17.641      858.322
06/10/2014  03:57:00      -99.394      -42.692       -0.509       39.936       41.072       18.858     1594.923     1686.886      355.634        0.767        0.182      108.175       17.058        0.025      342.261       17.547      858.316
06/10/2014  03:58:00     -146.144      -44.910       -2.222       38.543       31.201       20.643     1485.576      973.474      426.140        1.313        0.144      152.889       17.333        0.013      342.228       17.491      858.309
06/10/2014  03:59:00     -106.387      -99.744       -0.164       39.432       38.836       30.445     1554.844     1508.241      926.906        1.263        0.199      145.833       21.787        0.022      342.267       17.556      858.322
06/10/2014  04:00:00     -137.296      -63.335       -4.464       53.192       34.792       22.245     2829.375     1210.506      494.823        1.371        0.227      151.200        9.503        0.004      342.274       17.570      858.330
06/10/2014  04:01:00      -83.963      -65.482        6.265       55.683       40.838       23.922     3100.556     1667.743      572.282        0.836        0.267      106.479       20.844        0.038      342.227       17.490      858.353
06/10/2014  04:02:00      -60.915      -34.888        6.051       50.799       24.467       22.656     2580.493      598.647      513.276        0.433        0.185       70.199       18.733        0.071      342.187       17.421      858.364
06/10/2014  04:03:00     -108.503      -51.685      -13.036       30.361       27.630       17.162      921.812      763.433      294.529        0.830        0.099      120.184        7.762        0.004      342.221       17.480      858.387
06/10/2014  04:04:00      -26.305      -36.277       16.517       47.311       33.011       24.051     2238.363     1089.744      578.465        0.309        0.195       44.810       29.162        0.424      342.169       17.389      858.414
06/10/2014  04:05:00      -24.815      -21.326        4.982       40.375       15.250       14.244     1630.165      232.569      202.885        0.158        0.103       32.720       14.755        0.203      342.131       17.325      858.427
06/10/2014  04:06:00        3.408      -21.777        3.090       20.751       18.845       15.423      430.595      355.125      237.864        0.076        0.051       22.042       14.606        0.439      342.223       17.483      858.429
06/10/2014  04:07:00       13.695      -38.363       -1.283       27.682       24.904       19.425      766.293      620.225      377.346        0.171        0.088       40.734       18.462        0.205      342.036       17.163      858.436
06/10/2014  04:08:00       56.553      -42.438       -4.751       33.659       39.244       32.482     1132.902     1540.055     1055.088        0.437        0.186       70.705       28.347        0.161      341.747       16.673      858.466
06/10/2014  04:09:00       60.468       13.164       34.022       39.650       33.832       29.164     1572.128     1144.609      850.536        0.428        0.178       61.885       21.415        0.120      341.528       16.302      858.485
06/10/2014  04:10:00       53.095       52.355       46.505       44.303       35.837       33.799     1962.735     1284.285     1142.340        0.606        0.219       74.567       18.840        0.064      341.685       16.570      858.496
06/10/2014  04:11:00        3.292       26.374       48.024       33.418       46.195       32.690     1116.731     2134.023     1068.605        0.367        0.216       26.579       30.038        1.277      341.578       16.388      858.505
06/10/2014  04:12:00       59.442       57.370       51.697       37.985       38.225       35.501     1442.834     1461.142     1260.291        0.683        0.208       82.612       27.393        0.110      341.668       16.541      858.509
06/10/2014  04:13:00       36.726       40.068       26.359       41.714       38.409       26.908     1740.056     1475.233      724.038        0.379        0.197       54.353       21.835        0.161      341.702       16.599      858.492
06/10/2014  04:14:00       31.407      -28.931        6.673       43.440       31.739       24.100     1887.038     1007.396      580.805        0.267        0.174       42.701       22.578        0.280      341.755       16.688      858.505
06/10/2014  04:15:00        2.112      -21.545      -15.185       35.760       30.287       17.683     1278.749      917.316      312.695        0.160        0.125       21.648       13.156        0.369      342.096       17.266      858.510
06/10/2014  04:16:00      -29.228       28.452       -4.411       13.325       15.866        9.905      177.553      251.721       98.113        0.111        0.026       40.790        5.956        0.021      342.000       17.104      858.524
06/10/2014  04:17:00      -20.235       20.687        0.437        6.938       10.365        7.233       48.132      107.433       52.316        0.052        0.010       28.938        3.844        0.018      342.286       17.588      858.540
06/10/2014  04:18:00      -29.040       19.881        6.837       15.192       12.743        8.872      230.807      162.388       78.704        0.088        0.024       35.193        8.544        0.059      342.851       18.550      858.541
06/10/2014  04:19:00        0.418        4.859       11.649        9.138        8.908        7.332       83.512       79.359       53.752        0.019        0.011        4.877        4.497        0.850      342.203       17.448      858.536
06/10/2014  04:20:00        3.123       -1.805       -3.807        6.484        6.370        5.743       42.045       40.578       32.978        0.007        0.006        3.607        3.257        0.815      342.380       17.749      858.540
06/10/2014  04:21:00       28.463      -15.925        5.357       16.855       17.645       12.090      284.107      311.358      146.165        0.092        0.037       32.615        8.733        0.072      342.742       18.363      858.519
06/10/2014  04:22:00       18.716      -26.681       16.502       38.143       24.606       11.935     1454.856      605.470      142.453        0.177        0.110       32.591       10.325        0.100      342.601       18.126      858.504
06/10/2014  04:23:00      -59.670       15.384       -7.470       19.467       25.977       14.696      378.977      674.792      215.980        0.256        0.063       61.621       16.267        0.070      342.608       18.137      858.540
06/10/2014  04:24:00      -31.483       36.763       -9.709       32.187       23.818       11.510     1036.029      567.300      132.483        0.209        0.087       48.402       15.915        0.108      342.333       17.669      858.565
06/10/2014  04:25:00       62.475       22.535        7.792       34.350       22.546       15.571     1179.937      508.323      242.455        0.320        0.097       66.415        8.310        0.016      342.286       17.589      858.562
06/10/2014  04:26:00       67.824      -58.286      -10.298       33.654       51.534       23.378     1132.562     2655.777      546.527        0.622        0.217       89.428       23.809        0.071      342.206       17.453      858.552
06/10/2014  04:27:00       55.317      -99.592       -6.881       37.243       37.448       27.501     1387.013     1402.377      756.325        0.829        0.177      113.923       27.593        0.059      343.262       19.250      858.537
06/10/2014  04:28:00       27.347       52.591       12.498       33.885       59.067       28.151     1148.161     3488.919      792.482        0.455        0.271       59.276       29.836        0.253      342.343       17.687      858.548
06/10/2014  04:29:00       -0.763      144.943      -17.694       56.283       89.040       30.611     3167.733     7928.209      937.032        1.668        0.602      144.945       39.824        0.075      342.742       18.362      858.587
06/10/2014  04:30:00      -17.252      204.665      -27.143       18.962       21.210       16.194      359.569      449.862      262.240        2.200        0.054      205.391        8.083        0.002      342.289       17.593      858.620
06/10/2014  04:31:00       19.038      101.228      -11.315       62.114       62.088       27.442     3858.098     3854.894      753.042        0.960        0.423      103.003       31.586        0.094      342.802       18.467      858.631
06/10/2014  04:32:00      -52.354       28.992       -6.251       28.252       15.469       14.050      798.166      239.289      197.398        0.243        0.062       59.845        9.853        0.027      342.621       18.160      858.639
06/10/2014  04:33:00       16.745        8.916        8.710       43.669       24.217       18.680     1907.008      586.486      348.956        0.164        0.142       18.971       20.283        1.143      342.278       17.575      858.649
06/10/2014  04:34:00       44.631        1.585      -11.952       17.849       24.062       21.296      318.589      578.957      453.501        0.174        0.068       44.659       11.377        0.065      342.297       17.609      858.654
06/10/2014  04:35:00       68.570       21.312       10.973       26.111       34.452       24.929      681.759     1186.950      621.435        0.388        0.125       71.806        7.903        0.012      342.193       17.432      858.659
06/10/2014  04:36:00      -39.056       22.580       -6.776       68.681       25.938       15.565     4717.120      672.801      242.276        0.386        0.282       45.113       25.536        0.320      342.489       17.934      858.679
06/10/2014  04:37:00     -142.486      -20.038       -9.590       35.482       29.428       20.974     1258.947      865.996      439.913        1.168        0.128      143.889       19.079        0.018      342.072       17.226      858.697
06/10/2014  04:38:00     -132.557       -7.326      -10.094       56.943       28.428       23.942     3242.521      808.164      573.203        1.117        0.231      132.759       30.689        0.053      341.937       16.998      858.700
06/10/2014  04:39:00      -48.494      -17.333       -0.168       21.166       19.600        9.689      447.980      384.148       93.870        0.179        0.046       51.499        8.052        0.024      342.052       17.193      858.687
06/10/2014  04:40:00     -148.027        4.176      -15.271       60.258       33.998       21.572     3630.992     1155.870      465.340        1.371        0.263      148.086       28.265        0.036      342.073       17.226      858.692
06/10/2014  04:41:00     -147.878      -22.660       -3.020       57.119       35.997       23.812     3262.544     1295.757      567.008        1.376        0.256      149.604       29.273        0.038      342.088       17.251      858.685
06/10/2014  04:42:00      -83.471        1.853       -5.488       29.546       36.265       13.167      872.971     1315.166      173.371        0.468        0.118       83.491       13.160        0.025      342.338       17.678      858.684
06/10/2014  04:43:00      -79.581      -20.336       -8.772       19.338       19.332       11.573      373.945      373.709      133.929        0.385        0.044       82.138        9.414        0.013      342.592       18.111      858.688
06/10/2014  04:44:00      -60.579       15.022        0.163       55.074       22.218       14.100     3033.135      493.625      198.817        0.381        0.186       62.414       22.099        0.125      342.598       18.118      858.687
06/10/2014  04:45:00     -153.076       -7.152      -14.749       41.773       23.854       15.300     1744.951      569.033      234.083        1.312        0.127      153.243       13.400        0.008      342.184       17.415      858.703
06/10/2014  04:46:00     -127.632      -24.390       -2.498       57.196       47.154       31.635     3271.434     2223.546     1000.752        1.169        0.325      129.941       33.452        0.066      342.722       18.333      858.703
06/10/2014  04:47:00     -107.193       47.349      -14.630       37.020       45.552       20.868     1370.445     2074.991      435.461        0.891        0.194      117.185       23.461        0.040      342.943       18.706      858.719
06/10/2014  04:48:00      -69.835        1.864       -5.831       45.239       38.733       20.611     2046.575     1500.276      424.816        0.444        0.199       69.860       21.117        0.091      342.910       18.651      858.713
06/10/2014  04:49:00      -79.226       19.591       -2.004       40.484       42.282       25.001     1638.929     1787.801      625.054        0.536        0.203       81.612        4.084        0.003      343.315       19.339      858.685
06/10/2014  04:50:00      -22.739       76.841       -7.698       41.175       28.672       19.446     1695.402      822.091      378.149        0.469        0.145       80.135       15.796        0.039      343.037       18.867      858.701
06/10/2014  04:51:00      -50.780      102.095      -15.057       43.134       28.860       21.331     1860.575      832.920      455.027        0.819        0.157      114.026       19.570        0.029      343.249       19.227      858.705
06/10/2014  04:52:00      -32.675      129.389      -10.021       50.263       49.079       27.835     2526.379     2408.718      774.800        1.181        0.285      133.451       23.031        0.030      343.351       19.401      858.714
06/10/2014  04:53:00       -1.200      160.583       -9.329       29.094       44.119       24.720      846.473     1946.478      611.077        1.464        0.170      160.588       19.950        0.015      343.473       19.610      858.715
06/10/2014  04:54:00      -24.947      174.745      -15.198       31.576       42.242       22.940      997.070     1784.419      526.249        1.735        0.165      176.517       19.202        0.012      343.439       19.552      858.733
06/10/2014  04:55:00      -20.512      162.526      -16.216       36.424       42.753       22.777     1326.718     1827.829      518.771        1.539        0.184      163.816       19.592        0.014      343.402       19.489      858.737
06/10/2014  04:56:00      -49.921      198.280      -29.432       62.796       81.883       31.373     3943.332     6704.820      984.288        2.715        0.582      204.468       23.678        0.013      343.481       19.620      858.745
06/10/2014  04:57:00      -59.015      187.552      -25.362       43.758       56.071       26.877     1914.743     3143.923      722.389        2.254        0.289      196.618       17.443        0.008      343.467       19.598      858.749
06/10/2014  04:58:00      -61.969       93.191      -17.483       25.608       41.413       18.953      655.768     1715.018      359.207        0.778        0.136      111.914       18.812        0.028      343.354       19.407      858.763
06/10/2014  04:59:00      -76.874      106.550      -17.699       56.343       50.269       30.348     3174.563     2526.947      921.025        1.210        0.331      131.387       30.595        0.054      343.402       19.488      858.765
06/10/2014  05:00:00      -84.061      128.791      -24.164       39.556       50.609       26.391     1564.696     2561.316      696.489        1.453        0.241      153.797       26.524        0.030      343.431       19.538      858.766
06/10/2014  05:01:00     -131.939      130.390      -29.924       44.131       40.061       28.587     1947.543     1604.877      817.188        1.984        0.218      185.498       26.019        0.020      343.385       19.459      858.757
06/10/2014  05:02:00      -98.589       61.721       -7.693       37.871       38.809       28.229     1434.237     1506.108      796.858        0.866        0.187      116.316       26.067        0.050      343.343       19.386      858.761
06/10/2014  05:03:00     -102.205      138.698      -24.970       45.072       72.951       30.020     2031.459     5321.818      901.216        1.928        0.413      172.287       24.157        0.020      343.274       19.267      858.777
06/10/2014  05:04:00     -100.858      137.361      -28.150       37.453       38.014       18.897     1402.700     1445.067      357.099        1.652        0.160      170.412       20.152        0.014      343.248       19.226      858.782
06/10/2014  05:05:00      -69.951      115.812      -14.888       38.850       54.557       25.431     1509.288     2976.486      646.734        1.183        0.257      135.298       23.359        0.030      343.125       19.015      858.780
06/10/2014  05:06:00      -87.393       77.181      -22.518       19.225       36.147       18.230      369.605     1306.635      332.318        0.805        0.100      116.595       15.482        0.018      343.120       19.007      858.793
06/10/2014  05:07:00     -114.120       75.095      -16.811       44.227       40.819       23.212     1956.057     1666.226      538.804        1.155        0.208      136.611       22.540        0.027      343.141       19.043      858.791
06/10/2014  05:08:00       -9.598       53.124       -3.097       35.996       23.549       18.463     1295.716      554.569      340.883        0.256        0.110       53.985       18.357        0.116      343.069       18.920      858.776
06/10/2014  05:09:00       -1.265       22.884        2.393       16.923       19.752       14.946      286.383      390.134      223.379        0.072        0.045       22.919       10.956        0.229      342.914       18.655      858.770
06/10/2014  05:10:00       14.163       55.305       -5.551       22.083       21.269       10.228      487.652      452.389      104.602        0.217        0.052       57.090       11.037        0.037      343.113       18.996      858.770
06/10/2014  05:11:00      -57.662       37.378       -7.616       27.275       29.027       13.656      743.914      842.569      186.494        0.328        0.089       68.717       14.635        0.045      342.949       18.717      858.784
06/10/2014  05:12:00      -44.862       -7.441       -6.830       29.539       23.944       12.307      872.529      573.327      151.454        0.186        0.080       45.475       10.791        0.056      342.735       18.352      858.792
06/10/2014  05:13:00      -69.957       -3.441      -12.647       28.482       17.073        9.304      811.214      291.491       86.564        0.313        0.059       70.041       10.849        0.024      342.892       18.621      858.796
06/10/2014  05:14:00      -64.323        9.970      -10.322       26.874       24.089       15.965      722.206      580.297      254.873        0.295        0.078       65.091       16.942        0.068      343.023       18.843      858.790
06/10/2014  05:15:00      -48.457       55.854      -11.131       26.154       29.121       18.103      684.032      848.011      327.734        0.373        0.093       73.944       18.508        0.063      342.973       18.756      858.794
06/10/2014  05:16:00      -34.142       -0.058        4.538       23.456       16.629       17.306      550.190      276.508      299.494        0.116        0.056       34.142       11.453        0.113      342.824       18.504      858.799
06/10/2014  05:17:00      -72.299      -17.935        4.151       40.138       35.174       26.620     1611.022     1237.190      708.601        0.456        0.178       74.491       21.166        0.081      342.515       17.978      858.806
06/10/2014  05:18:00     -125.597     -114.242      -10.059       63.011       44.756       26.040     3970.354     2003.131      678.064        1.779        0.333      169.781       26.877        0.025      342.267       17.557      858.815
06/10/2014  05:19:00      -80.308      -52.927        3.568       64.300       41.901       24.814     4134.500     1755.677      615.719        0.788        0.325       96.180       24.760        0.066      342.226       17.487      858.825
06/10/2014  05:20:00      -79.599      -40.072       -0.523       42.170       38.393       17.607     1778.339     1474.025      309.996        0.575        0.178       89.117       21.446        0.058      342.317       17.643      858.823
06/10/2014  05:21:00      -87.111      -63.998       -8.240       36.200       24.223       16.462     1310.473      586.742      270.987        0.696        0.108      108.093       16.930        0.025      342.358       17.712      858.820
06/10/2014  05:22:00     -119.888      -53.383      -13.894       22.663       22.711       16.139      513.627      515.778      260.460        0.935        0.064      131.236        9.774        0.006      342.335       17.673      858.816
06/10/2014  05:23:00      -63.372      -49.484        2.043       58.111       38.058       30.994     3376.847     1448.410      960.619        0.613        0.289       80.403       32.174        0.160      342.248       17.525      858.816
06/10/2014  05:24:00      -70.402      -33.413       -2.403       45.897       33.291       20.706     2106.511     1108.303      428.718        0.486        0.182       77.928       24.019        0.095      342.334       17.671      858.823
06/10/2014  05:25:00     -135.041      -65.084      -12.501       35.788       32.353       22.352     1280.745     1046.743      499.595        1.273        0.141      149.907       20.316        0.018      342.259       17.543      858.832
06/10/2014  05:26:00     -151.355      -54.971       -8.585       41.284       45.288       31.868     1704.372     2050.964     1015.599        1.539        0.239      161.028       20.188        0.016      342.482       17.923      858.845
06/10/2014  05:27:00      -83.487      -70.562       -1.475       54.893       52.850       33.738     3013.242     2793.151     1138.279        0.945        0.347      109.312       38.015        0.121      342.319       17.645      858.846
06/10/2014  05:28:00      -71.778      -47.786        6.367       63.443       34.064       29.299     4025.002     1160.370      858.449        0.676        0.302       86.229       36.721        0.181      342.328       17.661      858.849
06/10/2014  05:29:00      -81.186      -55.167       -1.671       44.268       25.892       20.955     1959.619      670.377      439.120        0.635        0.153       98.155       23.880        0.059      342.346       17.690      858.871
06/10/2014  05:30:00      -65.569      -13.019       -4.943       27.114       28.733       17.425      735.167      825.605      303.646        0.318        0.093       66.849       14.336        0.046      342.432       17.837      858.878
06/10/2014  05:31:00      -84.027      -12.785       -4.501       32.220       21.406       16.250     1038.105      458.226      264.054        0.450        0.088       84.994       15.289        0.032      342.466       17.895      858.901
06/10/2014  05:32:00      -49.349       12.479       -5.518       17.079       14.064       14.949      291.698      197.792      223.482        0.167        0.036       50.903        8.477        0.028      342.441       17.852      858.920
06/10/2014  05:33:00      -59.461       20.837       -6.333       34.099       43.123       26.461     1162.761     1859.565      700.163        0.387        0.186       63.006       17.505        0.077      342.678       18.255      858.938
06/10/2014  05:34:00      -65.307        9.315        1.772       28.694       30.770       17.258      823.355      946.763      297.847        0.321        0.103       65.968       16.253        0.061      342.652       18.212      858.954
06/10/2014  05:35:00      -27.132       47.358       -4.224       25.420       38.531       19.308      646.175     1484.637      372.794        0.275        0.125       54.580       21.404        0.154      342.621       18.159      858.978
06/10/2014  05:36:00       29.726        6.085       -1.570       21.942       22.145       14.640      481.457      490.386      214.328        0.105        0.059       30.342        7.197        0.056      342.422       17.820      859.002
06/10/2014  05:37:00      -24.571       27.851       -5.182       18.037       19.031       11.874      325.344      362.188      141.002        0.112        0.041       37.140        5.337        0.021      342.618       18.153      859.028
06/10/2014  05:38:00       17.608       28.000        9.089       32.350       32.453       22.752     1046.532     1053.213      517.639        0.190        0.131       33.076       24.963        0.570      342.474       17.908      859.033
06/10/2014  05:39:00     -105.620       72.906      -20.227       55.037       91.151       32.955     3029.058     8308.574     1086.033        1.465        0.621      128.339       41.659        0.105      342.902       18.635      859.034
06/10/2014  05:40:00      -50.921      134.072      -12.408       41.584       70.702       28.339     1729.213     4998.809      803.125        1.413        0.377      143.417       31.254        0.047      342.950       18.718      859.060
06/10/2014  05:41:00      -24.896       38.489       -3.064       51.801       32.206       19.144     2683.387     1037.194      366.495        0.310        0.204       45.839       19.580        0.182      342.833       18.520      859.085
06/10/2014  05:42:00      -20.051      -23.447        2.201       20.703       58.012       23.388      428.596     3365.404      547.010        0.265        0.217       30.851       25.670        0.692      342.246       17.521      859.093
06/10/2014  05:43:00      -16.134      -96.377      -12.405       29.942       32.447       25.710      896.498     1052.827      660.998        0.616        0.131       97.718       13.005        0.018      341.888       16.912      859.089
06/10/2014  05:44:00       22.731      -20.923       -3.441       36.630       38.373       25.340     1341.736     1472.495      642.137        0.221        0.173       30.894       22.754        0.542      341.879       16.896      859.091
06/10/2014  05:45:00        2.782       12.602       28.258       12.828       18.534       14.527      164.564      343.501      211.034        0.084        0.036       12.906        6.074        0.221      341.654       16.516      859.086
06/10/2014  05:46:00       39.385       -6.752       -0.714       33.400       34.067       27.187     1115.553     1160.570      739.107        0.231        0.151       39.959       18.572        0.216      341.592       16.413      859.093
06/10/2014  05:47:00       13.471       15.454      -10.127       28.599       23.183       19.533      817.921      537.448      381.532        0.113        0.087       20.501       18.126        0.782      341.931       16.987      859.099
06/10/2014  05:48:00      -41.730      -13.367        9.052       39.894       24.020       16.346     1591.559      576.940      267.204        0.222        0.122       43.818       11.861        0.073      341.781       16.731      859.118
06/10/2014  05:49:00      -33.417     -108.177        4.343       41.141       39.796       22.445     1692.582     1583.695      503.760        0.831        0.189      113.221       16.169        0.020      341.913       16.957      859.124
06/10/2014  05:50:00       -4.285      -71.597        9.863       32.937       49.100       22.697     1084.858     2410.792      515.160        0.463        0.201       71.725       22.033        0.094      342.022       17.140      859.127
06/10/2014  05:51:00      -36.826      -53.503        3.555       29.171       23.415       16.782      850.943      548.278      281.627        0.296        0.084       64.952       15.291        0.055      342.396       17.776      859.117
06/10/2014  05:52:00      -92.840      -48.066        3.419       47.592       26.630       18.919     2265.006      709.148      357.938        0.714        0.167      104.544       19.771        0.036      341.961       17.037      859.110
06/10/2014  05:53:00      -22.746      -41.277       14.749       39.128       43.935       28.390     1531.014     1930.264      806.019        0.335        0.213       47.130       24.155        0.263      341.806       16.776      859.097
06/10/2014  05:54:00        4.143      -15.212       11.925       20.272       31.853       20.854      410.960     1014.633      434.890        0.113        0.093       15.766       18.157        1.326      341.970       17.053      859.101
06/10/2014  05:55:00       39.906      -46.992      -12.007       26.052       30.688       22.408      678.699      941.761      502.111        0.303        0.106       61.650       15.630        0.064      341.644       16.498      859.100
06/10/2014  05:56:00       17.001      -27.908        2.149       23.887       21.092       15.854      570.578      444.882      251.344        0.117        0.063       32.679       11.952        0.134      341.529       16.305      859.122
06/10/2014  05:57:00        7.424      -10.295        5.862       31.016       12.930       15.450      961.993      167.187      238.691        0.078        0.068       12.693        9.669        0.580      341.623       16.464      859.147
06/10/2014  05:58:00      -27.203      -43.614        7.785       30.941       47.649       22.184      957.355     2270.394      492.137        0.321        0.186       51.402       23.748        0.213      341.913       16.956      859.155
06/10/2014  05:59:00      -28.365     -123.182       -2.699       27.851       34.145       19.439      775.694     1165.870      377.865        0.915        0.116      126.406       17.740        0.020      342.140       17.342      859.165
06/10/2014  06:00:00      -33.884      -54.406       11.266       39.705       41.008       23.533     1576.472     1681.623      553.821        0.402        0.191       64.094       16.000        0.062      342.013       17.126      859.164
06/10/2014  06:01:00      -20.807      -60.820        3.382       52.180       38.355       36.261     2722.799     1471.116     1314.892        0.483        0.275       64.281       27.191        0.179      341.911       16.952      859.169
06/10/2014  06:02:00       17.383      -29.962       25.782       29.984       32.893       26.642      899.053     1081.934      709.808        0.228        0.135       34.639       22.414        0.419      341.875       16.892      859.165
06/10/2014  06:03:00       -9.244       -1.577        0.245       27.161       25.418       22.207      737.729      646.058      493.132        0.098        0.094        9.377       18.322        3.818      341.847       16.845      859.155
06/10/2014  06:04:00      -18.425      -14.006        7.440       43.217       28.414       18.170     1867.714      807.339      330.142        0.180        0.150       23.144       12.824        0.307      341.783       16.735      859.171
06/10/2014  06:05:00      -23.726      -43.509       12.851       52.311       31.155       17.776     2736.436      970.643      315.979        0.332        0.201       49.558       16.183        0.107      341.709       16.610      859.181
06/10/2014  06:06:00      -86.375      -79.152       -3.956       50.361       42.307       22.585     2536.229     1789.920      510.093        0.929        0.242      117.156       20.847        0.032      341.564       16.363      859.195
06/10/2014  06:07:00      -67.229      -58.558        6.628       53.110       38.080       22.313     2820.681     1450.124      497.887        0.638        0.238       89.156       25.659        0.083      341.465       16.196      859.202
06/10/2014  06:08:00      -94.291      -38.354       -1.615       49.172       28.953       23.591     2417.933      838.291      556.524        0.709        0.191      101.793       20.715        0.041      341.426       16.128      859.215
06/10/2014  06:09:00     -142.295      -68.155       -1.493       54.597       46.695       25.805     2980.873     2180.462      665.883        1.536        0.291      157.776       26.306        0.028      341.374       16.041      859.236
06/10/2014  06:10:00      -72.721      -58.119       -1.751       35.026       41.718       22.355     1226.853     1740.411      499.724        0.607        0.173       93.093       19.717        0.045      341.411       16.106      859.241
06/10/2014  06:11:00     -101.699      -85.156       -2.576       29.860       37.846       19.442      891.626     1432.336      377.988        1.015        0.135      132.643       13.441        0.010      341.458       16.184      859.235
06/10/2014  06:12:00     -106.668      -65.505        4.116       47.338       32.170       25.517     2240.852     1034.896      651.129        0.981        0.196      125.176       22.817        0.033      341.450       16.170      859.243
06/10/2014  06:13:00      -44.802      -40.554       14.272       47.963       38.647       26.861     2300.446     1493.578      721.531        0.418        0.226       60.430       26.915        0.198      341.494       16.244      859.248
06/10/2014  06:14:00      -69.816      -63.676        1.195       42.489       29.699       27.003     1805.278      882.024      729.175        0.617        0.171       94.493       24.643        0.068      341.455       16.180      859.241
06/10/2014  06:15:00      -95.350      -51.018        0.232       44.439       41.211       22.947     1974.864     1698.386      526.587        0.795        0.210      108.141       22.716        0.044      341.467       16.200      859.248
06/10/2014  06:16:00      -45.240      -28.528       11.890       52.056       31.440       21.027     2709.814      988.453      442.129        0.357        0.207       53.484       23.775        0.198      341.500       16.255      859.250
06/10/2014  06:17:00      -20.713      -24.785        7.926       28.311       21.462       20.212      801.494      460.632      408.528        0.139        0.084       32.300       14.433        0.200      341.609       16.440      859.243
06/10/2014  06:18:00      -60.745      -54.251        1.946       22.954       19.907       15.425      526.865      396.295      237.928        0.390        0.058       81.444       14.524        0.032      341.570       16.375      859.238
06/10/2014  06:19:00      -40.170      -40.711        0.420       30.132       24.102       18.862      907.909      580.918      355.760        0.256        0.092       57.193       17.267        0.091      341.535       16.315      859.245
06/10/2014  06:20:00      -13.901      -17.913       10.811       20.760       19.383       14.135      430.975      375.694      199.785        0.082        0.050       22.675       14.525        0.410      341.678       16.559      859.242
06/10/2014  06:21:00      -10.420       -8.237        9.187       10.215        8.522        9.722      104.352       72.620       94.521        0.027        0.014       13.282        5.173        0.152      341.823       16.804      859.224
06/10/2014  06:22:00       -8.784       -1.247        4.488        9.944        8.385        7.081       98.892       70.313       50.138        0.016        0.011        8.872        5.943        0.449      341.912       16.954      859.216
06/10/2014  06:23:00      -42.788       -4.732       -1.004       14.850       11.675        7.360      220.533      136.315       54.177        0.113        0.021       43.049        7.033        0.027      341.707       16.605      859.216
06/10/2014  06:24:00      -45.941      -16.120        2.012       28.043       12.314       12.301      786.391      151.625      151.311        0.173        0.054       48.687       15.119        0.096      341.793       16.752      859.207
06/10/2014  06:25:00      -15.958      -25.573        7.832       24.146       21.934       15.321      583.022      481.090      234.731        0.113        0.065       30.144       14.603        0.235      341.920       16.970      859.194
06/10/2014  06:26:00      -40.889      -65.265        4.130       34.449       47.740       18.223     1186.718     2279.152      332.067        0.487        0.190       77.016       20.627        0.072      341.937       16.996      859.181
06/10/2014  06:27:00      -72.420      -69.314        0.976       50.378       52.422       29.117     2537.990     2748.089      847.789        0.809        0.307      100.245       28.912        0.083      341.978       17.066      859.173
06/10/2014  06:28:00      -69.242      -24.597       11.256       55.665       32.230       23.905     3098.554     1038.802      571.427        0.512        0.235       73.481       10.994        0.022      341.976       17.065      859.179
06/10/2014  06:29:00      -72.540      -32.809       -0.183       39.314       33.684       19.474     1545.596     1134.628      379.247        0.470        0.153       79.615       15.749        0.039      341.878       16.896      859.192
06/10/2014  06:30:00     -103.129      -13.865       -6.002       28.105       29.445       16.522      789.875      866.997      272.960        0.640        0.096      104.057       11.796        0.013      341.780       16.730      859.215
06/10/2014  06:31:00      -67.096        2.157       -0.493       52.497       28.208       23.713     2755.889      795.700      562.285        0.431        0.206       67.131       28.535        0.181      341.862       16.869      859.227
06/10/2014  06:32:00      -98.884      -34.690       -3.690       49.637       33.083       26.562     2463.868     1094.455      705.533        0.763        0.213      104.792       18.893        0.033      341.752       16.682      859.226
06/10/2014  06:33:00        3.724        0.008       15.163       30.918       17.852       24.267      955.893      318.680      588.892        0.105        0.093        3.724       16.175       18.871      342.053       17.195      859.195
06/10/2014  06:34:00        8.123      -18.112       23.280       32.943       28.987       21.558     1085.236      840.220      464.749        0.166        0.120       19.850       20.718        1.089      341.824       16.805      859.173
06/10/2014  06:35:00      -93.557      -20.618      -10.254       24.290       24.670       12.396      590.020      608.590      153.657        0.532        0.068       95.802        4.326        0.002      341.966       17.045      859.180
06/10/2014  06:36:00     -103.932      -21.260       -9.138       27.494       24.591       12.940      755.903      604.702      167.446        0.643        0.076      106.085       10.020        0.009      341.999       17.102      859.190
06/10/2014  06:37:00     -107.120      -12.550        0.931       41.338       30.814       21.968     1708.809      949.510      482.574        0.739        0.157      107.853       22.150        0.042      341.939       17.001      859.199
06/10/2014  06:38:00     -148.369       -9.671        6.915       60.201       51.299       31.248     3624.130     2631.597      976.435        1.469        0.362      148.684       32.915        0.049      342.040       17.170      859.205
06/10/2014  06:39:00     -154.423      -64.971        0.448       47.124       44.427       29.961     2220.642     1973.753      897.675        1.658        0.255      167.534       25.207        0.023      342.034       17.160      859.206
06/10/2014  06:40:00     -103.735      -25.074       -1.943       42.249       36.541       18.287     1784.947     1335.241      334.414        0.742        0.173      106.722       16.497        0.024      341.943       17.006      859.211
06/10/2014  06:41:00      -66.228      -28.902        8.583       44.040       39.292       19.821     1939.555     1543.852      392.856        0.459        0.194       72.260       16.605        0.053      342.127       17.319      859.200
06/10/2014  06:42:00      -84.005      -87.960       -2.347       58.683       51.376       29.285     3443.722     2639.476      857.614        1.087        0.347      121.630       24.626        0.041      342.165       17.385      859.199
06/10/2014  06:43:00     -132.787      -86.937       -8.087       56.260       37.914       24.346     3165.139     1437.467      592.730        1.522        0.260      158.715       24.900        0.025      342.186       17.420      859.193
06/10/2014  06:44:00      -90.032      -58.756        7.579       72.398       48.589       30.790     5241.447     2360.914      948.053        1.008        0.428      107.508       34.247        0.101      342.321       17.648      859.191
06/10/2014  06:45:00     -112.333      -61.401        4.779       46.265       53.528       28.070     2140.496     2865.298      787.903        1.110        0.290      128.018       24.686        0.037      342.261       17.546      859.190
06/10/2014  06:46:00     -153.462     -127.098       -3.135       99.547       81.359       45.372     9909.571     6619.227     2058.612        2.915        0.929      199.260       54.523        0.075      342.189       17.422      859.189
06/10/2014  06:47:00     -206.913      -95.753       -8.907       64.412       58.195       37.090     4148.912     3386.695     1375.693        3.048        0.446      227.994       31.239        0.019      342.128       17.317      859.192
06/10/2014  06:48:00     -159.504     -103.104       -5.677       72.727       55.392       33.670     5289.157     3068.232     1133.638        2.280        0.475      189.927       39.908        0.044      342.189       17.421      859.188
06/10/2014  06:49:00     -151.938      -87.541       -2.644       80.172       46.356       33.739     6427.526     2148.885     1138.292        2.023        0.486      175.353       35.445        0.041      342.187       17.419      859.185
06/10/2014  06:50:00     -104.710      -43.289        4.001       47.483       39.377       29.324     2254.644     1550.571      859.872        0.876        0.233      113.306       26.945        0.057      342.293       17.600      859.177
06/10/2014  06:51:00     -133.751      -67.473       -5.297       62.265       59.802       34.710     3876.949     3576.221     1204.800        1.556        0.433      149.807       32.652        0.048      342.270       17.562      859.182
06/10/2014  06:52:00     -101.243      -35.864        3.635       35.102       55.435       27.951     1232.135     3073.003      781.256        0.832        0.254      107.408       20.241        0.036      342.293       17.600      859.182
06/10/2014  06:53:00     -106.900      -44.239        3.622       45.181       30.292       18.956     2041.352      917.636      359.334        0.836        0.166      115.692       16.718        0.021      342.346       17.690      859.202
06/10/2014  06:54:00      -49.706      -11.504       14.207       42.311       36.736       22.281     1790.258     1349.509      496.430        0.322        0.182       51.020       23.074        0.205      342.612       18.144      859.217
06/10/2014  06:55:00     -150.795       47.839       -1.310       57.518       35.480       25.488     3308.362     1258.847      649.614        1.512        0.261      158.202       23.832        0.023      342.242       17.513      859.218
06/10/2014  06:56:00      -97.600       17.570       -4.782       53.121       39.907       31.065     2821.792     1592.587      965.061        0.762        0.269       99.168       21.062        0.045      342.274       17.570      859.234
06/10/2014  06:57:00      -59.384       -9.314       -2.027       24.213       23.598       16.481      586.254      556.884      271.608        0.252        0.071       60.110        9.611        0.026      342.324       17.653      859.230
06/10/2014  06:58:00      -99.314      -52.442       -1.749       49.622       30.226       22.588     2462.355      913.586      510.202        0.825        0.194      112.309       23.299        0.043      342.345       17.688      859.230
06/10/2014  06:59:00      -54.241      -50.984       18.140       55.871       46.730       27.090     3121.594     2183.696      733.873        0.595        0.302       74.441       34.358        0.213      342.480       17.919      859.239
06/10/2014  07:00:00      -56.637      -79.152        8.390       52.020       38.984       25.644     2706.051     1519.766      657.606        0.721        0.244       97.329       28.415        0.085      342.391       17.768      859.239
06/10/2014  07:01:00      -99.304      -62.297        7.488       57.831       34.194       21.892     3344.403     1169.250      479.258        0.939        0.250      117.227       24.062        0.042      342.407       17.795      859.237
06/10/2014  07:02:00      -67.700      -73.693        6.078       49.893       42.641       27.485     2489.272     1818.270      755.415        0.756        0.253      100.070       26.100        0.068      342.406       17.793      859.242
06/10/2014  07:03:00     -105.860      -41.405        2.132       47.031       46.437       26.825     2211.947     2156.406      719.579        0.901        0.254      113.669       19.453        0.029      342.381       17.750      859.254
06/10/2014  07:04:00      -97.112      -84.531        1.839       52.524       56.394       30.116     2758.744     3180.321      906.944        1.171        0.342      128.749       32.924        0.065      342.439       17.846      859.251
06/10/2014  07:05:00     -109.027      -90.574        3.873       57.280       54.633       29.776     3281.011     2984.771      886.591        1.363        0.358      141.741       35.450        0.063      342.426       17.827      859.250
06/10/2014  07:06:00     -156.237     -129.319        4.487       61.625       46.525       35.697     3797.620     2164.587     1274.251        2.419        0.362      202.813       36.124        0.032      342.278       17.572      859.249
06/10/2014  07:07:00     -120.645     -108.457       -0.772       52.409       39.345       31.643     2746.727     1547.993     1001.262        1.581        0.265      162.229       24.461        0.023      342.320       17.647      859.258
06/10/2014  07:08:00      -58.111      -81.696        9.276       58.708       42.080       30.955     3446.584     1770.760      958.205        0.816        0.309      100.255       32.455        0.105      342.468       17.898      859.255
06/10/2014  07:09:00      -96.471     -108.271        7.581       59.276       44.032       34.542     3513.593     1938.818     1193.116        1.387        0.332      145.015       30.872        0.045      342.370       17.730      859.250
06/10/2014  07:10:00     -111.495      -94.005        1.567       45.206       45.895       29.892     2043.569     2106.389      893.550        1.316        0.252      145.836       26.564        0.033      342.360       17.716      859.260
06/10/2014  07:11:00     -144.789      -55.684       -8.433       32.858       35.247       20.844     1079.627     1242.333      434.454        1.345        0.138      155.128       15.414        0.010      342.381       17.751      859.274
06/10/2014  07:12:00     -109.951      -84.941        5.530       45.390       41.804       26.950     2060.272     1747.571      726.289        1.193        0.227      138.939       21.408        0.024      342.451       17.870      859.276
06/10/2014  07:13:00      -54.278      -85.505        8.024       54.139       65.785       32.780     2931.036     4327.616     1074.511        0.933        0.417      101.278       34.694        0.117      342.560       18.055      859.271
06/10/2014  07:14:00      -63.546     -102.971        2.158       44.455       59.593       36.353     1976.259     3551.314     1321.509        1.075        0.342      121.000       29.117        0.058      342.543       18.027      859.284
06/10/2014  07:15:00     -103.938      -79.145        8.781       56.197       63.831       37.147     3158.136     4074.454     1379.928        1.288        0.431      130.641       40.284        0.095      342.423       17.821      859.290
06/10/2014  07:16:00     -137.802      -80.017       -8.248       51.017       42.366       31.202     2602.783     1794.917      973.547        1.541        0.269      159.349       27.986        0.031      342.448       17.864      859.283
06/10/2014  07:17:00      -87.825      -82.012       -1.868       37.401       27.531       25.486     1398.844      757.958      649.546        0.862        0.140      120.163       22.656        0.036      342.509       17.967      859.298
06/10/2014  07:18:00      -43.949      -93.995        5.141       40.788       62.749       22.171     1663.625     3937.497      491.551        0.844        0.305      103.762       27.262        0.069      342.598       18.118      859.293
06/10/2014  07:19:00      -57.041      -89.401        3.478       32.577       30.855       21.914     1061.286      952.017      480.208        0.688        0.125      106.048       21.811        0.042      342.574       18.078      859.302
06/10/2014  07:20:00      -79.334      -64.480        3.785       38.864       29.745       23.419     1510.399      884.769      548.455        0.670        0.147      102.233       22.578        0.049      342.603       18.130      859.300
06/10/2014  07:21:00      -70.548      -88.705       -6.598       39.381       26.518       23.604     1550.884      703.207      557.171        0.785        0.141      113.338       22.633        0.040      342.644       18.199      859.307
06/10/2014  07:22:00      -37.734      -87.594       12.724       28.819       44.135       26.785      830.561     1947.857      717.462        0.638        0.175       95.376       24.877        0.068      342.642       18.194      859.302
06/10/2014  07:23:00      -66.298     -106.476        4.984       51.026       56.211       29.475     2603.651     3159.682      868.755        1.119        0.332      125.429       35.866        0.082      342.684       18.266      859.302
06/10/2014  07:24:00      -54.286     -122.113       -0.393       57.162       45.423       29.579     3267.506     2063.220      874.946        1.203        0.310      133.636       23.864        0.032      342.695       18.285      859.283
06/10/2014  07:25:00      -73.782     -122.494       -8.409       41.690       56.595       32.532     1738.059     3202.952     1058.335        1.326        0.300      142.999       30.383        0.045      342.646       18.200      859.281
06/10/2014  07:26:00      -86.588     -129.487       -2.614       44.051       73.422       28.379     1940.485     5390.794      805.393        1.620        0.407      155.770       24.720        0.025      342.688       18.271      859.260
06/10/2014  07:27:00      -94.980     -111.817        2.906       52.213       77.678       38.499     2726.185     6033.921     1482.201        1.589        0.512      146.711       41.074        0.078      342.590       18.105      859.251
06/10/2014  07:28:00      -36.919      -85.268        2.440       55.324       54.997       32.412     3060.704     3024.675     1050.561        0.789        0.357       92.917       32.852        0.125      342.741       18.362      859.241
06/10/2014  07:29:00      -35.860      -54.917       30.950       59.612       64.203       37.428     3553.560     4122.008     1400.831        0.717        0.454       65.588       36.866        0.316      342.815       18.490      859.249
06/10/2014  07:30:00      -33.526      -57.835        3.163       53.231       56.069       39.240     2833.556     3143.771     1539.777        0.600        0.376       66.850       18.715        0.078      342.760       18.394      859.247
06/10/2014  07:31:00      -13.649      -10.260       26.347       34.437       31.860       23.202     1185.897     1015.047      538.332        0.186        0.137       17.076       20.907        1.499      343.395       19.477      859.269
06/10/2014  07:32:00        1.540        2.547        6.521       34.190       28.969       22.667     1168.953      839.203      513.783        0.129        0.126        2.976       11.057       13.804      343.082       18.943      859.268
06/10/2014  07:33:00      -32.749      -18.444      -11.484       41.257       33.918       29.573     1702.118     1150.397      874.558        0.264        0.186       37.586       23.953        0.406      342.967       18.748      859.281
06/10/2014  07:34:00      -63.582        2.259        9.802       30.242       33.967       30.727      914.553     1153.764      944.139        0.358        0.151       63.622       23.716        0.139      342.891       18.619      859.289
06/10/2014  07:35:00      -53.459      -37.357       -2.789       35.313       26.755       17.993     1246.984      715.830      323.732        0.327        0.114       65.218       17.966        0.076      343.086       18.950      859.296
06/10/2014  07:36:00      -10.281      -49.876       -8.139       34.610       17.368       16.254     1197.844      301.641      264.190        0.221        0.088       50.925       12.124        0.057      343.047       18.884      859.288
06/10/2014  07:37:00      -54.777      -30.840        1.920       41.732       22.547       27.243     1741.525      508.357      742.176        0.347        0.150       62.862       25.928        0.170      343.085       18.950      859.287
06/10/2014  07:38:00      -69.535      -84.212        1.883       52.073       63.288       28.387     2711.565     4005.356      805.839        0.973        0.376      109.210       27.927        0.065      342.987       18.780      859.271
06/10/2014  07:39:00      -84.670     -125.553       -2.180       55.555       60.805       43.002     3086.322     3697.261     1849.214        1.578        0.432      151.435       37.160        0.060      342.946       18.711      859.266
06/10/2014  07:40:00      -85.162     -160.381       -2.419       48.603       74.031       30.035     2362.238     5480.580      902.074        2.086        0.437      181.589       21.977        0.015      342.962       18.737      859.258
06/10/2014  07:41:00      -53.306     -136.165        8.892       61.931       94.653       36.668     3835.427     8959.107     1344.557        1.780        0.707      146.227       45.210        0.096      343.063       18.908      859.268
06/10/2014  07:42:00      -54.066      -79.222       18.609       65.856       67.564       35.813     4337.013     4564.937     1282.604        0.986        0.509       95.913       41.093        0.184      343.211       19.163      859.265
06/10/2014  07:43:00     -149.449      -94.606        3.196       63.804       54.663       36.659     4070.949     2988.014     1343.883        1.985        0.420      176.876       24.278        0.019      342.995       18.794      859.270
06/10/2014  07:44:00      -93.877      -70.276        3.182       58.442       42.787       26.131     3415.490     1830.765      682.803        0.984        0.296      117.267       16.613        0.020      343.088       18.953      859.283
06/10/2014  07:45:00      -99.095      -78.639        4.517       42.032       56.712       27.235     1766.654     3216.266      741.747        1.087        0.286      126.506       23.878        0.036      343.159       19.074      859.284
06/10/2014  07:46:00     -120.853     -162.129       -1.949       50.035       54.736       29.510     2503.518     2996.020      870.825        2.363        0.319      202.216       25.535        0.016      343.049       18.885      859.290
06/10/2014  07:47:00      -78.743     -170.089       -3.918       46.008       53.512       31.847     2116.739     2863.507     1014.251        2.057        0.300      187.432       27.158        0.021      343.094       18.963      859.296
06/10/2014  07:48:00      -91.640     -203.058       -0.226       35.324       40.221       29.137     1247.787     1617.708      848.953        2.667        0.186      222.779       23.390        0.011      343.074       18.926      859.307
06/10/2014  07:49:00      -61.845     -101.263        8.422       48.458       53.052       29.628     2348.198     2814.527      877.806        1.009        0.302      118.655       25.478        0.046      343.205       19.154      859.310
06/10/2014  07:50:00      -73.343      -90.478        9.021       55.331       71.058       30.102     3061.470     5049.236      906.106        1.133        0.451      116.471       30.281        0.068      343.203       19.149      859.319
06/10/2014  07:51:00      -67.555      -96.299        8.703       46.187       45.887       24.147     2133.284     2105.651      583.080        0.937        0.241      117.631       22.206        0.036      343.224       19.185      859.312
06/10/2014  07:52:00     -103.624      -92.914        1.736       44.205       44.175       29.819     1954.119     1951.398      889.183        1.208        0.240      139.180       26.501        0.036      343.293       19.301      859.312
06/10/2014  07:53:00      -90.742      -86.263      -12.228       36.041       48.201       26.864     1298.978     2323.304      721.700        1.008        0.217      125.202       23.068        0.034      343.320       19.349      859.304
06/10/2014  07:54:00     -101.166     -146.868       -6.636       38.889       71.834       25.268     1512.384     5160.077      638.484        1.958        0.366      178.339       26.880        0.023      343.282       19.282      859.305
06/10/2014  07:55:00      -92.133     -166.565       -4.371       54.815       45.500       34.469     3004.703     2070.293     1188.138        2.126        0.313      190.348       32.060        0.028      343.302       19.316      859.302
06/10/2014  07:56:00      -70.492     -152.826       -1.917       33.517       41.471       18.261     1123.370     1719.837      333.468        1.575        0.159      168.300       16.627        0.010      343.311       19.333      859.305
06/10/2014  07:57:00     -105.330      -74.642        7.427       83.625       61.751       39.719     6993.126     3813.150     1577.607        1.455        0.619      129.096       42.655        0.109      343.374       19.440      859.290
06/10/2014  07:58:00      -51.912      -85.454       24.070       66.231       60.824       27.584     4386.578     3699.571      760.883        0.971        0.442       99.986       34.133        0.117      343.455       19.579      859.290
06/10/2014  07:59:00      -98.657     -114.048        4.612       55.150       52.859       33.811     3041.576     2794.118     1143.204        1.487        0.349      150.799       33.516        0.049      343.331       19.367      859.277
06/10/2014  08:00:00     -109.564     -118.381        1.011       54.957       77.321       28.443     3020.268     5978.555      809.021        1.791        0.490      161.302       32.895        0.042      343.459       19.583      859.275
06/10/2014  08:01:00     -111.227      -74.883       -0.127       40.865       37.380       28.832     1669.931     1397.294      831.301        1.094        0.195      134.085       22.305        0.028      343.492       19.643      859.269
06/10/2014  08:02:00     -104.558      -63.212       -4.610       53.910       46.861       21.466     2906.274     2195.951      460.787        1.026        0.278      122.180       15.208        0.015      343.493       19.641      859.272
06/10/2014  08:03:00      -37.369      -60.060       20.447       39.647       56.282       25.266     1571.920     3167.615      638.369        0.540        0.269       70.737       25.452        0.129      344.020       20.543      859.276
06/10/2014  08:04:00      -40.511      -67.391       13.015       41.437       53.621       26.260     1717.007     2875.202      689.590        0.582        0.264       78.630       19.363        0.061      343.776       20.127      859.289
06/10/2014  08:05:00      -64.922      -58.214        6.581       50.692       31.505       23.856     2569.677      992.553      569.101        0.589        0.207       87.199       28.689        0.108      343.905       20.346      859.290
06/10/2014  08:06:00      -85.460     -110.160        3.277       65.942       54.076       32.848     4348.347     2924.266     1078.995        1.390        0.418      139.423       38.446        0.076      343.705       20.004      859.293
06/10/2014  08:07:00      -73.600     -106.575        2.683       44.176       54.079       26.243     1951.496     2924.534      688.684        1.117        0.278      129.519       25.136        0.038      343.765       20.107      859.301
06/10/2014  08:08:00      -60.176      -63.753        4.276       57.598       46.999       34.241     3317.502     2208.930     1172.463        0.720        0.335       87.668       31.665        0.130      343.832       20.222      859.289
06/10/2014  08:09:00      -71.823      -67.230        2.746       49.253       44.650       27.451     2425.813     1993.663      753.584        0.743        0.259       98.379       28.465        0.084      343.831       20.219      859.294
06/10/2014  08:10:00      -71.131     -119.340        6.682       42.889       62.357       27.515     1839.431     3888.333      757.049        1.291        0.324      138.931       25.056        0.033      343.694       19.987      859.298
06/10/2014  08:11:00      -91.511     -111.373       -2.717       51.729       51.793       30.941     2675.848     2682.520      957.326        1.355        0.316      144.147       24.445        0.029      343.695       19.988      859.298
06/10/2014  08:12:00      -93.400      -62.065       11.365       50.242       52.199       29.982     2524.268     2724.758      898.924        0.943        0.307      112.141       22.774        0.041      343.814       20.191      859.298
06/10/2014  08:13:00      -56.491      -69.471       10.667       71.183       51.735       29.682     5066.971     2676.517      881.025        0.838        0.431       89.541       30.756        0.118      343.843       20.240      859.319
06/10/2014  08:14:00     -127.886     -109.473       -0.481       76.275       69.028       36.400     5817.924     4764.823     1324.951        2.012        0.595      168.342       43.579        0.067      343.741       20.063      859.329
06/10/2014  08:15:00     -146.774      -73.915        0.240       57.759       56.656       36.591     3336.112     3209.914     1338.885        1.744        0.394      164.335       25.008        0.023      343.789       20.147      859.338
06/10/2014  08:16:00      -74.720      -46.297       13.231       69.243       44.372       27.690     4794.585     1968.862      766.763        0.771        0.377       87.900       24.354        0.077      344.209       20.866      859.344
06/10/2014  08:17:00     -111.146      -95.838       -2.004       34.365       35.079       18.851     1180.951     1230.562      355.350        1.215        0.138      146.760       12.343        0.007      343.950       20.423      859.351
06/10/2014  08:18:00      -73.434     -187.442      -10.750       39.030       38.939       28.537     1523.343     1516.234      814.379        2.225        0.193      201.313       20.431        0.010      343.961       20.441      859.360
06/10/2014  08:19:00      -78.440     -136.998       -0.636       59.410       81.483       39.022     3529.498     6639.509     1522.716        1.830        0.585      157.865       29.552        0.035      344.038       20.571      859.356
06/10/2014  08:20:00      -74.353      -94.256       -3.115       43.706       46.340       28.862     1910.241     2147.352      833.013        0.966        0.245      120.052       15.140        0.016      344.072       20.632      859.350
06/10/2014  08:21:00     -101.259      -57.611        2.824       40.558       42.672       23.996     1644.964     1820.918      575.807        0.881        0.202      116.501       21.062        0.033      344.174       20.805      859.347
06/10/2014  08:22:00      -45.399      -35.220       15.705       53.947       33.989       27.347     2910.269     1155.272      747.871        0.418        0.241       57.459       27.845        0.235      344.498       21.360      859.341
06/10/2014  08:23:00      -63.760     -115.650        8.680       41.229       65.355       23.542     1699.820     4271.233      554.213        1.202        0.326      132.062       29.938        0.051      344.280       20.989      859.336
06/10/2014  08:24:00       -9.485      -48.752        3.212       31.942       61.914       33.653     1020.267     3833.340     1132.494        0.423        0.299       49.666       36.153        0.530      344.451       21.278      859.331
06/10/2014  08:25:00      -58.763      -33.246        0.172       30.524       31.639       17.941      931.744     1000.999      321.862        0.341        0.113       67.516        7.402        0.012      344.234       20.907      859.329
06/10/2014  08:26:00      -51.706      -43.186       13.700       39.491       52.859       28.243     1559.561     2794.035      797.668        0.494        0.258       67.369       22.634        0.113      344.414       21.217      859.336
06/10/2014  08:27:00      -69.291      -80.307       -3.974       16.391       19.794       10.239      268.649      391.816      104.828        0.602        0.038      106.068        7.958        0.006      344.060       20.610      859.332
06/10/2014  08:28:00      -42.671     -128.118        1.508       25.836       38.897       25.608      667.491     1512.957      655.756        1.054        0.142      135.037       20.365        0.023      344.151       20.767      859.336
06/10/2014  08:29:00      -68.774     -109.010      -14.297       37.093       44.528       33.621     1375.903     1982.704     1130.357        1.065        0.224      128.891       22.987        0.032      344.198       20.845      859.330
06/10/2014  08:30:00      -55.666      -60.670        0.006       35.326       25.545       15.877     1247.907      652.526      252.080        0.447        0.108       82.338       13.078        0.025      344.301       21.022      859.324
06/10/2014  08:31:00      -34.127      -25.754        7.066       31.036       26.681       18.375      963.222      711.881      337.653        0.194        0.101       42.754       19.000        0.197      344.560       21.467      859.317
06/10/2014  08:32:00      -26.796      -38.452       10.978       35.051       36.826       20.361     1228.569     1356.139      414.577        0.266        0.150       46.867       19.104        0.166      344.619       21.568      859.310
06/10/2014  08:33:00      -41.608      -38.367        4.407       35.362       31.113       19.221     1250.477      968.032      369.433        0.290        0.129       56.598       17.367        0.094      344.507       21.375      859.300
06/10/2014  08:34:00      -48.705      -25.510        4.357       35.503       32.042       24.740     1260.450     1026.721      612.075        0.297        0.145       54.981       22.971        0.175      344.610       21.552      859.309
06/10/2014  08:35:00      -75.430      -29.266        6.445       37.190       31.391       26.914     1383.115      985.397      724.375        0.484        0.155       80.909       22.234        0.076      344.428       21.240      859.308
06/10/2014  08:36:00      -56.159      -22.238        9.734       25.330       28.155       24.346      641.604      792.692      592.724        0.288        0.101       60.401       21.307        0.124      344.438       21.258      859.318
06/10/2014  08:37:00      -54.278      -19.118        3.273       25.658       24.573       16.009      658.341      603.813      256.304        0.242        0.076       57.547       15.369        0.071      344.459       21.293      859.323
06/10/2014  08:38:00      -56.708      -47.983       -4.454       26.912       18.200       12.849      724.272      331.244      165.084        0.338        0.061       74.284       12.035        0.026      344.407       21.205      859.328
06/10/2014  08:39:00      -80.156      -27.131       -3.896       26.776       32.108       17.722      716.969     1030.955      314.065        0.462        0.103       84.623       15.801        0.035      344.383       21.161      859.327
06/10/2014  08:40:00      -69.977       10.385       -3.611       12.372       11.431       10.706      153.068      130.665      114.621        0.271        0.020       70.743        7.827        0.012      344.354       21.113      859.316
06/10/2014  08:41:00      -13.969       -6.882       18.837       20.099       16.565       18.245      403.963      274.394      332.891        0.080        0.051       15.572       15.543        0.996      345.304       22.740      859.301
06/10/2014  08:42:00       -5.523      -25.252       18.012       24.280       27.217       21.158      589.494      740.747      447.682        0.138        0.089       25.849       16.261        0.396      345.328       22.781      859.290
06/10/2014  08:43:00      -64.797      -44.329        1.059       42.038       38.678       24.534     1767.189     1495.980      601.924        0.501        0.193       78.509       24.260        0.095      344.631       21.586      859.282
06/10/2014  08:44:00      -38.260      -40.187        6.907       27.551       22.515       17.413      759.082      506.939      303.206        0.235        0.078       55.487       14.002        0.064      344.681       21.673      859.289
06/10/2014  08:45:00      -33.968      -11.865       14.162       27.585       24.096       22.138      760.932      580.638      490.076        0.166        0.092       35.980       21.444        0.355      345.469       23.024      859.281
06/10/2014  08:46:00      -33.086      -14.282        8.197       24.819       25.272       16.541      615.978      638.649      273.613        0.145        0.076       36.037       17.075        0.224      345.143       22.465      859.276
06/10/2014  08:47:00      -60.813      -40.026        6.834       28.566       25.225       18.643      816.014      636.319      347.572        0.357        0.090       72.803       16.834        0.053      344.905       22.057      859.277
06/10/2014  08:48:00      -70.204      -28.539        5.422       32.134       23.207       18.379     1032.564      538.545      337.776        0.384        0.095       75.783       15.499        0.042      344.806       21.888      859.275
06/10/2014  08:49:00      -52.106      -36.475        6.585       35.907       27.425       21.986     1289.345      752.117      483.383        0.331        0.126       63.604       23.449        0.136      344.916       22.075      859.272
06/10/2014  08:50:00      -69.565      -49.355        8.054       51.357       39.846       22.272     2637.557     1587.689      496.035        0.603        0.236       85.295       25.765        0.091      345.031       22.272      859.268
06/10/2014  08:51:00      -58.553      -24.709        9.100       68.170       26.945       22.258     4647.097      726.012      495.400        0.499        0.293       63.553       29.317        0.213      345.234       22.619      859.270
06/10/2014  08:52:00        2.486      -15.010       15.236       19.357       23.944       23.813      374.675      573.297      567.049        0.099        0.076       15.214       18.231        1.436      345.963       23.871      859.269
06/10/2014  08:53:00      -10.733       -9.312        1.834       22.969       18.847       23.579      527.581      355.213      555.947        0.082        0.072       14.210       13.007        0.838      345.696       23.411      859.272
06/10/2014  08:54:00      -27.080      -12.005        8.654       28.722       25.136       22.502      824.975      631.824      506.334        0.146        0.098       29.622       18.674        0.397      345.726       23.466      859.271
06/10/2014  08:55:00      -36.680       10.699        0.886       26.325       20.932       16.305      693.023      438.160      265.850        0.143        0.070       38.209       12.866        0.113      345.270       22.682      859.280
06/10/2014  08:56:00      -14.904      -68.411       13.777       37.676       73.809       33.863     1419.467     5447.809     1146.710        0.655        0.401       70.016       33.427        0.228      345.358       22.832      859.276
06/10/2014  08:57:00       44.824       30.465        4.893       45.184       42.811       33.303     2041.629     1832.800     1109.112        0.397        0.249       54.197       11.238        0.043      345.642       23.319      859.262
06/10/2014  08:58:00       41.948       50.230       27.468       51.047       32.976       37.412     2605.761     1087.431     1399.670        0.506        0.255       65.442       35.216        0.290      345.782       23.559      859.254
06/10/2014  08:59:00        2.962       24.855       65.803       28.637       36.297       24.980      820.076     1317.441      624.001        0.386        0.138       25.031       18.823        0.565      345.944       23.839      859.240
06/10/2014  09:00:00       52.046       56.507       12.958       42.557       58.357       38.103     1811.103     3405.542     1451.843        0.637        0.333       76.823       23.743        0.096      345.287       22.712      859.229
06/10/2014  09:01:00       38.739       60.587       55.325       50.441       43.952       32.007     2544.296     1931.795     1024.479        0.687        0.275       71.913       21.151        0.087      345.734       23.476      859.214
06/10/2014  09:02:00       54.804       51.165       39.739       62.594       44.605       39.108     3917.995     1989.572     1529.474        0.732        0.372       74.975       29.590        0.156      345.940       23.830      859.196
06/10/2014  09:03:00      113.929       80.551        2.040       49.537       42.740       38.159     2453.885     1826.747     1456.083        1.260        0.287      139.529       24.314        0.030      345.316       22.759      859.187
06/10/2014  09:04:00      123.910      100.139       17.453       46.251       34.280       34.504     2139.132     1175.117     1190.514        1.509        0.225      159.316       23.285        0.021      345.094       22.377      859.178
06/10/2014  09:05:00       76.947       90.418        5.327       43.289       44.898       37.583     1873.925     2015.870     1412.447        0.971        0.265      118.727       20.435        0.030      345.402       22.907      859.171
06/10/2014  09:06:00       60.909       91.916        9.393       57.222       49.499       50.342     3274.396     2450.140     2534.362        1.025        0.413      110.265       35.414        0.103      345.626       23.291      859.165
06/10/2014  09:07:00       24.824      -18.989       61.636       49.598       56.813       40.711     2459.928     3227.710     1657.388        0.606        0.367       31.254       32.364        1.072      345.875       23.720      859.159
06/10/2014  09:08:00       17.062       55.366       47.165       47.014       46.273       50.942     2210.297     2141.178     2595.105        0.626        0.347       57.935       38.957        0.452      345.600       23.247      859.175
06/10/2014  09:09:00       32.280       82.246       90.910       54.280       57.599       39.788     2946.345     3317.647     1583.065        1.196        0.392       88.354       26.141        0.088      345.793       23.577      859.188
06/10/2014  09:10:00       90.008      104.340       25.341       43.697       38.599       51.983     1909.436     1489.903     2702.208        1.287        0.305      137.798       21.930        0.025      345.349       22.816      859.196
06/10/2014  09:11:00       29.597       65.053       46.808       63.660       46.390       51.064     4052.636     2152.019     2607.563        0.805        0.441       71.470       45.539        0.406      346.037       23.998      859.202
06/10/2014  09:12:00       62.827       88.586       69.528       70.324       51.897       53.038     4945.435     2693.274     2813.019        1.354        0.523      108.604       39.794        0.134      345.696       23.409      859.205
06/10/2014  09:13:00       17.004       29.957       78.160       46.945       67.660       34.582     2203.841     4577.856     1195.913        0.764        0.399       34.446       21.629        0.394      346.190       24.260      859.208
06/10/2014  09:14:00       62.829       99.422       95.848       71.883       64.746       45.543     5167.152     4191.997     2074.178        1.722        0.572      117.610       23.768        0.041      345.706       23.427      859.204
06/10/2014  09:15:00       90.174       86.137       75.643       71.730       52.289       73.473     5145.186     2734.094     5398.246        1.727        0.664      124.703       46.714        0.140      345.353       22.823      859.199
06/10/2014  09:16:00       31.953       43.090       58.037       42.603       40.653       35.597     1815.028     1652.681     1267.157        0.549        0.237       53.645       32.733        0.372      345.915       23.787      859.202
06/10/2014  09:17:00       39.903      -18.200       14.855       29.837       29.627       27.748      890.269      877.765      769.951        0.234        0.127       43.857       17.728        0.163      345.698       23.415      859.180
06/10/2014  09:18:00        4.483       36.442       29.647       42.134       38.521       31.953     1775.238     1483.900     1020.979        0.325        0.214       36.717       13.967        0.145      346.042       24.006      859.159
06/10/2014  09:19:00       62.685       54.335        1.096       71.723       44.726       43.361     5144.127     2000.378     1880.143        0.795        0.451       82.956       28.050        0.114      345.940       23.830      859.149
06/10/2014  09:20:00      114.910       93.627       25.556       64.478       45.075       41.086     4157.362     2031.799     1688.033        1.525        0.394      148.224       21.781        0.022      345.738       23.482      859.137
06/10/2014  09:21:00      105.659      107.267       45.552       64.144       53.905       58.397     4114.411     2905.708     3410.231        1.759        0.522      150.566       38.488        0.065      345.629       23.295      859.124
06/10/2014  09:22:00       58.467       70.235       82.651       52.136       52.631       49.997     2718.122     2770.058     2499.701        1.158        0.399       91.386       42.380        0.215      345.797       23.584      859.128
06/10/2014  09:23:00       70.652       82.987       76.609       66.769       48.283       44.435     4458.085     2331.246     1974.481        1.325        0.438      108.989       39.114        0.129      345.575       23.203      859.113
06/10/2014  09:24:00       86.733       59.993       11.675       42.763       42.463       22.658     1828.662     1803.092      513.368        0.770        0.207      105.460       31.014        0.086      345.120       22.423      859.110
06/10/2014  09:25:00       94.989       34.886       30.622       38.707       55.728       34.110     1498.200     3105.574     1163.462        0.847        0.288      101.193       26.381        0.068      345.303       22.736      859.100
06/10/2014  09:26:00       81.734       38.066       10.612       36.631       41.132       33.062     1341.826     1691.856     1093.124        0.618        0.206       90.163       26.109        0.084      345.433       22.960      859.085
06/10/2014  09:27:00       30.646       21.292       12.986       54.818       35.364       32.899     3005.067     1250.619     1082.366        0.345        0.267       37.317       23.586        0.399      346.010       23.950      859.081
06/10/2014  09:28:00       52.561       56.765       17.219       59.815       60.559       52.332     3577.830     3667.379     2738.645        0.813        0.499       77.363       30.444        0.155      345.789       23.570      859.072
06/10/2014  09:29:00       81.396       95.558       27.249       55.672       61.771       48.875     3099.374     3815.681     2388.780        1.290        0.465      125.526       28.180        0.050      345.839       23.657      859.067
06/10/2014  09:30:00       47.217       35.911       28.040       41.269       28.987       29.835     1703.139      840.230      890.111        0.387        0.172       59.321       20.784        0.123      345.955       23.857      859.066
06/10/2014  09:31:00       30.657       22.627       38.926       47.023       63.422       37.861     2211.157     4022.408     1433.428        0.532        0.383       38.103       22.675        0.354      346.233       24.334      859.039
06/10/2014  09:32:00       64.094      -43.357       24.673       42.263       56.789       41.835     1786.159     3224.997     1750.142        0.668        0.338       77.381       33.066        0.183      345.993       23.920      859.041
06/10/2014  09:33:00       92.725     -153.859      -22.914       39.972       45.254       32.529     1597.764     2047.961     1058.116        1.875        0.235      179.640       24.730        0.019      345.723       23.457      859.017
06/10/2014  09:34:00       75.884       18.261       34.352       69.374      116.102       53.538     4812.703    13479.559     2866.303        1.421        1.058       78.050       45.518        0.340      345.948       23.844      859.009
06/10/2014  09:35:00       74.481       74.270       60.295       52.470       52.099       43.884     2753.124     2714.355     1925.841        1.104        0.370      105.183       26.042        0.061      346.279       24.411      858.993
06/10/2014  09:36:00       15.595       26.859       51.639       39.580       61.313       34.550     1566.569     3759.241     1193.728        0.507        0.326       31.058       36.450        1.377      346.606       24.975      858.999
06/10/2014  09:37:00       86.115       45.916       41.723      103.452       60.288       47.138    10702.231     3634.605     2222.022        1.391        0.828       97.591       44.513        0.208      346.058       24.034      858.997
06/10/2014  09:38:00       61.272       46.349       26.264       57.908       35.604       28.283     3353.354     1267.639      799.944        0.601        0.271       76.828       24.143        0.099      345.862       23.697      858.996
06/10/2014  09:39:00       -1.638       11.517       43.036       21.722       57.968       28.954      471.827     3360.271      838.330        0.333        0.234       11.633       21.843        3.526      346.498       24.789      858.983
06/10/2014  09:40:00        3.328       44.818       46.966       30.679       40.969       20.521      941.172     1678.449      421.096        0.363        0.152       44.941       13.763        0.094      346.648       25.048      858.983
06/10/2014  09:41:00        6.658        2.575       43.772       20.200       22.516       14.941      408.057      506.976      223.232        0.155        0.057        7.138        7.697        1.163      347.091       25.810      858.970
06/10/2014  09:42:00      -14.879       27.331       41.771       21.759       29.973       25.087      473.461      898.359      629.341        0.236        0.100       31.119       15.456        0.247      347.076       25.786      858.954
06/10/2014  09:43:00      -13.279        0.846       24.561       24.099       43.486       39.042      580.770     1891.001     1524.314        0.239        0.200       13.306       35.080        6.951      346.564       24.902      858.949
06/10/2014  09:44:00      -61.747       -1.285        9.571       20.039       21.763       21.020      401.574      473.639      441.832        0.261        0.066       61.761       16.723        0.073      345.744       23.493      858.941
06/10/2014  09:45:00      -27.032       12.119       26.246       20.511       16.936       25.797      420.702      286.843      665.463        0.147        0.069       29.624       18.131        0.375      346.777       25.272      858.929
06/10/2014  09:46:00        8.473       52.391       68.208       23.837       42.437       17.771      568.186     1800.872      315.797        0.508        0.134       53.072       15.995        0.091      346.968       25.599      858.913
06/10/2014  09:47:00       70.384       73.425        8.378       43.376       38.833       41.162     1881.482     1508.019     1694.281        0.775        0.254      101.711       18.780        0.034      346.150       24.191      858.902
06/10/2014  09:48:00       10.454        0.730       62.269       34.285       48.282       33.669     1175.460     2331.194     1133.624        0.431        0.232       10.480       25.296        5.827      347.083       25.796      858.893
06/10/2014  09:49:00       52.240       40.232       56.933       51.066       39.720       37.689     2607.762     1577.665     1420.435        0.660        0.280       65.936       18.508        0.079      346.738       25.202      858.900
06/10/2014  09:50:00        2.366       58.505       87.718       37.187       47.074       42.378     1382.903     2215.978     1795.907        0.826        0.270       58.552       33.211        0.322      346.878       25.443      858.897
06/10/2014  09:51:00       41.510       88.392       85.106       55.981       53.942       68.766     3133.922     2909.736     4728.807        1.377        0.539       97.654       54.294        0.309      345.980       23.899      858.905
06/10/2014  09:52:00       62.946       75.340       63.651       44.009       45.323       30.852     1936.778     2054.136      951.826        0.932        0.247       98.176       25.149        0.066      345.982       23.902      858.900
06/10/2014  09:53:00      -47.141      -14.527       22.519       30.877       26.232       20.558      953.377      688.142      422.646        0.250        0.103       49.329       17.008        0.119      346.232       24.332      858.894
06/10/2014  09:54:00      -27.813       -7.177       -4.701       21.804       21.333       19.710      475.432      455.098      388.489        0.108        0.066       28.724       13.268        0.213      346.392       24.607      858.893
06/10/2014  09:55:00      -46.955      -59.902       -5.260       37.398       38.849       26.199     1398.633     1509.266      686.406        0.471        0.180       76.112       18.331        0.058      346.204       24.284      858.874
06/10/2014  09:56:00       -9.092      -27.203        7.686       36.149       36.044       35.630     1306.754     1299.148     1269.478        0.238        0.194       28.682       24.440        0.726      346.592       24.952      858.871
06/10/2014  09:57:00       -3.795       -5.686       53.707       12.033       34.020       18.937      144.791     1157.379      358.602        0.230        0.083        6.836       11.200        2.684      347.345       26.248      858.858
06/10/2014  09:58:00       -1.012       16.920       53.457       17.753       35.701       18.311      315.164     1274.574      335.307        0.253        0.096       16.951       12.707        0.562      347.226       26.043      858.849
06/10/2014  09:59:00        4.685       12.849       58.609       43.249       61.030       37.646     1870.511     3724.621     1417.215        0.532        0.351       13.677       37.028        7.330      347.248       26.079      858.832
06/10/2014  10:00:00       67.233      -58.770       41.301       59.926       96.022       55.619     3591.165     9220.264     3093.419        1.279        0.795       89.298       56.192        0.396      346.796       25.301      858.835
06/10/2014  10:01:00       28.890      -63.953       44.071       45.482      112.705       69.608     2068.593    12702.464     4845.227        1.324        0.981       70.176       75.625        1.161      346.594       24.955      858.836
06/10/2014  10:02:00       12.755      -62.215       44.999       26.365       58.417       35.694      695.125     3412.504     1274.067        0.572        0.269       63.509       37.098        0.341      346.697       25.132      858.839
06/10/2014  10:03:00       47.275      -72.315        4.307       47.089       37.322       40.264     2217.355     1392.914     1621.174        0.636        0.262       86.397       27.795        0.104      346.696       25.129      858.832
06/10/2014  10:04:00      -22.347      -31.968        9.034       60.710       43.590       36.140     3685.746     1900.118     1306.116        0.425        0.345       39.004       33.904        0.756      346.852       25.398      858.825
06/10/2014  10:05:00      -54.721      -33.227       -1.961       50.864       31.835       20.179     2587.146     1013.441      407.206        0.405        0.200       64.019       11.231        0.031      346.443       24.695      858.811
06/10/2014  10:06:00      -31.307      -51.515       15.797       38.791       37.051       25.188     1504.733     1372.768      634.421        0.370        0.176       60.282       27.445        0.207      346.582       24.934      858.811
06/10/2014  10:07:00        9.735      -24.204       28.821       46.835       66.434       40.472     2193.496     4413.501     1637.965        0.488        0.412       26.089       37.850        2.105      347.194       25.988      858.807
06/10/2014  10:08:00      -23.232      -12.256       10.697       25.030       37.323       38.178      626.476     1393.002     1457.559        0.214        0.174       26.267       34.221        1.697      347.064       25.764      858.799
06/10/2014  10:09:00      -15.803      -13.969       -0.122       25.824       24.317       31.603      666.889      591.311      998.737        0.135        0.113       21.092       20.862        0.978      346.951       25.569      858.788
06/10/2014  10:10:00       41.032      -51.823        8.995       85.098       94.131       49.695     7241.637     8860.681     2469.629        1.151        0.929       66.101       61.108        0.855      346.839       25.375      858.778
06/10/2014  10:11:00       46.122       33.511       86.180       66.618       80.014       56.899     4437.896     6402.215     3237.513        1.238        0.704       57.011       46.950        0.678      347.245       26.074      858.756
06/10/2014  10:12:00       56.379      -11.949       80.872       78.516      154.239       86.707     6164.794    23789.676     7518.161        2.366        1.874       57.632      106.322        3.403      346.874       25.434      858.756
06/10/2014  10:13:00      101.647      -33.809       57.160       89.565      123.823       79.782     8021.956    15332.050     6365.228        2.223        1.486      107.122       88.918        0.689      346.909       25.496      858.740
06/10/2014  10:14:00       73.535     -105.325      -20.054       55.254       99.001       58.010     3053.005     9801.150     3365.151        1.656        0.811      128.455       60.702        0.223      346.882       25.450      858.749
06/10/2014  10:15:00       64.805      129.503       98.288       96.707       68.480       72.606     9352.212     4689.541     5271.663        2.497        0.966      144.813       75.539        0.272      346.898       25.476      858.740
06/10/2014  10:16:00      101.565      107.288       15.176       50.620       35.199       37.019     2562.402     1238.985     1370.425        1.361        0.259      147.736       17.348        0.014      346.312       24.469      858.753
06/10/2014  10:17:00       64.237       59.462       45.222       46.046       49.459       44.214     2120.268     2446.162     1954.849        0.811        0.326       87.534       25.592        0.085      346.515       24.818      858.750
06/10/2014  10:18:00        4.987       62.989      -28.822       35.116       39.001       27.941     1233.120     1521.061      780.699        0.418        0.177       63.186       17.480        0.077      346.338       24.512      858.736
06/10/2014  10:19:00       40.472       52.291       15.262       60.575       54.844       37.959     3669.274     3007.896     1440.884        0.636        0.406       66.124       25.261        0.146      346.847       25.389      858.722
06/10/2014  10:20:00       29.245       81.270        1.184       33.636       47.657       38.529     1131.411     2271.161     1484.477        0.617        0.244       86.372       35.639        0.170      346.811       25.330      858.702
06/10/2014  10:21:00        3.312       27.169       39.224       32.604       24.675       29.115     1063.023      608.839      847.661        0.240        0.126       27.370       11.164        0.166      347.391       26.327      858.690
06/10/2014  10:22:00       59.018       56.685       11.604       42.266       47.907       41.256     1786.440     2295.085     1702.099        0.631        0.289       81.831       30.939        0.143      347.033       25.709      858.681
06/10/2014  10:23:00       72.639       22.669       43.416       76.972       55.954       37.909     5924.640     3130.847     1437.080        0.908        0.525       76.094       44.132        0.336      347.259       26.097      858.668
06/10/2014  10:24:00       89.319       43.136       25.444       99.266       75.349       63.206     9853.762     5677.545     3994.958        1.500        0.976       99.190       57.967        0.342      346.992       25.639      858.664
06/10/2014  10:25:00      176.947       95.585       40.488      111.122       59.936       55.284    12348.124     3592.315     3056.308        3.054        0.950      201.114       47.786        0.056      346.768       25.250      858.648
06/10/2014  10:26:00      133.561       74.712       33.185       83.086       76.499       61.739     6903.320     5852.028     3811.729        2.054        0.828      153.037       29.611        0.037      346.848       25.390      858.654
06/10/2014  10:27:00      140.908       59.991       17.432       52.548       48.825       35.177     2761.280     2383.869     1237.392        1.507        0.319      153.147        6.238        0.002      346.838       25.372      858.637
06/10/2014  10:28:00      131.679      110.816       21.748       42.474       30.476       36.188     1804.017      928.761     1309.603        1.707        0.202      172.104       16.764        0.009      346.519       24.824      858.634
06/10/2014  10:29:00       64.344       68.302       41.550       59.316       42.948       35.717     3518.444     1844.554     1275.686        0.858        0.332       93.837       35.908        0.146      347.343       26.244      858.631
06/10/2014  10:30:00       19.424       63.078       31.534       50.986       44.382       40.420     2599.582     1969.806     1633.748        0.578        0.310       66.001       31.803        0.232      347.357       26.268      858.627
06/10/2014  10:31:00      -10.020       34.068      -17.636       25.660       50.041       28.589      658.456     2504.129      817.357        0.278        0.199       35.511       27.668        0.607      346.999       25.651      858.636
06/10/2014  10:32:00       20.708       51.268       58.833       40.187       48.428       37.758     1614.988     2345.269     1425.676        0.595        0.269       55.293       31.961        0.334      347.738       26.926      858.612
06/10/2014  10:33:00       -0.593       22.216       18.797       38.528       27.510       31.630     1484.381      756.787     1000.465        0.204        0.162       22.224       17.040        0.588      347.487       26.493      858.601
06/10/2014  10:34:00        7.100      -75.417        0.827       62.306       74.821       49.777     3882.089     5598.256     2477.748        0.885        0.598       75.750       45.179        0.356      347.389       26.324      858.603
06/10/2014  10:35:00      -12.005      -10.741       44.246       31.175       51.254       35.270      971.894     2626.922     1244.007        0.353        0.242       16.109       31.235        3.760      348.067       27.493      858.601
06/10/2014  10:36:00       30.173        9.727       71.820       49.814       93.474       58.567     2481.430     8737.403     3430.128        1.040        0.732       31.702       63.510        4.013      347.685       26.833      858.606
06/10/2014  10:37:00       99.227       51.952       90.532       76.931      104.128       73.635     5918.453    10842.575     5422.096        2.146        1.109      112.004       84.115        0.564      347.170       25.945      858.607
06/10/2014  10:38:00       49.519       24.316       50.230       59.635       52.378       41.668     3556.284     2743.472     1736.210        0.680        0.402       55.167       32.107        0.339      347.670       26.807      858.599
06/10/2014  10:39:00       87.994      -83.082       41.071      105.067      108.505       69.192    11039.029    11773.261     4787.519        2.196        1.380      121.019       84.344        0.486      347.596       26.678      858.599
06/10/2014  10:40:00      122.380      -29.945       72.594      109.743      115.154       72.526    12043.631    13260.529     5260.046        2.585        1.528      125.990       74.643        0.351      347.473       26.465      858.585
06/10/2014  10:41:00       16.842       -8.698       54.694       44.985       76.604       40.116     2023.680     5868.157     1609.254        0.642        0.475       18.955       20.524        1.172      347.854       27.125      858.582
06/10/2014  10:42:00       56.801      -85.853       17.832       66.928       99.019       51.550     4479.393     9804.763     2657.453        1.393        0.847      102.942       59.292        0.332      347.456       26.438      858.588
06/10/2014  10:43:00       45.991       -5.146       38.951       45.943       57.650       52.344     2110.778     3323.498     2739.843        0.592        0.409       46.278       42.830        0.857      347.802       27.035      858.582
06/10/2014  10:44:00       50.368      -88.703        5.741       56.252       59.342       46.470     3164.274     3521.480     2159.443        0.964        0.442      102.006       32.560        0.102      347.531       26.568      858.568
06/10/2014  10:45:00       80.613       54.501       92.056       68.349       76.589       58.171     4671.528     5865.817     3383.878        1.593        0.696       97.308       51.888        0.284      347.583       26.656      858.558
06/10/2014  10:46:00      126.127       73.826       44.295       83.105       68.149       54.144     6906.483     4644.243     2931.600        1.890        0.724      146.145       21.833        0.022      347.372       26.293      858.551
06/10/2014  10:47:00       86.570       83.850       74.650       92.145       66.451       50.174     8490.642     4415.669     2517.432        1.776        0.771      120.520       46.758        0.151      347.612       26.707      858.543
06/10/2014  10:48:00      120.668       59.659       33.431       96.703       66.924       55.082     9351.378     4478.774     3034.050        1.805        0.843      134.610       45.815        0.116      347.339       26.235      858.553
06/10/2014  10:49:00       43.200      123.834        5.494       52.916       54.046       45.472     2800.067     2921.013     2067.732        1.251        0.389      131.153       37.068        0.080      347.256       26.093      858.546
06/10/2014  10:50:00       25.656       41.828        7.687       30.207       45.782       35.924      912.471     2095.976     1290.507        0.338        0.215       49.070       30.193        0.379      347.709       26.875      858.529
06/10/2014  10:51:00       22.418       31.996        8.639       42.683       50.732       22.613     1821.830     2573.742      511.341        0.325        0.245       39.069        5.798        0.022      347.799       27.030      858.538
06/10/2014  10:52:00       71.919     -110.620       -2.857       94.628       96.937       58.504     8954.519     9396.837     3422.772        1.959        1.089      131.944       68.069        0.266      347.840       27.099      858.526
06/10/2014  10:53:00       68.604     -135.455        5.304       73.129       99.178       48.897     5347.916     9836.199     2390.927        2.033        0.879      151.837       41.031        0.073      347.805       27.040      858.513
06/10/2014  10:54:00       61.220     -103.644        7.177      102.353      116.053       74.150    10476.134    13468.392     5498.182        2.199        1.472      120.375       86.810        0.520      347.623       26.724      858.510
06/10/2014  10:55:00       44.089      -11.332       49.873       58.482       98.905       73.772     3420.137     9782.199     5442.304        1.160        0.932       45.523       73.186        2.585      347.871       27.155      858.514
06/10/2014  10:56:00       66.241      -75.135       33.395       60.439      100.378       59.712     3652.851    10075.679     3565.494        1.422        0.865      100.165       67.818        0.458      347.540       26.584      858.519
06/10/2014  10:57:00       19.182      -50.046       21.999       40.062       52.289       38.526     1604.924     2734.160     1484.251        0.459        0.291       53.596       32.094        0.359      347.993       27.365      858.505
06/10/2014  10:58:00       82.979        6.725       53.125       83.611       79.930       52.694     6990.766     6388.844     2776.683        1.295        0.808       83.251       55.596        0.446      347.930       27.258      858.500
06/10/2014  10:59:00      102.186     -119.971       -8.011       72.414      114.289       67.317     5243.810    13062.018     4531.579        2.386        1.142      157.591       71.690        0.207      347.296       26.160      858.500
06/10/2014  11:00:00       71.379      -72.639        5.900       40.592       89.474       50.931     1647.722     8005.686     2594.007        1.132        0.612      101.841       57.328        0.317      347.675       26.816      858.511
06/10/2014  11:01:00       10.543       28.174       61.505       26.251       46.145       30.712      689.124     2129.319      943.220        0.422        0.188       30.082       30.627        1.037      347.891       27.190      858.522
06/10/2014  11:02:00       33.770       59.831       60.694       43.757       40.427       38.085     1914.656     1634.323     1450.473        0.670        0.250       68.704       32.821        0.228      348.102       27.554      858.525
06/10/2014  11:03:00       36.930       74.744      110.085       61.202      109.919       80.031     3745.638    12082.202     6404.945        2.065        1.112       83.370       85.004        1.040      347.815       27.056      858.532
06/10/2014  11:04:00       85.791       -7.634       14.382       67.172      120.430       62.288     4512.040    14503.390     3879.837        1.526        1.145       86.130       27.599        0.103      347.933       27.261      858.514
06/10/2014  11:05:00      105.431       48.139       50.319       95.246       54.349       46.694     9071.817     2953.829     2180.322        1.508        0.710      115.901       47.572        0.168      348.010       27.394      858.520
06/10/2014  11:06:00       79.921       47.191       57.510      118.380      121.596       45.992    14013.748    14785.638     2115.289        2.141        1.546       92.814       46.691        0.253      347.806       27.042      858.505
06/10/2014  11:07:00       62.604       62.623        3.083       77.987       59.795       37.631     6082.008     3575.474     1416.104        0.946        0.554       88.549       31.907        0.130      347.750       26.945      858.502
06/10/2014  11:08:00      115.434       71.770       44.862       70.269       47.649       52.742     4937.733     2270.437     2781.728        1.524        0.499      135.926       31.091        0.052      347.891       27.189      858.483
06/10/2014  11:09:00       64.734       12.651       70.888       70.136      149.386       77.953     4919.001    22316.063     6076.736        2.134        1.666       65.959      101.395        2.363      347.651       26.775      858.466
06/10/2014  11:10:00       18.683       48.492       41.183       42.444       38.229       53.584     1801.470     1461.488     2871.207        0.526        0.307       51.967       41.127        0.626      348.272       27.846      858.460
06/10/2014  11:11:00      109.401       91.034        6.570       76.150       77.413       52.482     5798.856     5992.750     2754.320        1.742        0.727      142.322       37.858        0.071      347.947       27.285      858.444
06/10/2014  11:12:00      157.360       91.676        7.554       42.129       54.189       33.717     1774.885     2936.397     1136.865        1.953        0.292      182.117       18.091        0.010      347.287       26.143      858.451
06/10/2014  11:13:00      -50.040      105.029      -19.947       70.111       56.814       31.477     4915.566     3227.877      990.787        1.153        0.457      116.340       29.942        0.066      347.415       26.367      858.446
06/10/2014  11:14:00     -124.298       63.923      -12.233       50.509       44.971       34.233     2551.169     2022.403     1171.901        1.271        0.287      139.772       26.241        0.035      347.346       26.247      858.421
06/10/2014  11:15:00      -75.051       69.695       -7.073       74.716       58.530       39.418     5582.439     3425.797     1553.781        1.055        0.528      102.421       48.892        0.228      347.691       26.843      858.417
06/10/2014  11:16:00      -50.276      -37.891       -6.351       48.945       57.987       25.510     2395.662     3362.457      650.784        0.521        0.320       62.956       10.663        0.029      347.652       26.777      858.426
06/10/2014  11:17:00      -56.314      -49.321       -7.964       32.695       33.602       37.033     1068.942     1129.121     1371.437        0.462        0.178       74.858       16.697        0.050      347.758       26.958      858.420
06/10/2014  11:18:00      -42.629        8.433       28.041       53.387       29.508       31.690     2850.143      870.727     1004.265        0.370        0.236       43.455       32.331        0.554      348.381       28.037      858.419
06/10/2014  11:19:00      107.947       91.471       48.852       71.155       57.521       42.315     5063.062     3308.700     1790.586        1.628        0.508      141.490       30.739        0.047      347.767       26.973      858.404
06/10/2014  11:20:00       33.054       37.131       -0.729       57.112       41.028       25.010     3261.728     1683.293      625.485        0.402        0.279       49.712       17.841        0.129      347.621       26.723      858.383
06/10/2014  11:21:00        1.598      -41.266       34.937       26.189       71.733       51.976      685.857     5145.649     2701.499        0.573        0.427       41.297       53.053        1.650      348.409       28.085      858.356
06/10/2014  11:22:00       -5.344      -76.954        2.281       39.857       52.353       36.464     1588.542     2740.802     1329.650        0.581        0.283       77.139       23.568        0.093      348.337       27.960      858.334
06/10/2014  11:23:00       49.226     -125.562        0.839       66.306       65.918       59.381     4396.458     4345.207     3526.103        1.523        0.613      134.867       53.523        0.157      348.200       27.721      858.338
06/10/2014  11:24:00       14.788      -63.766       -1.105       33.227       51.210       33.442     1104.016     2622.427     1118.375        0.456        0.242       65.458       27.356        0.175      348.133       27.608      858.323
06/10/2014  11:25:00        8.488     -131.376       -9.950       52.050       79.498       52.497     2709.177     6320.009     2755.957        1.461        0.589      131.650       38.439        0.085      348.150       27.633      858.313
06/10/2014  11:26:00        5.087       48.169      100.808       67.132       97.049       69.991     4506.761     9418.562     4898.704        1.566        0.941       48.437       81.740        2.848      348.330       27.948      858.310
06/10/2014  11:27:00       47.492     -140.380       -3.639      105.030       80.129       52.788    11031.336     6420.585     2786.612        2.110        1.012      148.196       50.521        0.116      347.860       27.133      858.298
06/10/2014  11:28:00       14.609       69.166      113.442       46.523       52.808       34.975     2164.403     2788.665     1223.224        1.202        0.309       70.692       26.877        0.145      348.208       27.738      858.285
06/10/2014  11:29:00       51.277       41.118       42.519       40.569       35.739       28.462     1645.819     1277.293      810.109        0.493        0.187       65.727       24.480        0.139      347.814       27.056      858.272
06/10/2014  11:30:00        8.439       24.433       52.316       49.106       62.578       56.481     2411.436     3915.982     3190.113        0.646        0.476       25.850       52.361        4.103      348.428       28.116      858.268
06/10/2014  11:31:00      109.513       73.280      100.081       98.010       86.269       73.907     9606.033     7442.324     5462.313        2.494        1.126      131.769       63.367        0.231      347.917       27.233      858.236
06/10/2014  11:32:00      212.351       95.209       76.917      113.230       92.216       87.335    12820.929     8503.847     7627.435        4.451        1.448      232.718       57.661        0.061      347.790       27.011      858.203
06/10/2014  11:33:00      172.941      122.796       54.735       65.914       51.317       58.187     4344.613     2633.466     3385.782        2.917        0.518      212.102       36.940        0.030      348.038       27.440      858.193
06/10/2014  11:34:00       80.750       29.815       31.598      101.741       56.961       50.554    10351.230     3244.557     2555.706        1.228        0.808       86.078       32.892        0.146      348.465       28.181      858.189
06/10/2014  11:35:00      121.357       68.757       78.051      122.989       91.051       78.129    15126.231     8290.294     6104.134        2.753        1.476      139.482       80.325        0.332      348.405       28.075      858.176
06/10/2014  11:36:00      193.452      116.284       14.883       92.475       80.810       56.710     8551.612     6530.296     3216.047        3.473        0.915      225.711       49.988        0.049      348.077       27.508      858.194
06/10/2014  11:37:00      138.681      134.776       14.185       81.811       56.586       61.989     6693.073     3201.952     3842.584        2.567        0.687      193.383       32.326        0.028      347.825       27.071      858.203
06/10/2014  11:38:00       17.240      256.698      -33.320       72.993       77.391       46.082     5327.984     5989.430     2123.544        4.037        0.672      257.276       38.175        0.022      347.686       26.832      858.193
06/10/2014  11:39:00       23.897      140.513      -17.370       60.351       88.264       43.215     3642.227     7790.489     1867.561        1.696        0.665      142.530       42.387        0.088      347.863       27.140      858.196
06/10/2014  11:40:00       95.424       64.841       18.329      107.003       59.787       49.432    11449.578     3574.523     2443.518        1.555        0.873      115.369       27.227        0.056      348.177       27.682      858.162
06/10/2014  11:41:00      230.596      113.152       33.495      115.726       75.568       66.818    13392.403     5710.550     4464.603        4.533        1.178      256.862       53.643        0.044      348.075       27.504      858.155
06/10/2014  11:42:00      170.578      116.023       22.086       63.948       64.048       60.781     4089.403     4102.113     3694.337        2.746        0.594      206.296       27.258        0.017      347.746       26.937      858.165
06/10/2014  11:43:00       49.205       55.272       11.128       32.007       26.133       29.946     1024.421      682.934      896.787        0.410        0.130       74.001       16.470        0.050      347.658       26.787      858.142
06/10/2014  11:44:00       27.855       30.115        7.321       30.824       24.871       21.933      950.093      618.563      481.071        0.189        0.102       41.022       17.881        0.190      347.944       27.280      858.112
06/10/2014  11:45:00       28.478       49.245        3.500       33.858       26.279       28.160     1146.360      690.581      792.965        0.294        0.131       56.886       13.621        0.057      348.112       27.573      858.086
06/10/2014  11:46:00       25.752       31.756       24.420       39.742       31.064       23.438     1579.458      964.954      549.337        0.268        0.155       40.885       17.655        0.186      348.800       28.762      858.072
06/10/2014  11:47:00      127.675       66.289       55.198       85.760       72.125       49.600     7354.834     5202.022     2460.115        1.938        0.751      143.858       35.819        0.062      348.495       28.230      858.060
06/10/2014  11:48:00       30.933        2.237       37.191       39.389       47.593       31.077     1551.498     2265.092      965.789        0.356        0.239       31.014       30.528        0.969      349.091       29.264      858.046
06/10/2014  11:49:00       -3.707       -9.450       18.019       27.345       39.978       23.080      747.738     1598.266      532.673        0.165        0.144       10.151        7.576        0.557      349.280       29.592      858.038
06/10/2014  11:50:00        8.903       24.684        7.896       34.588       34.295       28.114     1196.344     1176.146      790.374        0.196        0.158       26.240       19.849        0.572      348.743       28.663      858.032
06/10/2014  11:51:00       10.659       13.048       47.888       51.229       65.528       50.736     2624.433     4293.931     2574.191        0.603        0.475       16.848       39.348        5.454      348.938       29.000      858.014
06/10/2014  11:52:00       39.516      -52.719        8.596       38.297       76.929       40.428     1466.637     5918.066     1634.435        0.672        0.451       65.884       34.501        0.274      348.704       28.596      858.004
06/10/2014  11:53:00       87.179      107.723      120.481       93.779       76.784       66.904     8794.578     5895.763     4476.168        2.644        0.958      138.580       49.888        0.130      348.252       27.810      858.007
06/10/2014  11:54:00       61.901       82.498      119.848       85.578      103.193       68.130     7323.612    10648.892     4641.736        2.380        1.131      103.139       67.221        0.425      348.135       27.609      857.981
06/10/2014  11:55:00      139.153      110.380       42.173      103.426       87.216       73.436    10696.843     7606.585     5392.825        2.851        1.185      177.616       50.810        0.082      348.098       27.545      857.975
06/10/2014  11:56:00      197.664       58.987       34.661      103.340       91.384       45.510    10679.129     8351.048     2071.160        3.242        1.055      206.278       32.795        0.025      348.118       27.579      857.994
06/10/2014  11:57:00       71.510       88.259       67.628       57.862       62.630       76.668     3348.065     3922.485     5878.010        1.531        0.657      113.593       52.063        0.210      348.025       27.419      857.984
06/10/2014  11:58:00       41.982      -27.494       -0.598       42.189       44.347       24.017     1779.941     1966.633      576.827        0.342        0.216       50.184       11.211        0.050      347.982       27.347      857.979
06/10/2014  11:59:00        3.947       -5.151       23.937       17.966       20.623       24.890      322.763      425.290      619.524        0.099        0.068        6.489       21.245       10.718      348.909       28.950      857.948
06/10/2014  12:00:00      -14.418      -51.789       23.642       38.305       68.471       35.370     1467.287     4688.299     1251.069        0.543        0.370       53.759       13.278        0.061      348.451       28.157      857.935
06/10/2014  12:01:00       34.044       86.940       92.522       67.341      100.520       76.772     4534.797    10104.362     5893.876        1.890        1.027       93.368       79.048        0.717      348.730       28.638      857.914
06/10/2014  12:02:00      112.590      150.620      122.324      141.737       74.705       73.461    20089.387     5580.763     5396.516        4.069        1.553      188.050       85.374        0.206      348.394       28.056      857.892
06/10/2014  12:03:00      162.439      167.009       47.779      108.949       73.787       91.788    11869.818     5444.529     8425.080        4.115        1.287      232.978       66.552        0.082      348.161       27.652      857.905
06/10/2014  12:04:00       75.412      188.993      -16.782       62.150      132.168       43.063     3862.562    17468.372     1854.397        3.243        1.159      203.483       65.574        0.104      347.985       27.349      857.928
06/10/2014  12:05:00       63.458      136.293        1.288       62.787       85.973       53.023     3942.195     7391.294     2811.405        1.837        0.707      150.341       53.999        0.129      348.154       27.640      857.906
06/10/2014  12:06:00      104.925      112.245       31.066       79.419       51.413       58.650     6307.427     2643.287     3439.874        1.848        0.620      153.650       33.415        0.047      348.448       28.149      857.885
06/10/2014  12:07:00       48.189      119.700      122.873       76.304       69.421       62.211     5822.364     4819.260     3870.169        2.313        0.726      129.036       58.231        0.204      348.471       28.189      857.881
06/10/2014  12:08:00       59.137     -108.519       32.044       48.875       92.739       44.564     2388.777     8600.538     1985.912        1.464        0.649      123.586       35.148        0.081      348.175       27.680      857.885
06/10/2014  12:09:00      -89.373       39.878      -11.503       99.804       76.779       47.191     9960.832     5895.085     2227.007        1.389        0.904       97.866       56.174        0.329      348.327       27.942      857.859
06/10/2014  12:10:00      -99.880       -0.682      -12.145       46.618       55.554       24.874     2173.209     3086.206      618.725        0.800        0.294       99.882       17.066        0.029      348.074       27.505      857.851
06/10/2014  12:11:00     -158.579      -23.871        6.911       66.457      107.463       40.407     4416.479    11548.372     1632.705        2.168        0.880      160.365       36.566        0.052      348.359       27.994      857.843
06/10/2014  12:12:00     -122.120      109.144      -33.539       71.749       52.294       29.726     5147.881     2734.625      883.623        1.836        0.438      163.785       37.044        0.051      347.984       27.349      857.832
06/10/2014  12:13:00      -20.208       38.144       14.144       29.960       42.427       28.662      897.574     1800.009      821.526        0.279        0.176       43.167       21.605        0.250      348.864       28.872      857.802
06/10/2014  12:14:00        8.876       27.873       15.459       40.018       41.271       27.083     1601.464     1703.291      733.487        0.257        0.202       29.252        8.568        0.086      349.202       29.458      857.809
06/10/2014  12:15:00       32.240      -20.025        6.413       60.930       90.523       46.901     3712.476     8194.472     2199.750        0.779        0.705       37.953       39.962        1.109      348.434       28.126      857.816
06/10/2014  12:16:00       42.324      118.729       -6.388       40.724       74.656       46.772     1658.460     5573.507     2187.637        1.267        0.471      126.048       46.276        0.135      348.517       28.269      857.808
06/10/2014  12:17:00       10.218        6.212        3.007       51.455       33.343       25.574     2647.579     1111.780      654.043        0.228        0.221       11.958       20.151        2.840      348.476       28.199      857.801
06/10/2014  12:18:00      -56.554       13.861       41.621       60.330       43.198       30.848     3639.659     1866.037      951.607        0.579        0.323       58.228       25.162        0.187      349.006       29.120      857.763
06/10/2014  12:19:00       49.367       66.597       17.000       92.934       70.644       43.796     8636.685     4990.643     1918.086        1.135        0.777       82.899       28.564        0.119      348.813       28.782      857.752
06/10/2014  12:20:00      165.805      159.797       12.574       87.394       62.966       52.715     7637.745     3964.663     2778.888        3.378        0.719      230.275       34.708        0.023      348.331       27.944      857.745
06/10/2014  12:21:00       73.102      203.085      -11.416       97.548      110.965       69.369     9515.657    12313.289     4812.030        3.667        1.332      215.842       66.296        0.094      348.579       28.375      857.711
06/10/2014  12:22:00      160.670      165.451       15.098      117.076       85.806       72.990    13706.698     7362.591     5327.534        3.990        1.320      230.627       44.062        0.037      348.500       28.237      857.719
06/10/2014  12:23:00      106.609       85.287       21.847      113.627       56.130       47.225    12911.035     3150.626     2230.247        1.870        0.915      136.526       31.860        0.054      348.371       28.018      857.710
06/10/2014  12:24:00      -93.976       49.310      -21.403       44.788       51.814       32.008     2005.948     2684.714     1024.489        0.872        0.286      106.127       28.746        0.073      348.305       27.906      857.691
06/10/2014  12:25:00      -26.160       35.717       13.113       63.131       54.583       37.151     3985.507     2979.357     1380.209        0.524        0.417       44.272       41.828        0.893      348.921       28.970      857.672
06/10/2014  12:26:00       94.066      176.702      -23.834       84.780      115.031       68.078     7187.698    13232.144     4634.579        3.284        1.253      200.180       71.243        0.127      348.405       28.074      857.686
06/10/2014  12:27:00      215.193      153.853        9.680       57.615       51.189       53.896     3319.465     2620.331     2904.826        3.946        0.442      264.535       26.856        0.010      348.159       27.645      857.655
06/10/2014  12:28:00      185.329      137.957       13.700       92.734       69.399       63.103     8599.547     4816.185     3982.035        3.548        0.870      231.039       36.563        0.025      348.349       27.978      857.641
06/10/2014  12:29:00        4.071       53.815       34.896       43.878       57.718       51.178     1925.258     3331.405     2619.200        0.600        0.394       53.969       28.984        0.288      348.781       28.727      857.625
06/10/2014  12:30:00       35.708       43.858      -11.869       23.500       44.600       25.908      552.250     1989.192      671.232        0.328        0.161       56.556        8.768        0.024      348.316       27.922      857.595
06/10/2014  12:31:00      127.650       67.421       27.579       64.822       53.218       40.635     4201.954     2832.116     1651.179        1.514        0.434      144.361       21.418        0.022      348.725       28.629      857.583
06/10/2014  12:32:00      104.415       49.857       82.430       88.097      118.342       88.034     7761.105    14004.936     7749.947        2.484        1.476      115.708       86.144        0.554      348.685       28.562      857.565
06/10/2014  12:33:00       78.318     -107.716       19.510       51.863      101.226       66.121     2689.799    10246.722     4372.020        1.771        0.865      133.178       67.118        0.254      348.424       28.108      857.535
06/10/2014  12:34:00      124.549      113.526       83.310       85.440       68.406       64.603     7299.962     4679.319     4173.489        2.574        0.808      168.525       58.524        0.121      348.552       28.328      857.541
06/10/2014  12:35:00       22.366      130.105       15.881       59.224       98.452       56.481     3507.515     9692.720     3190.146        1.703        0.820      132.013       55.687        0.178      348.921       28.969      857.528
06/10/2014  12:36:00       56.518      167.472      -13.195       68.135      102.276       47.510     4642.322    10460.348     2257.203        2.438        0.868      176.752       44.121        0.062      349.040       29.175      857.508
06/10/2014  12:37:00       97.888       56.698       40.685      114.825       69.043       49.687    13184.762     4767.000     2468.832        1.743        1.021      113.123       17.039        0.023      349.403       29.804      857.505
06/10/2014  12:38:00      137.336      101.366       38.429      126.533       88.235       70.283    16010.601     7785.387     4939.680        2.967        1.437      170.693       39.436        0.053      349.107       29.292      857.495
06/10/2014  12:39:00      143.179       79.374        5.192      138.638       75.805       60.838    19220.413     5746.398     3701.302        2.774        1.433      163.708       29.623        0.033      348.537       28.304      857.517
06/10/2014  12:40:00      236.793      122.675       43.235       84.795       67.844       61.101     7190.120     4602.747     3733.292        4.426        0.776      266.684       37.193        0.019      348.753       28.674      857.507
06/10/2014  12:41:00      181.076       96.450       19.899       87.513       70.518       63.908     7658.559     4972.857     4084.279        2.960        0.836      205.161       26.487        0.017      348.583       28.383      857.528
06/10/2014  12:42:00       89.907       51.466       53.139       55.495       46.205       43.504     3079.670     2134.907     1892.556        1.033        0.355      103.596       29.447        0.081      349.040       29.176      857.519
06/10/2014  12:43:00       23.472      -10.021       41.519       52.418       83.552       46.406     2747.628     6980.861     2153.506        0.713        0.594       25.522       52.644        4.255      348.859       28.864      857.504
06/10/2014  12:44:00       41.601        3.031       44.694       60.113       69.390       35.614     3613.549     4814.990     1268.364        0.672        0.485       41.711       31.346        0.565      349.034       29.166      857.488
06/10/2014  12:45:00       39.515      -61.233       40.003       28.239       44.593       26.376      797.427     1988.575      695.712        0.520        0.174       72.876       16.022        0.048      348.781       28.727      857.488
06/10/2014  12:46:00       16.565       30.590        8.822       30.385       53.184       33.076      923.235     2828.544     1094.048        0.307        0.242       34.787       27.881        0.642      349.095       29.273      857.479
06/10/2014  12:47:00       37.006      115.678       18.983       63.119       78.977       44.662     3983.967     6237.339     1994.708        1.366        0.611      121.453       43.436        0.128      349.081       29.246      857.461
06/10/2014  12:48:00      -81.768      181.457        4.498       70.841      122.422       68.547     5018.398    14987.057     4698.715        3.216        1.235      199.029       66.644        0.112      349.084       29.251      857.461
06/10/2014  12:49:00      -92.096      183.035      -15.581       52.893       62.060       48.694     2797.694     3851.454     2371.074        2.562        0.451      204.898       44.458        0.047      348.771       28.709      857.457
06/10/2014  12:50:00     -157.400      164.748      -22.758       74.475      103.105       59.171     5546.527    10630.572     3501.179        3.605        0.984      227.853       53.371        0.055      348.753       28.677      857.427
06/10/2014  12:51:00     -118.849      141.292      -26.297      106.843       64.676       46.690    11415.461     4182.976     2179.935        2.628        0.889      184.631       61.141        0.110      348.756       28.684      857.426
06/10/2014  12:52:00      -17.651      103.862       18.026       31.800       82.937       45.510     1011.215     6878.506     2071.160        1.069        0.498      105.351       39.704        0.142      349.188       29.431      857.408
06/10/2014  12:53:00      -38.965       34.706       -9.478       88.143       48.118       35.816     7769.205     2315.374     1282.819        0.709        0.568       52.180       34.376        0.434      349.194       29.443      857.397
06/10/2014  12:54:00      -52.523       78.186        6.855      125.546       83.911       58.279    15761.812     7041.016     3396.449        1.755        1.310       94.189       38.616        0.168      349.224       29.495      857.409
06/10/2014  12:55:00       62.409      115.837       27.496       72.469       86.305       83.921     5251.699     7448.479     7042.672        1.890        0.987      131.579       72.750        0.306      349.212       29.474      857.409
06/10/2014  12:56:00       73.135       78.766       16.642      137.373       71.537       59.340    18871.315     5117.516     3521.278        1.967        1.376      107.484       57.879        0.290      349.370       29.747      857.400
06/10/2014  12:57:00       61.795       61.780       54.758      105.234       77.326       64.593    11074.117     5979.303     4172.278        1.593        1.061       87.380       49.322        0.319      349.392       29.785      857.391
06/10/2014  12:58:00      146.447      101.880       33.292       76.271       69.225       59.573     5817.240     4792.083     3548.991        2.354        0.708      178.399       40.364        0.051      348.878       28.895      857.370
06/10/2014  12:59:00       51.676       55.337       36.249       68.465       71.686       40.929     4687.457     5138.858     1675.156        0.927        0.575       75.714       21.434        0.080      349.383       29.771      857.351
06/10/2014  13:00:00        7.147       21.480       55.049       37.722       77.217       51.171     1422.936     5962.423     2618.441        0.677        0.500       22.638       51.428        5.161      349.888       30.648      857.338
06/10/2014  13:01:00       45.228       82.714       89.756       73.252       70.719       59.987     5365.895     5001.169     3598.415        1.545        0.698       94.272       40.762        0.187      349.359       29.729      857.321
06/10/2014  13:02:00      230.473      137.214       24.043      114.768       88.416       60.020    13171.637     7817.450     3602.363        4.855        1.230      268.226       50.862        0.036      349.012       29.123      857.303
06/10/2014  13:03:00      109.284      123.676       14.938      116.618      116.116       75.170    13599.712    13482.883     5650.500        3.009        1.637      165.042       64.143        0.151      349.165       29.391      857.296
06/10/2014  13:04:00       78.126      183.501      -11.782       82.177      142.479       73.096     6753.003    20300.272     5343.000        3.615        1.620      199.440       83.537        0.175      349.312       29.646      857.281
06/10/2014  13:05:00      289.305      174.213       32.790      103.103      101.604       69.258    10630.283    10323.321     4796.620        7.043        1.288      337.710       30.271        0.008      348.942       29.001      857.248
06/10/2014  13:06:00      303.450      170.591       79.758      154.227       91.528       89.550    23785.883     8377.393     8019.236        8.386        2.009      348.114       83.714        0.058      348.926       28.974      857.213
06/10/2014  13:07:00      288.731      170.968       54.392      168.209      114.455      103.483    28294.336    13099.962    10708.766        8.382        2.605      335.553       86.327        0.066      349.156       29.373      857.217
06/10/2014  13:08:00      172.843      145.851       28.422      113.230       87.504       75.483    12821.140     7657.001     5697.699        3.906        1.309      226.158       50.484        0.050      349.066       29.218      857.249
06/10/2014  13:09:00      133.194       95.813       33.267      110.837       73.981       61.768    12284.883     5473.123     3815.313        2.480        1.079      164.075       44.111        0.072      349.222       29.489      857.250
06/10/2014  13:10:00       78.459       11.934       18.988      106.074       96.186       51.366    11251.722     9251.714     2638.463        1.490        1.157       79.362       21.407        0.073      348.885       28.907      857.265
06/10/2014  13:11:00       22.320       16.036       32.847       30.825       34.817       27.247      950.157     1212.212      742.382        0.237        0.145       27.483       20.480        0.555      349.176       29.413      857.235
06/10/2014  13:12:00       13.274       39.333        0.019       30.785       49.424       22.665      947.739     2442.746      513.724        0.281        0.195       41.512       24.400        0.345      348.918       28.964      857.228
06/10/2014  13:13:00      -70.390      210.085      -28.723       61.166      109.393       44.814     3741.272    11966.863     2008.337        3.381        0.886      221.564       41.550        0.035      348.934       28.990      857.204
06/10/2014  13:14:00      -63.020      240.752       -3.843       72.397      132.108       59.216     5241.314    17452.620     3506.506        4.407        1.310      248.863       54.469        0.048      349.367       29.741      857.169
06/10/2014  13:15:00      -95.607      227.403      -28.007       67.543      117.500       50.865     4562.113    13806.350     2587.231        4.129        1.048      246.684       53.358        0.047      349.054       29.198      857.157
06/10/2014  13:16:00      -73.446       79.238       -6.477       66.757       70.069       47.951     4456.540     4909.622     2299.260        1.169        0.583      108.042       47.494        0.193      349.406       29.811      857.136
06/10/2014  13:17:00     -148.108      132.021      -29.125       64.503       77.225       49.629     4160.600     5963.743     2463.086        2.640        0.629      198.408       48.037        0.059      349.017       29.135      857.121
06/10/2014  13:18:00     -112.333       99.334      -12.772       67.217       66.704       36.304     4518.182     4449.467     1318.010        1.647        0.514      149.953       32.368        0.047      349.141       29.350      857.112
06/10/2014  13:19:00      -34.097       89.039       11.921       64.421       75.236       42.272     4150.013     5660.417     1786.963        1.041        0.580       95.344       47.376        0.247      349.226       29.498      857.109
06/10/2014  13:20:00      102.409       67.781        3.894       77.170       58.964       36.030     5955.155     3476.760     1298.174        1.291        0.537      122.808       28.749        0.055      349.178       29.413      857.099
06/10/2014  13:21:00      172.263       87.418       13.733       61.684       55.894       45.493     3804.915     3124.141     2069.585        2.325        0.450      193.175       20.332        0.011      348.825       28.803      857.061
06/10/2014  13:22:00       78.212      -23.206       21.299       77.867       52.503       37.545     6063.238     2756.533     1409.652        0.867        0.511       81.582       29.108        0.127      349.093       29.268      857.042
06/10/2014  13:23:00     -170.791       35.477       -9.045      107.849       58.231       49.137    11631.458     3390.850     2414.417        2.397        0.872      174.437       51.943        0.089      349.244       29.526      856.968
06/10/2014  13:24:00      -77.864      108.844        4.416       77.136       80.176       46.331     5949.898     6428.130     2146.535        1.622        0.726      133.827       50.000        0.140      349.513       29.995      856.998
06/10/2014  13:25:00       24.019      164.861      -10.270       59.552       76.926       50.772     3546.432     5917.612     2577.770        1.995        0.602      166.602       42.089        0.064      349.592       30.130      857.023
06/10/2014  13:26:00      129.214       71.785       17.721       54.753       31.681       38.935     2997.940     1003.682     1515.971        1.384        0.276      147.815       30.059        0.041      349.164       29.392      857.011
06/10/2014  13:27:00       45.893      109.863       -2.540       69.209       87.345       43.578     4789.890     7629.170     1899.029        1.425        0.716      119.063       49.444        0.172      349.517       30.001      856.996
06/10/2014  13:28:00      -72.158      174.114      -15.617      102.505       84.052       51.025    10507.243     7064.683     2603.561        2.797        1.009      188.474       54.473        0.084      349.301       29.624      856.993
06/10/2014  13:29:00      -33.838       93.557        8.274       45.266       53.078       34.758     2048.982     2817.273     1208.122        0.802        0.304       99.489       34.360        0.119      349.796       30.488      856.993
06/10/2014  13:30:00      -41.829      141.287       -1.439       66.333       92.962       43.496     4400.015     8641.933     1891.874        1.832        0.747      147.349       49.267        0.112      349.554       30.065      856.991
06/10/2014  13:31:00     -143.063      182.709      -20.035       69.286      100.956       50.599     4800.554    10192.115     2560.233        3.590        0.878      232.055       48.659        0.044      349.029       29.154      856.995
06/10/2014  13:32:00      -35.201      163.995      -28.199       96.677      114.449       44.404     9346.446    13098.642     1971.698        2.667        1.221      167.730       55.489        0.109      348.884       28.906      857.020
06/10/2014  13:33:00      -21.825       12.894      -13.458       76.163       36.834       33.328     5800.796     1356.772     1110.761        0.454        0.413       25.349       24.983        0.971      348.946       29.013      857.023
06/10/2014  13:34:00      235.027      140.033       16.252       87.854       57.869       55.036     7718.390     3348.766     3028.966        4.460        0.705      273.582       55.373        0.041      348.920       28.965      856.994
06/10/2014  13:35:00      212.017      120.315       39.397       83.105       57.050       69.575     6906.515     3254.694     4840.685        3.799        0.750      243.776       21.300        0.008      348.849       28.841      856.956
06/10/2014  13:36:00      -65.107       51.689      -30.143       41.322       98.931       29.709     1707.521     9787.287      882.613        1.010        0.619       83.131       18.058        0.047      348.778       28.722      856.969
06/10/2014  13:37:00      -48.282       52.344      -15.848       61.388       64.833       48.120     3768.482     4203.299     2315.539        0.780        0.514       71.212       34.364        0.233      348.936       28.997      856.928
06/10/2014  13:38:00       58.072       54.683       36.518       61.917       40.328       41.453     3833.695     1626.386     1718.387        0.744        0.359       79.766       19.244        0.058      349.090       29.263      856.862
06/10/2014  13:39:00     -184.083      -43.156      -15.711       63.899       66.174       36.194     4083.101     4379.020     1310.003        2.288        0.489      189.074       33.923        0.032      349.210       29.469      856.842
06/10/2014  13:40:00     -232.978       18.319      -16.636       75.685       68.776       38.229     5728.174     4730.171     1461.449        3.340        0.596      233.697       33.940        0.021      349.190       29.433      856.836
06/10/2014  13:41:00     -275.197       50.071      -27.330       97.977       67.348       49.800     9599.447     4535.699     2479.998        4.780        0.831      279.715       43.435        0.024      349.164       29.387      856.833
06/10/2014  13:42:00     -217.804       -1.175       -6.763      100.821      104.600       49.190    10164.874    10941.133     2419.659        3.550        1.176      217.807       51.220        0.055      349.422       29.833      856.820
06/10/2014  13:43:00      -81.219       65.485      -17.798       86.040       64.416       49.132     7402.896     4149.439     2413.970        1.258        0.698      104.330       46.113        0.195      349.418       29.832      856.822
06/10/2014  13:44:00       20.079        8.853       58.335       66.967       51.684       41.758     4484.584     2671.234     1743.710        0.639        0.445       21.944       21.410        0.952      349.885       30.642      856.809
06/10/2014  13:45:00       -3.190       68.658       34.619       57.272       78.886       54.776     3280.050     6222.923     3000.465        0.921        0.625       68.732       58.195        0.717      349.696       30.314      856.808
06/10/2014  13:46:00       72.444       81.234       17.644       63.005       58.925       51.801     3969.687     3472.111     2683.300        1.114        0.506      108.844       37.288        0.117      349.408       29.814      856.792
06/10/2014  13:47:00        1.730      103.049      -18.885       31.041       30.205       19.853      963.525      912.359      394.150        0.662        0.114      103.064       21.357        0.043      349.199       29.451      856.780
06/10/2014  13:48:00      -63.095       22.981       -3.196       35.297       19.253       29.758     1245.872      370.659      885.546        0.351        0.125       67.150       21.939        0.107      349.560       30.078      856.784
06/10/2014  13:49:00     -124.851       -6.239      -18.062       46.090       35.329       28.659     2124.285     1248.119      821.353        1.007        0.210      125.007       19.134        0.023      349.002       29.111      856.775
06/10/2014  13:50:00      -51.286       -6.345        0.246       41.911       29.873       32.425     1756.498      892.408     1051.397        0.318        0.185       51.677       33.167        0.412      349.341       29.698      856.741
06/10/2014  13:51:00       55.804      -30.298        0.119       38.370       81.320       35.683     1472.258     6612.977     1273.254        0.669        0.468       63.498       37.056        0.341      349.603       30.152      856.726
06/10/2014  13:52:00      -26.271       -5.522       27.754       70.741      114.714       55.650     5004.336    13159.276     3096.898        1.137        1.063       26.845       54.366        4.101      350.184       31.162      856.702
06/10/2014  13:53:00       92.276       57.313       24.486       98.276       52.831       41.433     9658.116     2791.153     1716.680        1.328        0.708      108.626       16.719        0.024      349.853       30.585      856.727
06/10/2014  13:54:00        3.782      299.689      -34.023       97.803      144.655       48.935     9565.430    20925.026     2394.618        6.193        1.644      299.713       62.118        0.043      349.328       29.672      856.737
06/10/2014  13:55:00     -146.366      181.631      -26.102       97.175      119.835       61.775     9442.993    14360.526     3816.105        4.135        1.381      233.265       71.768        0.095      349.389       29.779      856.748
06/10/2014  13:56:00       38.341       70.134       20.760       68.938       63.143       47.599     4752.438     3987.003     2265.679        0.891        0.550       79.930       35.407        0.196      349.620       30.179      856.739
06/10/2014  13:57:00      -29.772      255.590      -15.420       50.703      118.979       43.506     2570.752    14155.917     1892.796        4.253        0.931      257.318       56.074        0.047      349.273       29.577      856.729
06/10/2014  13:58:00      -68.740      148.730      -13.282       58.266       73.664       39.451     3394.873     5426.436     1556.406        1.870        0.519      163.846       41.718        0.065      349.389       29.781      856.708
06/10/2014  13:59:00      -30.526       41.717      -11.241       45.919       46.869       25.812     2108.594     2196.674      666.280        0.388        0.249       51.693       21.059        0.166      349.532       30.029      856.683
06/10/2014  14:00:00       27.625       42.773       13.800       76.979       41.707       36.031     5925.775     1739.480     1298.257        0.587        0.448       50.918       19.588        0.148      349.725       30.363      856.657
06/10/2014  14:01:00       76.501       74.267       18.682       62.869       43.637       43.341     3952.570     1904.158     1878.465        0.972        0.387      106.621       38.123        0.128      349.572       30.098      856.643
06/10/2014  14:02:00       32.797      117.339        4.565      102.805       63.338       51.521    10568.826     4011.701     2654.434        1.605        0.862      121.837       43.636        0.128      349.565       30.085      856.642
06/10/2014  14:03:00       88.656       64.133       15.082       63.253       57.025       45.697     4000.980     3251.893     2088.240        1.077        0.467      109.421       30.348        0.077      349.540       30.042      856.625
06/10/2014  14:04:00      134.799      108.057       44.970       97.670       68.805       80.722     9539.409     4734.149     6515.985        2.633        1.039      172.763       53.909        0.097      349.430       29.850      856.617
06/10/2014  14:05:00      125.329      149.426       13.837      121.750       79.164       71.799    14823.129     6267.008     5155.032        3.223        1.312      195.027       57.168        0.086      349.456       29.895      856.604
06/10/2014  14:06:00      250.833      178.695       16.861       90.412       66.335       62.012     8174.296     4400.311     3845.433        5.577        0.821      307.976       27.744        0.008      349.125       29.320      856.591
06/10/2014  14:07:00      202.883      122.181       21.683       67.642       44.511       43.372     4575.402     1981.225     1881.124        3.250        0.422      236.833       33.053        0.019      349.139       29.342      856.588
06/10/2014  14:08:00       31.706      114.938        3.258       94.218       66.327       43.510     8877.055     4399.209     1893.084        1.470        0.758      119.231       46.754        0.154      349.277       29.586      856.581
06/10/2014  14:09:00       -5.009      107.042      -15.507       49.314       41.714       30.473     2431.847     1740.018      928.596        0.841        0.255      107.159       28.451        0.070      349.618       30.178      856.555
06/10/2014  14:10:00       48.200       80.111       -2.595       44.134       50.262       41.548     1947.843     2526.246     1726.236        0.747        0.310       93.493       33.282        0.127      349.387       29.777      856.541
06/10/2014  14:11:00       50.578       13.611       23.872       40.113       41.654       28.962     1609.024     1735.033      838.811        0.375        0.209       52.378       16.259        0.096      349.669       30.265      856.520
06/10/2014  14:12:00       40.035       37.345       38.460       37.663       34.741       29.903     1418.511     1206.967      894.186        0.400        0.176       54.749        7.176        0.017      349.993       30.831      856.493
06/10/2014  14:13:00       46.926      114.310       11.348       93.068       95.061       54.582     8661.740     9036.582     2979.201        1.803        1.034      123.567       41.240        0.111      349.679       30.282      856.489
06/10/2014  14:14:00       53.974      126.911       -3.629       72.468       81.309       53.818     5251.633     6611.145     2896.350        1.689        0.738      137.911       41.720        0.092      349.636       30.209      856.488
06/10/2014  14:15:00       20.461       67.820        1.058       36.390       48.549       30.974     1324.219     2357.045      959.415        0.483        0.232       70.839       19.960        0.079      349.638       30.214      856.488
06/10/2014  14:16:00       45.864       73.118       -7.078       49.666       64.831       43.951     2466.720     4203.080     1931.662        0.805        0.430       86.312       40.999        0.226      349.528       30.022      856.467
06/10/2014  14:17:00       68.634      133.588      -13.320       78.403       80.032       51.536     6146.998     6405.193     2655.979        1.897        0.760      150.188       50.261        0.112      349.469       29.918      856.462
06/10/2014  14:18:00       64.792       82.507       11.576       60.523       51.723       43.802     3662.989     2675.225     1918.628        0.970        0.413      104.907       32.722        0.097      349.676       30.279      856.446
06/10/2014  14:19:00       62.445      139.145      -12.128       69.380      114.936       70.670     4813.549    13210.328     4994.293        2.321        1.151      152.515       63.918        0.176      349.742       30.390      856.426
06/10/2014  14:20:00       45.754       93.958       -5.380       61.515       79.554       48.182     3784.146     6328.805     2321.530        1.169        0.622      104.506       47.990        0.211      349.790       30.476      856.423
06/10/2014  14:21:00       24.946      222.749      -18.961       64.271       98.781       48.629     4130.788     9757.594     2364.814        3.342        0.813      224.142       46.696        0.043      349.476       29.929      856.398
06/10/2014  14:22:00      -24.423      204.527      -17.953       52.774       80.435       43.485     2785.057     6469.813     1890.906        2.695        0.557      205.980       44.650        0.047      349.659       30.247      856.373
06/10/2014  14:23:00      -77.680      150.478      -18.628       54.371       82.563       47.583     2956.207     6816.586     2264.142        2.053        0.602      169.345       45.150        0.071      349.824       30.534      856.354
06/10/2014  14:24:00      -47.791       25.310        5.852       58.137       48.795       32.661     3379.948     2380.995     1066.723        0.489        0.341       54.080       20.064        0.138      350.106       31.025      856.347
06/10/2014  14:25:00      -34.213       89.130       11.143       69.816       85.017       41.979     4874.305     7227.865     1762.216        1.155        0.693       95.471       43.750        0.210      350.307       31.374      856.336
06/10/2014  14:26:00      -93.401       40.454      -12.704       82.095       93.094       45.477     6739.536     8666.531     2068.177        1.400        0.874      101.786       43.601        0.183      350.239       31.255      856.337
06/10/2014  14:27:00     -127.554      -53.175       28.196      121.295      108.135       63.574    14712.557    11693.141     4041.631        2.516        1.522      138.194       68.386        0.245      350.235       31.247      856.319
06/10/2014  14:28:00     -206.142     -111.475       -1.488      133.278       76.384       56.302    17763.092     5834.530     3169.925        4.084        1.338      234.353       63.090        0.072      349.906       30.675      856.317
06/10/2014  14:29:00     -112.850     -109.905        1.419       97.239       80.724       46.898     9455.343     6516.332     2199.453        2.149        0.909      157.526       42.023        0.071      349.700       30.318      856.316
06/10/2014  14:30:00     -107.131      -32.807       16.104      114.652      110.499       46.258    13145.154    12209.976     2139.846        2.015        1.375      112.042       34.291        0.094      349.682       30.288      856.325
06/10/2014  14:31:00     -126.939      224.292      -40.160       99.121       85.975       51.992     9824.901     7391.701     2703.152        4.397        0.996      257.721       44.017        0.029      349.622       30.182      856.357
06/10/2014  14:32:00      -67.406      284.029      -22.620       52.634      117.231       43.962     2770.346    13743.043     1932.665        5.208        0.922      291.918       56.757        0.038      349.568       30.087      856.351
06/10/2014  14:33:00      -14.416      213.740      -25.897       46.584       68.876       37.409     2170.046     4743.875     1399.468        2.744        0.416      214.226       36.256        0.029      349.566       30.086      856.360
06/10/2014  14:34:00        5.410      137.627       -4.366       42.697       74.593       37.769     1823.039     5564.153     1426.511        1.390        0.441      137.733       41.633        0.091      349.891       30.651      856.350
06/10/2014  14:35:00      -38.666      123.421      -11.053       38.837       89.912       36.090     1508.310     8084.149     1302.499        1.387        0.545      129.336       36.699        0.081      349.673       30.274      856.336
06/10/2014  14:36:00      -86.016      112.404      -11.024       48.639       70.720       37.808     2365.794     5001.290     1429.462        1.447        0.440      141.539       33.334        0.055      349.595       30.138      856.328
06/10/2014  14:37:00      -28.033      104.619        1.790       86.840      116.253       53.401     7541.106    13514.725     2851.699        1.782        1.195      108.310       46.745        0.186      349.773       30.445      856.310
06/10/2014  14:38:00        7.196       76.922        0.380       32.128       64.412       38.828     1032.229     4148.962     1507.604        0.633        0.334       77.258       30.820        0.159      349.793       30.482      856.278
06/10/2014  14:39:00     -159.497       78.531       -2.649      170.283       84.320       54.375    28996.249     7109.856     2956.672        3.533        1.953      177.782       83.019        0.218      350.062       30.946      856.263
06/10/2014  14:40:00     -147.398       73.254      -10.157       97.191      118.830       47.699     9446.075    14120.679     2275.231        2.651        1.292      164.598       49.804        0.092      349.854       30.586      856.293
06/10/2014  14:41:00      -97.658      180.053      -21.627       64.630       69.482       38.702     4177.101     4827.740     1497.840        2.646        0.525      204.832       34.204        0.028      349.544       30.049      856.278
06/10/2014  14:42:00       15.045      132.492      -13.260       65.198       44.382       35.005     4250.807     1969.731     1225.316        1.270        0.372      133.344       29.868        0.050      349.593       30.135      856.234
06/10/2014  14:43:00       23.573      310.468      -49.053       34.746       87.845       28.844     1207.277     7716.773      831.982        5.455        0.488      311.361       30.966        0.010      349.337       29.687      856.203
06/10/2014  14:44:00     -119.594      145.615      -14.198      120.472       80.229       52.571    14513.561     6436.689     2763.720        2.971        1.186      188.431       42.255        0.050      349.827       30.537      856.189
06/10/2014  14:45:00     -206.119      -58.120      -28.679       74.517       90.762       32.831     5552.839     8237.682     1077.899        3.077        0.743      214.157       29.563        0.019      349.750       30.404      856.179
06/10/2014  14:46:00     -183.601      -22.994      -21.951       50.350       58.828       36.596     2535.151     3460.780     1339.271        2.103        0.367      185.035       23.304        0.016      349.932       30.723      856.146
06/10/2014  14:47:00      -12.976      -45.260       14.458       82.410       38.560       43.440     6791.406     1486.888     1887.039        0.629        0.508       47.084       45.891        0.950      350.165       31.128      856.105
06/10/2014  14:48:00       92.037       57.516       20.233       79.354       69.333       36.365     6297.113     4807.043     1322.378        1.231        0.621      108.530       37.705        0.121      350.087       30.991      856.065
06/10/2014  14:49:00      138.107       95.102       22.258       86.646       54.565       50.379     7507.609     2977.313     2538.012        2.082        0.651      167.684       28.878        0.030      349.929       30.717      856.069
06/10/2014  14:50:00      211.123      177.398       15.638      128.094       81.785       81.170    16407.986     6688.812     6588.549        5.298        1.484      275.759       60.290        0.048      349.893       30.652      856.088
06/10/2014  14:51:00       57.583      209.372      -25.434      146.127      135.132       91.469    21353.082    18260.557     8366.594        4.788        2.399      217.146       79.716        0.135      349.952       30.755      856.087
06/10/2014  14:52:00       61.952      405.724      -33.491       99.221      179.591       97.137     9844.761    32252.963     9435.547       11.054        2.577      410.426      106.434        0.067      349.959       30.765      856.071
06/10/2014  14:53:00       71.265      365.615      -40.079       96.062      158.600       84.794     9227.887    25154.036     7190.099        9.096        2.079      372.496       88.858        0.057      349.973       30.791      856.054
06/10/2014  14:54:00       48.352      314.676      -26.617       82.781      142.230       73.715     6852.742    20229.391     5433.955        6.729        1.626      318.369       81.174        0.065      349.818       30.524      856.059
06/10/2014  14:55:00      -38.985      383.115      -37.441      101.740      124.522       68.988    10351.105    15505.692     4759.309        9.015        1.531      385.093       65.642        0.029      349.877       30.624      856.051
06/10/2014  14:56:00     -120.367      359.079      -46.146       94.565      163.642       50.624     8942.606    26778.813     2562.801        9.191        1.914      378.716       41.132        0.012      349.784       30.462      856.052
06/10/2014  14:57:00     -188.814       77.955      -22.928      144.124      116.298       57.622    20771.814    13525.320     3320.242        3.993        1.881      204.274       70.913        0.121      350.055       30.934      856.055
06/10/2014  14:58:00     -199.770       57.097      -12.767      154.223       68.596       47.407    23784.845     4705.463     2247.448        3.703        1.537      207.769       69.479        0.112      349.735       30.380      856.072
06/10/2014  14:59:00      -66.015       -1.719       -2.775       66.811       49.952       39.469     4463.703     2495.247     1557.830        0.644        0.426       66.037       35.315        0.286      349.793       30.482      856.024
06/10/2014  15:00:00      -23.081      -36.233       25.621       98.099       77.427       45.983     9623.462     5994.952     2114.459        1.011        0.887       42.960       46.004        1.147      350.215       31.215      855.973
06/10/2014  15:01:00     -161.138      -42.054       29.360      107.635      119.675       61.322    11585.188    14322.068     3760.358        2.913        1.483      166.535       61.739        0.137      350.092       31.000      855.967
06/10/2014  15:02:00      -46.992        2.875       19.885      129.290       73.845       49.674    16715.976     5453.140     2467.468        1.362        1.232       47.080       58.546        1.546      350.089       30.995      855.959
06/10/2014  15:03:00     -328.052      -30.035      -34.228      104.264       91.534       49.950    10870.941     8378.447     2495.003        6.571        1.087      329.425       47.065        0.020      349.608       30.158      855.971
06/10/2014  15:04:00      -76.356      -74.167       10.440       97.753       60.252       42.259     9555.593     3630.332     1785.819        1.320        0.749      106.447       50.179        0.222      349.950       30.753      855.934
06/10/2014  15:05:00     -167.775      -83.931        3.359      132.848       96.408       56.030    17648.620     9294.463     3139.408        3.264        1.504      187.598       29.777        0.025      350.031       30.892      855.903
06/10/2014  15:06:00     -156.572       63.131      -21.590       64.568      108.670       49.851     4168.991    11809.225     2485.135        2.371        0.923      168.820       44.177        0.068      350.111       31.032      855.926
06/10/2014  15:07:00     -193.790       81.829      -16.264      105.548       89.422       67.598    11140.426     7996.376     4569.553        3.411        1.185      210.358       61.662        0.086      350.131       31.066      855.921
06/10/2014  15:08:00     -283.176        1.700      -24.920      154.444      153.717       58.474    23852.994    23628.954     3419.256        6.585        2.545      283.181       53.903        0.036      349.894       30.653      855.881
06/10/2014  15:09:00     -173.520      302.901      -55.383      173.351      149.695       56.688    30050.398    22408.487     3213.567        9.029        2.784      349.082       58.994        0.029      349.699       30.315      855.918
06/10/2014  15:10:00       73.859      246.161      -16.857       99.917      138.892       77.884     9983.460    19290.916     6065.947        5.083        1.767      257.002       80.924        0.099      349.773       30.443      855.906
06/10/2014  15:11:00      -42.555      346.390      -31.822      119.043      168.462       69.202    14171.236    28379.535     4788.896        8.507        2.367      348.994       75.767        0.047      349.604       30.152      855.890
06/10/2014  15:12:00     -172.147      246.902      -56.643       68.379      106.638       47.285     4675.705    11371.722     2235.893        5.604        0.914      300.990       48.190        0.026      349.607       30.154      855.870
06/10/2014  15:13:00     -127.125       82.198      -20.298       69.661       67.906       37.384     4852.621     4611.254     1397.537        1.709        0.543      151.384       34.746        0.053      350.040       30.910      855.809
06/10/2014  15:14:00       94.010       49.480       50.942       87.493       55.848       47.413     7655.090     3118.970     2248.037        1.345        0.651      106.236       28.766        0.073      350.056       30.937      855.803
06/10/2014  15:15:00       66.168       55.900       -4.656      112.380       69.587       44.655    12629.300     4842.292     1994.112        1.349        0.973       86.620       33.314        0.148      350.096       31.007      855.784
06/10/2014  15:16:00      123.251       66.342       11.372      107.512       62.832       51.715    11558.763     3947.892     2674.396        1.895        0.909      139.971       49.455        0.125      349.864       30.604      855.769
06/10/2014  15:17:00      201.400      128.958        9.082       61.388       52.979       50.233     3768.503     2806.761     2523.365        3.319        0.455      239.149       33.274        0.019      349.709       30.332      855.753
06/10/2014  15:18:00      157.868      124.696        8.314       80.947       65.916       56.599     6552.477     4344.950     3203.468        2.732        0.705      201.175       40.003        0.040      349.860       30.595      855.745
06/10/2014  15:19:00       33.191      167.639      -24.955       88.339       80.673       60.230     7803.760     6508.097     3627.663        2.388        0.897      170.893       54.608        0.102      349.945       30.743      855.744
06/10/2014  15:20:00     -151.825       70.102      -26.011       47.632       70.930       36.886     2268.786     5031.065     1360.556        1.865        0.433      167.227       24.567        0.022      350.012       30.862      855.731
06/10/2014  15:21:00     -109.517       67.148      -22.471       41.520       45.403       26.162     1723.869     2061.390      684.442        1.074        0.223      128.463       25.381        0.039      349.799       30.492      855.709
06/10/2014  15:22:00      -14.556      -11.380        5.639       46.374       31.545       27.757     2150.503      995.112      770.477        0.214        0.196       18.476       18.695        1.024      350.133       31.073      855.678
06/10/2014  15:23:00       89.880       43.579       -5.787       30.164       30.881       34.388      909.874      953.646     1182.504        0.653        0.152       99.888       15.941        0.025      349.710       30.336      855.680
06/10/2014  15:24:00      175.888      126.538       13.449       94.033       77.467       48.491     8842.299     6001.178     2351.334        3.216        0.860      216.676       21.858        0.010      349.960       30.769      855.670
06/10/2014  15:25:00       83.291       71.390       50.523       77.082       62.411       47.269     5941.644     3895.086     2234.402        1.333        0.604      109.700       37.597        0.117      350.381       31.503      855.669
06/10/2014  15:26:00       79.424       91.189      104.376       79.225       70.367       56.639     6276.676     4951.454     3207.987        1.997        0.722      120.928       39.836        0.109      350.098       31.010      855.663
06/10/2014  15:27:00      157.346      109.883       36.231       53.246       53.381       42.545     2835.140     2849.547     1810.072        2.282        0.375      191.917       36.043        0.035      349.686       30.293      855.656
06/10/2014  15:28:00       55.802       -4.025      -11.906       24.525       29.585       18.341      601.490      875.245      336.407        0.254        0.091       55.947       14.898        0.071      349.696       30.314      855.634
06/10/2014  15:29:00       24.667       -5.270        6.349       46.159       25.608       28.086     2130.677      655.777      788.830        0.213        0.179       25.224       12.945        0.263      349.973       30.794      855.605
06/10/2014  15:30:00       29.203      -38.983        9.905       25.950       40.100       22.834      673.407     1607.985      521.394        0.264        0.140       48.708       14.941        0.094      349.979       30.805      855.578
06/10/2014  15:31:00      -25.979      -44.290       -7.356       87.897       66.000       42.129     7725.800     4356.019     1774.880        0.827        0.693       51.347       37.827        0.543      350.414       31.561      855.558
06/10/2014  15:32:00      -84.643      -38.289       -2.627       64.857       35.404       37.176     4206.416     1253.460     1382.035        0.774        0.342       92.900       18.948        0.042      350.600       31.884      855.560
06/10/2014  15:33:00     -182.338     -148.359        5.592      102.098       76.308       50.538    10424.029     5822.939     2554.083        3.704        0.940      235.069       52.682        0.050      350.403       31.537      855.573
06/10/2014  15:34:00      -81.697      -54.002       24.929      109.091       81.494       42.383    11900.822     6641.250     1796.354        1.527        1.017       97.932       60.051        0.376      350.555       31.805      855.603
06/10/2014  15:35:00     -229.626       70.218      -22.085      119.063       97.389       55.507    14176.056     9484.551     3081.071        4.244        1.337      240.122       50.102        0.044      350.277       31.320      855.591
06/10/2014  15:36:00     -106.755      320.107      -51.474      121.420       94.280       53.210    14742.838     8888.748     2831.348        7.148        1.323      337.439       32.659        0.009      350.086       30.986      855.608
06/10/2014  15:37:00     -148.497      167.025      -33.858       75.786       86.236       57.624     5743.485     7436.588     3320.550        3.380        0.825      223.492       48.900        0.048      350.230       31.238      855.606
06/10/2014  15:38:00        0.729       70.618        1.913       47.416       43.300       36.710     2248.296     1874.875     1347.600        0.523        0.274       70.621       23.915        0.115      350.313       31.386      855.569
06/10/2014  15:39:00      -66.126       46.611        5.172       68.821      100.391       42.133     4736.282    10078.333     1775.148        1.158        0.829       80.903       35.135        0.189      350.444       31.614      855.553
06/10/2014  15:40:00      -78.062      213.684      -31.675       71.623       96.858       44.587     5129.837     9381.504     1988.010        3.463        0.825      227.496       44.434        0.038      349.972       30.788      855.557
06/10/2014  15:41:00      -43.653      140.714      -21.706       60.935       66.860       41.959     3713.057     4470.202     1760.520        1.606        0.497      147.330       37.975        0.066      350.179       31.152      855.534
06/10/2014  15:42:00       31.431      189.293      -33.429       60.485       56.691       35.326     3658.418     3213.903     1247.936        2.303        0.406      191.885       27.289        0.020      350.316       31.388      855.535
06/10/2014  15:43:00      -11.939      313.835      -32.614       94.290      124.389       65.890     8890.666    15472.517     4341.474        6.420        1.435      314.062       62.348        0.039      350.408       31.548      855.532
06/10/2014  15:44:00     -189.712      341.360      -53.512      110.906      145.357       64.330    12300.218    21128.601     4138.395        9.647        1.878      390.535       71.615        0.034      349.938       30.729      855.561
06/10/2014  15:45:00     -110.280      147.589       -5.185       82.776      144.757       55.820     6851.938    20954.731     3115.880        3.244        1.546      184.239       57.642        0.098      350.226       31.232      855.559
06/10/2014  15:46:00     -153.703       22.047      -14.734       61.736       54.852       32.792     3811.373     3008.758     1075.339        1.611        0.395      155.276       23.755        0.023      350.330       31.414      855.546
06/10/2014  15:47:00     -174.802      -96.356        0.718       82.075       81.474       47.969     6736.285     6638.015     2301.056        2.776        0.784      199.601       39.487        0.039      350.190       31.168      855.538
06/10/2014  15:48:00     -266.863     -105.306      -14.978       75.520       59.105       41.101     5703.283     3493.350     1689.304        4.671        0.544      286.889       33.044        0.013      349.843       30.563      855.508
06/10/2014  15:49:00     -228.988      -50.098      -12.365       73.802       60.594       39.412     5446.758     3671.615     1553.268        3.288        0.534      234.404       33.472        0.020      349.819       30.524      855.490
06/10/2014  15:50:00     -101.247       -5.942      -10.155       62.544       51.163       34.904     3911.734     2617.617     1218.270        0.907        0.387      101.421       28.818        0.081      350.117       31.045      855.478
06/10/2014  15:51:00      -87.756       49.157       -2.495      121.408       87.930       42.452    14739.959     7731.701     1802.178        1.719        1.214      100.586       45.414        0.204      350.197       31.182      855.461
06/10/2014  15:52:00       82.442       68.995       17.132      137.840       73.852       58.561    18999.781     5454.048     3429.382        1.986        1.394      107.503       39.086        0.132      350.222       31.224      855.490
06/10/2014  15:53:00      104.420       66.546       71.424       58.273      121.778       55.348     3395.738    14829.771     3063.424        2.086        1.064      123.822       59.355        0.230      349.866       30.608      855.415
06/10/2014  15:54:00      170.399      109.457       24.835       97.071       64.796       56.581     9422.736     4198.466     3201.418        2.923        0.841      202.526       50.885        0.063      350.041       30.911      855.413
06/10/2014  15:55:00      120.063       71.365       10.650       77.079       58.485       63.410     5941.246     3420.467     4020.810        1.650        0.669      139.671       27.685        0.039      350.238       31.254      855.426
06/10/2014  15:56:00      167.351       83.202       25.771       93.567       83.683       44.808     8754.705     7002.832     2007.796        2.668        0.888      186.893       24.092        0.017      350.120       31.048      855.447
06/10/2014  15:57:00       27.889      104.835        6.476       89.755       60.978       35.861     8056.003     3718.323     1286.000        1.243        0.653      108.481       32.343        0.089      350.397       31.531      855.441
06/10/2014  15:58:00      -13.660      124.579      -22.933       58.486       77.964       31.663     3420.624     6078.420     1002.568        1.337        0.525      125.326       26.206        0.044      350.467       31.653      855.439
06/10/2014  15:59:00      107.534      104.822        9.392       96.113       82.680       67.592     9237.621     6835.923     4568.669        2.164        1.032      150.171       49.487        0.109      350.209       31.202      855.426
06/10/2014  16:00:00      146.502      115.994       12.357       83.373       63.834       48.400     6950.988     4074.739     2342.548        2.422        0.668      186.862       31.855        0.029      350.055       30.934      855.409
06/10/2014  16:01:00      133.126      133.596       -0.402       78.337       67.030       54.819     6136.681     4493.027     3005.101        2.460        0.682      188.601       37.917        0.040      350.105       31.021      855.423
06/10/2014  16:02:00       68.891       55.333       13.522       66.405       53.820       41.257     4409.605     2896.595     1702.173        0.850        0.450       88.361       30.252        0.117      350.124       31.056      855.422
06/10/2014  16:03:00       57.320       34.418        6.673       48.772       29.488       30.092     2378.707      869.537      905.527        0.433        0.208       66.859       14.012        0.044      350.210       31.207      855.411
06/10/2014  16:04:00       59.655       20.031       20.462       71.123       36.473       29.984     5058.415     1330.287      899.026        0.583        0.364       62.928       32.026        0.259      350.264       31.301      855.410
06/10/2014  16:05:00       34.662       66.615       -3.989       28.829       47.079       23.584      831.090     2216.434      556.204        0.463        0.180       75.093       27.815        0.137      350.344       31.440      855.412
06/10/2014  16:06:00       42.607       33.890       27.747       73.691       57.067       41.506     5430.367     3256.604     1722.720        0.707        0.520       54.441       39.517        0.527      350.293       31.351      855.418
06/10/2014  16:07:00      -13.256       31.914       -2.437       44.140       58.267       35.844     1948.306     3394.996     1284.791        0.391        0.331       34.558       19.683        0.324      350.356       31.459      855.407
06/10/2014  16:08:00     -133.963       -4.727       -9.058       54.466       52.640       29.034     2966.599     2771.002      842.962        1.231        0.329      134.047       25.984        0.038      350.342       31.435      855.393
06/10/2014  16:09:00     -221.280       -4.399      -16.135       71.143       63.440       42.315     5061.349     4024.686     1790.558        3.006        0.544      221.324       38.577        0.030      350.372       31.485      855.380
06/10/2014  16:10:00     -156.171       -7.313       -4.719      107.375      108.732       38.669    11529.479    11822.663     1495.323        2.465        1.242      156.342       52.019        0.111      350.182       31.156      855.378
06/10/2014  16:11:00     -148.649       37.660       -1.492       49.334       42.495       24.688     2433.840     1805.847      609.518        1.418        0.242      153.345       19.459        0.016      350.232       31.244      855.390
06/10/2014  16:12:00      -14.975       55.191       -0.574       47.917       86.260       32.455     2296.030     7440.798     1053.328        0.703        0.540       57.186       32.354        0.320      350.454       31.630      855.387
06/10/2014  16:13:00     -101.501       -4.472       -1.838       87.321      107.822       44.224     7624.901    11625.637     1955.747        1.576        1.060      101.599       27.057        0.071      350.397       31.530      855.370
06/10/2014  16:14:00     -130.009       33.957       10.633       94.186       87.812       56.425     8870.992     7710.978     3183.767        1.896        0.988      134.370       53.511        0.159      350.602       31.888      855.350
06/10/2014  16:15:00     -118.266      -62.576        2.711       87.689       57.967       35.661     7689.295     3360.157     1271.721        1.511        0.616      133.801       37.459        0.078      350.530       31.762      855.344
06/10/2014  16:16:00       22.481       50.355       19.081       23.108       51.413       30.314      533.957     2643.327      918.945        0.375        0.205       55.145       30.810        0.312      350.269       31.309      855.359
06/10/2014  16:17:00       58.166       85.237        9.595       47.514       57.968       41.767     2257.559     3360.249     1744.470        0.905        0.368      103.192       41.495        0.162      350.196       31.180      855.355
06/10/2014  16:18:00       49.395      225.127      -20.354       69.528       99.391       52.788     4834.118     9878.484     2786.561        3.551        0.875      230.482       46.422        0.041      350.228       31.235      855.345
06/10/2014  16:19:00      179.886      124.133       60.432      116.095       74.044       80.349    13477.984     5482.510     6456.028        3.841        1.271      218.559       59.798        0.075      350.163       31.122      855.306
06/10/2014  16:20:00      114.335       78.112       53.618      118.505       84.332       82.649    14043.363     7111.869     6830.785        2.501        1.399      138.470       67.560        0.238      350.101       31.015      855.273
06/10/2014  16:21:00      196.107      146.668       42.581      134.636       83.843       56.879    18126.757     7029.652     3235.208        4.508        1.420      244.886       38.303        0.024      350.180       31.151      855.276
06/10/2014  16:22:00       57.794      257.996       -1.178       96.201      205.315       98.019     9254.598    42154.256     9607.728        6.545        3.051      264.390      107.626        0.166      350.214       31.212      855.244
06/10/2014  16:23:00       91.986      304.737      -13.808      118.933      191.229      108.644    14145.059    36568.528    11803.441        8.201        3.126      318.318      106.398        0.112      350.080       30.977      855.250
06/10/2014  16:24:00      122.599      227.494      -11.831      108.627      144.602       87.434    11799.820    20909.698     7644.637        5.363        2.018      258.426       86.295        0.112      350.209       31.201      855.251
06/10/2014  16:25:00       74.766      149.535        2.151      107.129       99.832       68.033    11476.658     9966.405     4628.474        2.701        1.304      167.184       60.067        0.129      350.211       31.205      855.242
06/10/2014  16:26:00      -68.076      131.909      -33.546      106.066       81.740       66.918    11249.907     6681.498     4477.988        2.278        1.120      148.439       49.991        0.113      350.509       31.724      855.257
06/10/2014  16:27:00      -25.105      136.422      -26.571      122.493       98.788       61.682    15004.552     9759.148     3804.626        2.425        1.428      138.713       53.788        0.150      350.641       31.954      855.271
06/10/2014  16:28:00      -37.308      312.145      -40.269       58.482       90.740       48.012     3420.128     8233.744     2305.183        5.720        0.698      314.367       32.004        0.010      350.289       31.339      855.282
06/10/2014  16:29:00       31.159      160.566      -23.714       59.575       82.799       47.228     3549.174     6855.600     2230.460        1.997        0.632      163.561       44.727        0.075      350.420       31.568      855.254
06/10/2014  16:30:00      -64.719      240.153      -24.151       81.799      101.839       53.776     6691.017    10371.122     2891.855        4.120        0.998      248.721       52.652        0.045      350.415       31.561      855.259
06/10/2014  16:31:00     -199.427      309.759      -39.720      140.569      144.051       79.992    19759.774    20750.683     6398.775        9.210        2.345      368.404       85.481        0.054      350.385       31.506      855.266
06/10/2014  16:32:00     -128.010      211.335      -24.778      133.785      120.186       60.950    17898.442    14444.669     3714.896        4.885        1.803      247.081       53.416        0.047      350.365       31.471      855.237
06/10/2014  16:33:00      -12.038      245.003       -1.051      106.676      133.293       80.756    11379.681    17767.078     6521.472        4.791        1.783      245.299       73.167        0.089      350.407       31.546      855.191
06/10/2014  16:34:00       83.926      358.632      -36.793      125.277      195.487      101.130    15694.331    38215.307    10227.242       10.056        3.207      368.321       98.444        0.071      350.235       31.244      855.133
06/10/2014  16:35:00       94.236      251.020      -18.011      159.401      197.867       99.816    25408.595    39151.309     9963.316        7.336        3.726      268.125       97.386        0.132      350.439       31.601      855.130
06/10/2014  16:36:00      -84.352      298.423      -41.798       77.788      103.766       51.630     6051.025    10767.354     2665.614        5.870        0.974      310.115       41.018        0.017      350.582       31.849      855.140
06/10/2014  16:37:00      -10.985      264.709      -33.199      101.203      145.366       66.812    10241.973    21131.245     4463.901        5.356        1.792      264.937       79.277        0.090      350.404       31.541      855.106
06/10/2014  16:38:00        7.947      346.995      -52.925       83.835      103.966       52.208     7028.384    10808.878     2725.711        7.191        1.028      347.086       37.247        0.012      350.515       31.733      855.076
06/10/2014  16:39:00       90.733      340.548      -10.003      140.504      199.043      105.889    19741.483    39617.960    11212.474        9.743        3.529      352.428      110.779        0.099      350.699       32.053      854.992
06/10/2014  16:40:00      197.586      225.024       89.299      182.893      117.215      129.248    33449.728    13739.438    16704.917        8.076        3.195      299.460      107.907        0.130      350.679       32.018      854.700
06/10/2014  16:41:00     -141.882     -315.603      -27.581      428.052      285.076      129.182   183228.500    81268.464    16687.936       20.079       14.059      346.028      138.183        0.159      350.866       32.345      854.515
06/10/2014  16:42:00     -539.861     -359.280      -26.782      264.423      197.448      112.082    69919.468    38985.894    12562.394       27.134        6.073      648.484      117.888        0.033      350.376       31.491      854.761
06/10/2014  16:43:00     -220.101     -157.657        2.479      145.366      113.809       68.320    21131.203    12952.460     4667.565        5.602        1.938      270.740       71.851        0.070      350.510       31.725      854.948
06/10/2014  16:44:00     -259.936     -152.656        9.623      207.822      158.551       80.190    43189.778    25138.406     6430.464        8.285        3.738      301.448       99.416        0.109      350.689       32.037      855.041
06/10/2014  16:45:00     -438.991     -259.206      -17.758      241.073      168.989       86.599    58116.350    28557.160     7499.353       17.718        4.709      509.805      103.621        0.041      350.575       31.838      855.055
06/10/2014  16:46:00     -410.846     -112.817       -5.369      237.210      155.455       77.563    56268.359    24166.275     6015.959       13.399        4.323      426.054       94.081        0.049      350.738       32.122      855.080
06/10/2014  16:47:00     -466.150     -136.477      -17.220      136.242      143.697       76.813    18561.996    20648.792     5900.235       14.066        2.256      485.717       67.983        0.020      350.813       32.251      855.076
06/10/2014  16:48:00     -569.458     -118.139      -35.174      249.597      188.445       85.453    62298.580    35511.342     7302.193       22.228        5.256      581.584      105.536        0.033      350.596       31.874      855.077
06/10/2014  16:49:00     -498.350     -146.981      -23.683      163.368      113.079       73.801    26689.156    12786.943     5446.624       15.771        2.246      519.573       79.662        0.024      350.402       31.536      855.112
06/10/2014  16:50:00     -281.533     -109.312       -5.650      167.982      109.999       68.552    28218.035    12099.779     4699.349        6.812        2.251      302.010       76.870        0.065      350.685       32.029      855.120
06/10/2014  16:51:00     -200.051     -136.407        9.388      158.895      116.923       76.756    25247.592    13670.884     5891.429        5.176        2.240      242.131       84.372        0.121      350.712       32.076      855.143
06/10/2014  16:52:00     -126.707      -80.340       18.653      136.298      113.881       65.648    18577.179    12968.869     4309.601        2.935        1.793      150.031       79.497        0.281      350.716       32.084      855.147
06/10/2014  16:53:00     -241.357      -28.968       -2.793      199.212      125.170       66.222    39685.605    15667.465     4385.333        5.941        2.987      243.089       91.935        0.143      350.711       32.076      855.131
06/10/2014  16:54:00     -133.336     -171.885       -2.098      107.747       99.082       41.839    11609.386     9817.204     1750.519        3.525        1.159      217.539       45.176        0.043      350.540       31.777      855.120
06/10/2014  16:55:00     -132.113      -31.955       -1.845       58.863       56.891       29.795     3464.812     3236.600      887.717        1.303        0.379      135.923       17.381        0.016      350.869       32.351      855.097
06/10/2014  16:56:00     -269.197     -125.518      -14.464      155.885      149.629       70.610    24300.158    22388.953     4985.841        7.004        2.584      297.021       78.762        0.070      350.767       32.170      855.086
06/10/2014  16:57:00     -394.280      -79.511      -31.763      240.899      154.811       75.563    58032.332    23966.292     5709.738       12.523        4.385      402.217       86.606        0.046      350.691       32.038      855.075
06/10/2014  16:58:00     -317.256      -34.217      -18.450      173.700      148.618       64.687    30171.845    22087.425     4184.427        7.929        2.822      319.096       75.518        0.056      350.911       32.423      855.098
06/10/2014  16:59:00     -331.863      -16.175      -37.896      159.060      111.800       67.738    25300.012    12499.315     4588.435        7.710        2.119      332.257       48.234        0.021      350.625       31.925      855.108
06/10/2014  17:00:00     -260.687      -53.033       -6.039      167.176      154.888       76.428    27947.917    23990.188     5841.287        6.428        2.889      266.027       79.850        0.090      350.884       32.376      855.110
06/10/2014  17:01:00     -412.407      -49.806      -30.336      132.048      166.406       78.623    17436.712    27690.878     6181.625       11.239        2.565      415.403       58.881        0.020      350.767       32.171      855.097
06/10/2014  17:02:00     -468.801      -90.477      -33.528      167.946      141.803       77.002    28205.713    20108.205     5929.362       14.165        2.712      477.452       58.295        0.015      350.638       31.947      855.086
06/10/2014  17:03:00     -516.761     -169.148       -7.657      202.114      143.597       85.520    40849.957    20620.046     7313.741       18.224        3.439      543.740       90.570        0.028      350.549       31.793      855.094
06/10/2014  17:04:00     -281.681       15.717      -10.373      168.017      115.463       66.931    28229.807    13331.727     4479.757        6.286        2.302      282.119       56.002        0.039      350.901       32.405      855.107
06/10/2014  17:05:00     -517.400      -73.393      -47.195      140.140      128.501       73.265    19639.269    16512.411     5367.753       15.841        2.076      522.579       79.202        0.023      350.444       31.609      855.106
06/10/2014  17:06:00     -382.955      -63.452      -18.390      130.373      129.116       65.065    16997.106    16670.815     4233.519        9.445        1.895      388.176       61.536        0.025      350.514       31.731      855.088
06/10/2014  17:07:00     -412.112      -80.209      -43.552      132.710      130.941       66.864    17611.865    17145.621     4470.779       10.869        1.961      419.845       65.637        0.024      350.378       31.494      855.089
06/10/2014  17:08:00     -360.833      -24.089      -40.432      106.377       77.210       54.939    11316.136     5961.451     3018.252        7.635        1.015      361.636       50.912        0.020      350.480       31.671      855.094
06/10/2014  17:09:00     -395.827       29.098      -48.211      155.121      112.097       61.650    24062.423    12565.730     3800.762       10.013        2.021      396.895       65.654        0.027      350.420       31.568      855.100
06/10/2014  17:10:00     -366.473       47.405      -42.545      133.203      107.910       52.305    17742.957    11644.470     2735.862        8.524        1.606      369.527       49.912        0.018      350.323       31.398      855.106
06/10/2014  17:11:00     -222.310      -11.818       -4.581      129.587      109.708       67.322    16792.877    12035.890     4532.277        4.147        1.668      222.624       70.317        0.100      350.456       31.631      855.095
06/10/2014  17:12:00     -249.853     -105.107       -6.068      117.557      108.613       61.960    13819.691    11796.751     3839.091        5.148        1.473      271.061       50.580        0.035      350.489       31.690      855.086
06/10/2014  17:13:00     -241.425      -57.800      -18.642       74.930       56.173       40.534     5614.515     3155.454     1643.043        3.619        0.521      248.248       28.948        0.014      350.309       31.374      855.087
06/10/2014  17:14:00     -174.813       12.744      -24.945       63.830      105.236       48.763     4074.331    11074.650     2377.830        2.443        0.876      175.277       51.238        0.085      350.291       31.344      855.085
06/10/2014  17:15:00     -263.177       28.882      -33.205      156.931       76.691       40.077    24627.385     5881.483     1606.147        5.165        1.606      264.757       55.458        0.044      350.315       31.386      855.070
06/10/2014  17:16:00     -211.096       26.374      -14.576       81.934       55.819       35.541     6713.169     3115.814     1263.149        2.828        0.555      212.737       35.162        0.027      350.399       31.531      855.055
06/10/2014  17:17:00     -166.999      -75.382      -11.017       87.932       69.963       40.633     7732.107     4894.825     1651.077        2.398        0.714      183.225       41.608        0.052      350.452       31.624      855.035
06/10/2014  17:18:00     -137.403      -41.412        6.393      125.515       94.346       52.257    15754.034     8901.218     2730.765        2.401        1.369      143.508       58.954        0.169      350.582       31.851      855.028
06/10/2014  17:19:00     -269.551     -103.390      -17.883       81.709       67.464       44.657     6676.425     4551.367     1994.239        4.844        0.661      288.699       36.299        0.016      350.607       31.893      855.049
06/10/2014  17:20:00     -257.735      -31.322      -15.880      119.257       85.439       56.464    14222.142     7299.811     3188.226        4.618        1.236      259.631       56.007        0.047      350.521       31.743      855.056
06/10/2014  17:21:00     -139.835      -56.447       -2.606       94.721       69.816       35.341     8972.057     4874.322     1249.000        1.892        0.755      150.798       41.843        0.077      350.467       31.651      855.063
06/10/2014  17:22:00       -4.051      -57.281       -5.296       70.269       48.070       29.224     4937.795     2310.719      854.031        0.571        0.405       57.424       31.187        0.295      350.535       31.773      855.058
06/10/2014  17:23:00      -47.676      -48.841       16.728       98.200       75.599       47.358     9643.187     5715.205     2242.735        1.127        0.880       68.253       50.761        0.553      350.601       31.884      855.030
06/10/2014  17:24:00      -78.766     -197.021       26.895      172.796      189.341       79.534    29858.537    35850.202     6325.658        5.888        3.602      212.182       83.687        0.156      350.417       31.565      854.990
06/10/2014  17:25:00     -275.254     -214.109      -11.496      186.526      130.597       81.417    34791.825    17055.603     6628.700        9.010        2.924      348.722       82.410        0.056      350.278       31.322      854.945
06/10/2014  17:26:00     -245.793     -165.614       -0.337      160.723      180.540       66.012    25831.975    32594.543     4357.520        7.530        3.139      296.382       67.050        0.051      350.323       31.401      854.952
06/10/2014  17:27:00     -370.296     -263.418      -20.495      189.860      181.374      103.436    36046.943    32896.577    10698.996       14.327        3.982      454.432       90.200        0.039      350.381       31.500      854.929
06/10/2014  17:28:00     -413.406     -250.313       -0.532      215.623      164.746      104.089    46493.183    27141.101    10834.622       15.900        4.223      483.282      128.947        0.071      350.341       31.430      854.937
06/10/2014  17:29:00     -325.107     -238.338      -11.546      122.142      105.437       62.037    14918.783    11116.915     3848.624        9.625        1.494      403.112       61.719        0.023      350.367       31.475      854.961
06/10/2014  17:30:00     -391.533     -264.269      -15.722      215.545      161.367       89.067    46459.681    26039.333     7932.861       15.189        4.022      472.373      100.811        0.046      350.325       31.402      854.944
06/10/2014  17:31:00     -395.720     -312.701        1.717      186.645      152.721       96.150    34836.246    23323.772     9244.901       16.088        3.370      504.357      100.004        0.039      350.097       31.005      854.956
06/10/2014  17:32:00     -238.124     -166.778        7.390      177.315      141.035       76.640    31440.581    19890.971     5873.622        7.088        2.860      290.720       77.818        0.072      350.256       31.282      854.961
06/10/2014  17:33:00     -344.604     -257.837       -4.974      180.150      155.765      105.757    32453.962    24262.713    11184.614       12.657        3.395      430.385       84.950        0.039      350.311       31.378      854.958
06/10/2014  17:34:00     -349.274     -170.751       -4.376      210.919      142.307       88.614    44486.917    20251.250     7852.422       11.187        3.630      388.778       99.531        0.066      350.361       31.467      854.925
06/10/2014  17:35:00     -218.151     -158.308       33.522      206.486      157.476      103.698    42636.559    24798.660    10753.250        7.597        3.909      269.539      112.199        0.173      350.433       31.590      854.956
06/10/2014  17:36:00     -221.280      -81.352       -5.295      128.483      145.991       55.076    16507.810    21313.440     3033.368        4.823        2.043      235.760       45.886        0.038      350.433       31.593      854.992
06/10/2014  17:37:00     -207.041      -71.190        7.847      128.327      107.827       54.191    16467.730    11626.711     2936.634        3.951        1.552      218.938       64.212        0.086      350.583       31.852      854.972
06/10/2014  17:38:00     -221.500      -39.153      -19.923      163.289      103.310       59.658    26663.319    10673.046     3559.075        4.594        2.045      224.934       66.471        0.087      350.502       31.712      854.958
06/10/2014  17:39:00     -510.788     -151.296      -18.708      169.052      198.056       76.285    28578.597    39226.316     5819.368       17.887        3.681      532.724       76.916        0.021      350.387       31.508      854.953
06/10/2014  17:40:00     -307.051     -179.305        6.780      182.986      177.675       83.129    33483.898    31568.256     6910.432        9.921        3.598      355.571       84.722        0.057      350.494       31.696      854.938
06/10/2014  17:41:00     -279.793      -69.150       -4.938      154.809      115.891       79.900    23965.796    13430.637     6384.032        6.343        2.189      288.212       78.839        0.075      350.556       31.804      854.932
06/10/2014  17:42:00     -222.285     -141.920        9.080      199.145      116.264       70.102    39658.688    13517.225     4914.307        6.385        2.905      263.727       88.934        0.114      350.631       31.936      854.961
06/10/2014  17:43:00     -311.538     -199.988      -11.839      151.203      114.639       60.290    22862.343    13142.002     3634.921        8.841        1.982      370.204       64.851        0.031      350.348       31.443      854.978
06/10/2014  17:44:00     -119.217      -99.890        7.864      112.466       99.309       56.162    12648.598     9862.200     3154.183        2.495        1.283      155.534       53.966        0.120      350.434       31.594      854.990
06/10/2014  17:45:00     -279.540        6.285      -37.558       99.731      102.188       54.578     9946.257    10442.433     2978.752        5.148        1.168      279.610       48.377        0.030      350.397       31.527      855.003
06/10/2014  17:46:00     -224.771      -66.507      -17.890       95.200       88.237       50.144     9063.094     7785.772     2514.378        3.731        0.968      234.404       38.101        0.026      350.401       31.536      854.996
06/10/2014  17:47:00      -67.304       30.215       31.198       84.619       63.153       60.082     7160.377     3988.254     3609.885        1.058        0.738       73.776       55.425        0.564      350.532       31.766      854.999
06/10/2014  17:48:00     -224.602        1.789      -30.954      109.819       85.343       52.536    12060.298     7283.410     2760.073        3.675        1.105      224.609       27.474        0.015      350.486       31.684      855.017
06/10/2014  17:49:00     -276.439      -48.450      -24.693      107.845      114.301       57.428    11630.627    13064.749     3298.015        5.368        1.400      280.652       47.949        0.029      350.497       31.701      854.976
06/10/2014  17:50:00     -287.464      -16.192      -18.808      125.435      143.954       60.472    15733.949    20722.617     3656.871        6.168        2.006      287.919       62.414        0.047      350.572       31.833      854.979
06/10/2014  17:51:00     -211.565      -13.120       -7.749      114.091       96.315       51.666    13016.656     9276.645     2669.328        3.497        1.248      211.972       51.788        0.060      350.587       31.858      854.986
06/10/2014  17:52:00     -180.563       23.894      -20.947      119.534       82.188       48.455    14288.337     6754.801     2347.855        2.850        1.170      182.137       45.568        0.063      350.696       32.050      854.985
06/10/2014  17:53:00     -303.549     -100.413      -11.134      116.058       96.110       60.327    13469.516     9237.185     3639.389        6.434        1.317      319.726       61.614        0.037      350.582       31.849      854.978
06/10/2014  17:54:00     -374.025      -21.835      -26.365      161.832      134.481       71.810    26189.685    18085.116     5156.727        9.524        2.472      374.662       76.941        0.042      350.401       31.535      854.958
06/10/2014  17:55:00     -393.223     -119.315      -15.559      134.049      147.820       71.131    17969.206    21850.888     5059.618       10.698        2.244      410.926       67.076        0.027      350.203       31.190      854.962
06/10/2014  17:56:00     -428.884      -85.144      -29.589      168.748      113.354       66.027    28476.029    12849.136     4359.584       11.887        2.284      437.254       79.878        0.033      350.265       31.299      854.963
06/10/2014  17:57:00     -558.621     -220.108      -15.411      178.390      136.651       77.609    31822.824    18673.480     6023.162       20.862        2.826      600.420       73.806        0.015      350.017       30.867      854.945
06/10/2014  17:58:00     -261.889      -26.752       -8.459      144.182      123.852       65.943    20788.396    15339.296     4348.535        5.492        2.024      263.252       76.304        0.084      350.126       31.056      854.996
06/10/2014  17:59:00     -291.638      -13.858      -12.569      167.631      129.861       58.507    28100.232    16863.773     3423.097        6.689        2.419      291.967       72.448        0.062      350.106       31.022      854.989
06/10/2014  18:00:00     -321.451      -95.302       -8.771      132.065       94.460       60.077    17441.086     8922.636     3609.226        7.123        1.499      335.281       67.009        0.040      350.076       30.970      854.984
06/10/2014  18:01:00     -266.995      -31.882      -11.555      103.594       90.510       55.829    10731.766     8192.092     3116.828        4.723        1.102      268.892       56.900        0.045      350.023       30.878      854.975
06/10/2014  18:02:00     -163.294      -12.749       -3.227       91.047       77.054       37.208     8289.534     5937.260     1384.469        2.122        0.781      163.790       29.680        0.033      350.022       30.876      854.969
06/10/2014  18:03:00      -78.083      -40.581        5.013       72.838       60.484       47.398     5305.400     3658.296     2246.568        0.949        0.561       87.999       28.749        0.107      350.123       31.054      854.968
06/10/2014  18:04:00      -54.020      -12.666       22.521       89.267       73.116       39.780     7968.530     5345.909     1582.444        0.924        0.745       55.485       38.727        0.487      350.109       31.030      854.962
06/10/2014  18:05:00     -366.580      -65.967      -16.167      174.420       81.396       59.896    30422.256     6625.233     3587.495        8.981        2.032      372.469       79.414        0.045      350.030       30.891      854.963
06/10/2014  18:06:00     -425.847        3.334      -33.853      159.306      143.481       69.340    25378.379    20586.937     4808.015       11.663        2.539      425.860       70.731        0.028      349.938       30.731      854.982
06/10/2014  18:07:00     -198.127       16.224      -38.207      117.107      107.295       53.724    13714.048    11512.177     2886.251        3.454        1.406      198.790       47.945        0.058      350.008       30.853      854.979
06/10/2014  18:08:00     -493.541      -24.970      -58.744      187.125      135.627       80.610    35015.826    18394.734     6498.011       15.377        2.995      494.172       80.796        0.027      349.905       30.673      854.993
06/10/2014  18:09:00     -503.713     -156.497      -22.716      201.377      176.368       89.188    40552.797    31105.839     7954.424       17.916        3.981      527.464       84.070        0.025      349.931       30.720      854.972
06/10/2014  18:10:00     -388.410      -13.356      -46.501      186.275      131.731       74.485    34698.416    17352.941     5548.033       10.539        2.880      388.640       81.071        0.044      349.935       30.724      854.977
06/10/2014  18:11:00     -529.442      -53.147      -47.675      199.934      156.498       77.139    39973.777    24491.663     5950.460       17.790        3.521      532.103       76.605        0.021      349.941       30.736      854.928
06/10/2014  18:12:00     -428.752       22.213      -27.078      197.891      127.826       79.319    39160.720    16339.523     6291.554       12.341        3.090      429.327       90.509        0.044      350.140       31.079      854.937
06/10/2014  18:13:00     -308.936      -16.802       -9.323      120.166       98.743       69.463    14439.748     9750.273     4825.063        6.241        1.451      309.392       62.657        0.041      350.195       31.176      854.992
06/10/2014  18:14:00     -207.839      -46.036       -0.604      106.168      115.803       57.384    11271.675    13410.259     3292.975        3.664        1.399      212.877       48.330        0.052      350.263       31.295      855.002
06/10/2014  18:15:00     -182.892      -53.876        0.050      166.195       94.645       54.718    27620.794     8957.631     2994.033        3.796        1.979      190.662       72.944        0.146      350.321       31.398      855.001
06/10/2014  18:16:00     -156.454      -35.728       11.125      137.495       86.661       52.775    18904.790     7510.066     2785.212        2.753        1.460      160.482       60.775        0.143      350.257       31.285      855.008
06/10/2014  18:17:00     -292.360     -155.502      -15.897      160.626      164.192       66.378    25800.639    26959.053     4405.996        8.353        2.858      331.142       67.696        0.042      350.144       31.088      854.943
06/10/2014  18:18:00     -368.569      -71.475      -23.701      119.271      115.675       71.999    14225.689    13380.667     5183.785        8.715        1.640      375.435       60.640        0.026      350.228       31.234      854.950
06/10/2014  18:19:00     -437.780      -51.237       -4.137      186.034      142.813       74.835    34608.692    20395.640     5600.312       12.744        3.030      440.768       73.171        0.028      350.113       31.034      854.970
06/10/2014  18:20:00     -332.641      -46.186      -16.503      137.251      126.297       68.883    18837.864    15951.025     4744.822        7.629        1.977      335.832       66.847        0.040      350.162       31.119      854.963
06/10/2014  18:21:00     -243.374        3.448      -12.960      132.506      107.194       56.782    17557.862    11490.620     3224.190        4.584        1.614      243.398       62.086        0.065      350.252       31.277      854.971
06/10/2014  18:22:00     -375.435     -131.349      -14.820      122.222       93.622       67.159    14938.260     8764.992     4510.386        9.331        1.411      397.749       49.446        0.015      350.272       31.310      854.963
06/10/2014  18:23:00     -496.116      -56.580      -43.567      155.509      105.983       73.225    24182.939    11232.312     5361.915       14.600        2.039      499.332       82.865        0.028      349.972       30.789      854.975
06/10/2014  18:24:00     -485.993      -84.524      -19.198      160.612      169.118       73.059    25796.339    28601.030     5337.551       15.171        2.987      493.288       67.120        0.019      349.858       30.591      854.938
06/10/2014  18:25:00     -568.991      -33.290      -34.623      123.645      142.543       68.002    15288.080    20318.479     4624.208       18.314        2.012      569.964       48.694        0.007      349.887       30.642      854.951
06/10/2014  18:26:00     -327.345       17.008       -7.022      154.644      127.591       69.362    23914.833    16279.495     4811.020        7.624        2.250      327.787       72.350        0.049      350.002       30.843      854.946
06/10/2014  18:27:00     -369.240     -122.088       -1.971      216.342      172.281      105.046    46803.923    29680.755    11034.695       11.937        4.376      388.901      109.626        0.079      350.055       30.934      854.949
06/10/2014  18:28:00     -449.091     -220.765      -10.192      218.271      218.763       97.963    47642.152    47857.419     9596.686       17.779        5.255      500.420      114.657        0.052      349.913       30.689      854.962
06/10/2014  18:29:00     -421.572     -136.453       -2.225      273.798      165.000       87.803    74965.532    27225.062     7709.334       15.311        5.495      443.106      110.421        0.062      349.921       30.702      854.982
06/10/2014  18:30:00     -310.800      -87.752       -6.392      157.758      114.613       71.691    24887.476    13136.094     5139.655        7.374        2.158      322.950       71.259        0.049      350.005       30.847      855.022
06/10/2014  18:31:00     -328.842     -110.178       -2.311      182.416      130.360       70.131    33275.707    16993.796     4918.371        8.773        2.759      346.809       79.404        0.052      350.152       31.102      855.039
06/10/2014  18:32:00     -306.293      -50.077       -4.013      122.010      115.726       66.120    14886.408    13392.525     4371.901        6.449        1.633      310.360       58.979        0.036      350.063       30.947      855.061
06/10/2014  18:33:00     -378.281       19.136      -36.892      118.640       75.027       59.193    14075.397     5629.010     3503.777        8.401        1.160      378.764       63.734        0.028      349.879       30.627      855.047
06/10/2014  18:34:00     -346.624       17.414      -30.892      166.527      100.317       56.380    27731.314    10063.559     3178.730        8.118        2.049      347.061       60.515        0.030      349.967       30.782      855.049
06/10/2014  18:35:00     -308.377      -60.587      -15.084      176.668      199.009       78.250    31211.514    39604.753     6123.131        8.795        3.847      314.272       84.987        0.073      350.025       30.883      855.033
06/10/2014  18:36:00     -277.387      -45.552       -8.114      144.232      107.598       63.668    20802.777    11577.275     4053.676        5.775        1.822      281.102       74.597        0.070      350.099       31.010      855.045
06/10/2014  18:37:00     -355.025      -46.435      -18.935      209.674      103.114       61.243    43962.982    10632.520     3750.647        9.344        2.917      358.048       81.625        0.052      350.084       30.984      855.072
06/10/2014  18:38:00     -367.764       -6.448      -27.719      136.641       82.886       57.601    18670.747     6870.067     3317.898        8.245        1.443      367.820       66.958        0.033      350.071       30.960      855.077
06/10/2014  18:39:00     -174.047       16.131      -10.161      139.034       96.340       51.805    19330.392     9281.335     2683.767        3.097        1.565      174.793       54.050        0.096      349.983       30.810      855.074
06/10/2014  18:40:00     -265.447      -21.267       -6.235      165.078       77.014       61.454    27250.801     5931.115     3776.579        5.395        1.848      266.298       80.072        0.090      349.958       30.766      855.044
06/10/2014  18:41:00     -207.049      -81.758       17.791      164.449      103.612       75.132    27043.570    10735.392     5644.845        4.664        2.171      222.607       93.994        0.178      350.119       31.046      855.039
06/10/2014  18:42:00     -372.446     -139.392       -1.616      171.313      132.498       73.173    29348.178    17555.610     5354.267       10.519        2.613      397.676       79.390        0.040      349.978       30.801      855.074
06/10/2014  18:43:00     -336.814      -91.069       -9.453      170.017      142.625       81.772    28905.798    20341.781     6686.597        8.887        2.797      348.908       86.494        0.061      350.006       30.850      855.109
06/10/2014  18:44:00     -443.784      -55.159      -28.922      183.087      135.809       81.582    33520.709    18444.097     6655.650       12.971        2.931      447.199       73.000        0.027      349.915       30.690      855.102
06/10/2014  18:45:00     -326.693     -121.380      -24.738      132.149      159.925       85.551    17463.467    25575.896     7319.010        8.621        2.518      348.513       60.252        0.030      349.905       30.671      855.084
06/10/2014  18:46:00     -396.557     -118.477       -4.502      163.797      137.842       85.375    26829.546    19000.391     7288.938       11.221        2.656      413.878       96.199        0.054      349.781       30.458      855.104
06/10/2014  18:47:00     -338.424      -93.743      -14.871      159.907      135.480       68.367    25570.202    18354.859     4674.020        8.606        2.430      351.168       62.351        0.032      349.830       30.544      855.114
06/10/2014  18:48:00     -221.398      -62.293       -1.200      146.620      117.766       61.976    21497.473    13868.798     3841.050        4.605        1.960      229.995       73.241        0.101      349.944       30.741      855.091
06/10/2014  18:49:00     -299.742      -67.275        0.163      193.146      128.431       85.940    37305.392    16494.519     7385.686        7.777        3.059      307.199       94.655        0.095      349.827       30.538      855.078
06/10/2014  18:50:00     -229.922     -130.654       -6.315      151.097      128.405       78.147    22830.405    16487.919     6106.879        5.769        2.271      264.452       82.971        0.098      349.846       30.571      855.069
06/10/2014  18:51:00     -359.967     -136.923      -43.112      203.053      189.832       77.472    41230.670    36036.265     6001.961       11.671        4.163      385.129       81.919        0.045      349.758       30.417      855.083
06/10/2014  18:52:00     -208.384      -69.593        7.574      137.147      119.192       64.095    18809.359    14206.648     4108.172        4.272        1.856      219.698       65.933        0.090      349.803       30.496      855.109
06/10/2014  18:53:00     -226.909       -4.280        0.609      119.267      114.212       58.518    14224.724    13044.468     3424.307        4.109        1.535      226.949       59.076        0.068      349.858       30.593      855.101
06/10/2014  18:54:00     -369.505     -152.526       -9.306      213.016      181.472       79.306    45375.786    32931.950     6289.377       12.223        4.230      399.747       94.192        0.056      349.748       30.401      855.098
06/10/2014  18:55:00     -319.972     -175.524        4.841      226.271      193.186      108.432    51198.575    37320.670    11757.440       11.673        5.014      364.953      131.557        0.130      349.627       30.190      855.079
06/10/2014  18:56:00     -546.950     -171.314      -14.087      286.710      213.670      111.772    82202.867    45654.701    12492.956       23.450        7.018      573.151      133.805        0.055      349.481       29.939      855.088
06/10/2014  18:57:00     -360.254     -159.794       -1.716      199.993      180.647       87.746    39997.147    32633.383     7699.325       11.781        4.016      394.103      100.666        0.065      349.528       30.021      855.099
06/10/2014  18:58:00     -390.692      -57.078       -7.228      233.118      172.737       94.065    54344.163    29837.954     8848.221       12.447        4.652      394.840       73.882        0.035      349.558       30.071      855.099
06/10/2014  18:59:00     -497.200     -145.876        9.179      275.978      160.937       94.709    76164.030    25900.570     8969.774       18.978        5.552      518.158      112.479        0.047      349.519       30.002      855.139
06/10/2014  19:00:00     -367.980      -81.759       -1.478      216.171      141.677       89.563    46729.901    20072.419     8021.482       10.845        3.741      376.953      109.822        0.085      349.544       30.047      855.163
06/10/2014  19:01:00     -363.585      -50.756      -21.787      149.816      159.676       70.897    22444.701    25496.361     5026.422        9.410        2.648      367.111       72.366        0.039      349.566       30.085      855.168
06/10/2014  19:02:00     -584.721     -123.227      -49.306      216.714      203.141       99.035    46965.018    41266.185     9807.929       22.876        4.902      597.564       91.260        0.023      349.452       29.886      855.132
06/10/2014  19:03:00     -334.454      -96.707       -6.961      151.894      112.857       65.045    23071.729    12736.659     4230.801        8.064        2.002      348.155       61.907        0.032      349.554       30.064      855.148
06/10/2014  19:04:00     -482.101       16.103      -30.497      177.121      161.312       93.475    31371.949    26021.675     8737.595       14.986        3.307      482.370       82.451        0.029      349.479       29.933      855.181
06/10/2014  19:05:00     -325.460     -105.033      -20.899      163.566      150.585       79.386    26753.885    22675.919     6302.132        8.655        2.787      341.988       62.315        0.033      349.498       29.966      855.169
06/10/2014  19:06:00     -266.317      -58.291      -11.949      148.622       97.794       59.367    22088.577     9563.664     3524.477        5.482        1.759      272.622       55.788        0.042      349.520       30.005      855.176
06/10/2014  19:07:00     -260.199      -94.508      -16.882      121.907      121.631       68.810    14861.331    14794.013     4734.799        5.565        1.720      276.831       69.317        0.063      349.567       30.087      855.164
06/10/2014  19:08:00     -243.942     -101.192      -15.559       91.103      123.625       54.215     8299.755    15283.081     2939.290        4.825        1.326      264.098       44.436        0.028      349.553       30.061      855.176
06/10/2014  19:09:00     -106.654      -50.839       16.740      117.768       97.941       45.943    13869.294     9592.437     2110.768        1.990        1.279      118.151       45.103        0.146      349.582       30.114      855.192
06/10/2014  19:10:00     -266.469     -213.618       -4.738      203.027      145.717       82.309    41219.873    21233.379     6774.774        9.293        3.461      341.523       89.852        0.069      349.537       30.034      855.166
06/10/2014  19:11:00     -425.081      -95.368      -12.347      244.322      201.273       97.667    59693.413    40510.961     9538.874       14.982        5.487      435.648      111.213        0.065      349.409       29.812      855.186
06/10/2014  19:12:00     -483.527      -52.904      -23.579      182.318      154.011       87.857    33239.927    23719.504     7718.782       15.090        3.234      486.413       91.088        0.035      349.378       29.758      855.192
06/10/2014  19:13:00     -409.265     -161.393      -14.001      189.715      166.775       74.474    35991.635    27813.880     5546.355       13.154        3.468      439.938       83.168        0.036      349.419       29.828      855.202
06/10/2014  19:14:00     -489.400     -146.009      -19.697      183.739      202.930       96.503    33760.073    41180.643     9312.780       17.272        4.213      510.716       88.232        0.030      349.337       29.688      855.197
06/10/2014  19:15:00     -428.624     -195.880      -27.198      196.203      207.899       96.558    38495.435    43222.120     9323.427       15.692        4.552      471.262      115.143        0.060      349.355       29.718      855.224
06/10/2014  19:16:00     -348.165     -106.392       -5.156      181.499      148.037       84.061    32942.064    21915.068     7066.275        9.723        3.096      364.058       93.744        0.066      349.376       29.755      855.237
06/10/2014  19:17:00     -298.556      -35.215       -2.671      232.143      142.576       82.018    53890.430    20327.875     6726.999        8.565        4.047      300.626      100.771        0.112      349.386       29.771      855.270
06/10/2014  19:18:00     -531.297     -101.765      -26.965      195.672      177.191       73.929    38287.404    31396.819     5465.460       18.424        3.757      540.955       74.095        0.019      349.312       29.645      855.283
06/10/2014  19:19:00     -333.079     -112.883      -32.287      126.985      138.376       75.656    16125.073    19147.862     5723.896        8.285        2.050      351.688       47.952        0.019      349.324       29.665      855.298
06/10/2014  19:20:00     -192.454      -80.166       25.011      174.629      134.684       78.470    30495.161    18139.762     6157.479        4.943        2.740      208.483       82.332        0.156      349.336       29.688      855.304
06/10/2014  19:21:00     -321.434      -75.278       -5.620      244.825      137.990       76.527    59939.146    19041.200     5856.311        9.691        4.242      330.132       91.495        0.077      349.286       29.599      855.320
06/10/2014  19:22:00     -407.795     -182.093      -16.143      263.803      166.485       86.451    69592.024    27717.372     7473.757       15.223        5.239      446.603      105.078        0.055      349.232       29.505      855.329
06/10/2014  19:23:00     -483.110     -230.176      -23.942      246.815      162.124       89.494    60917.732    26284.336     8009.201       19.106        4.761      535.142      103.506        0.037      349.217       29.480      855.310
06/10/2014  19:24:00     -236.713      -82.377       -9.556       79.996      113.638       59.598     6399.358    12913.568     3551.873        4.288        1.143      250.637       39.935        0.025      349.283       29.594      855.357
06/10/2014  19:25:00     -233.590      -45.862      -13.241      127.800      133.408       71.343    16332.723    17797.616     5089.788        4.802        1.961      238.049       64.488        0.073      349.298       29.620      855.377
06/10/2014  19:26:00     -292.195      -12.661       -3.408      184.264      152.479       99.279    33953.173    23249.863     9856.344        7.629        3.353      292.469       92.942        0.101      349.237       29.515      855.375
06/10/2014  19:27:00     -387.904     -125.484      -35.705      212.471      150.233       80.005    45144.002    22569.885     6400.739       12.079        3.706      407.695       90.778        0.050      349.211       29.468      855.387
06/10/2014  19:28:00     -378.264      -37.896      -23.333      162.298      153.744       83.682    26340.581    23637.174     7002.692       10.101        2.849      380.158       83.052        0.048      349.196       29.443      855.407
06/10/2014  19:29:00     -313.879      -15.106      -15.259      190.124      128.969       75.360    36147.005    16633.038     5679.056        7.871        2.923      314.242       89.716        0.082      349.198       29.446      855.428
06/10/2014  19:30:00     -194.381      -88.019       11.664      118.380      132.446       67.087    14013.731    17541.996     4500.641        4.086        1.803      213.381       52.867        0.061      349.257       29.550      855.432
06/10/2014  19:31:00     -257.423      -33.604      -13.363      181.385       89.992       62.480    32900.653     8098.559     3903.770        5.623        2.245      259.607       76.197        0.086      349.190       29.433      855.445
06/10/2014  19:32:00     -186.802      -15.295       -6.627      124.990       71.651       49.792    15622.381     5133.884     2479.232        2.920        1.162      187.427       45.684        0.059      349.214       29.477      855.460
06/10/2014  19:33:00     -226.507      -76.035        8.550      155.767      108.526       74.594    24263.332    11777.835     5564.214        4.938        2.080      238.928       85.873        0.129      349.177       29.410      855.466
06/10/2014  19:34:00     -238.158      -87.196      -12.726      118.143       88.627       54.468    13957.686     7854.663     2966.749        4.463        1.239      253.619       53.864        0.045      349.205       29.458      855.471
06/10/2014  19:35:00     -120.921      -54.137        6.401      101.460       77.507       53.372    10294.177     6007.390     2848.582        1.837        0.958      132.487       50.554        0.146      349.216       29.477      855.479
06/10/2014  19:36:00     -135.249      -26.630       17.054      182.894       76.910       63.716    33450.110     5915.129     4059.784        3.135        2.171      137.846       85.639        0.386      349.134       29.337      855.487
06/10/2014  19:37:00     -275.955     -124.980       -8.894      167.153      123.363       69.945    27940.011    15218.465     4892.234        6.994        2.403      302.938       78.137        0.067      349.122       29.312      855.486
06/10/2014  19:38:00     -348.088     -175.285      -18.552      232.901      179.075       96.703    54242.947    32067.894     9351.516       12.393        4.783      389.731      115.042        0.087      349.024       29.145      855.488
06/10/2014  19:39:00     -321.751     -161.495       -9.474      195.814      217.011      107.055    38343.202    47093.820    11460.851       11.328        4.845      360.006      114.261        0.101      348.990       29.085      855.472
06/10/2014  19:40:00     -374.751     -172.172        3.797      174.321      173.526       86.455    30387.731    30111.120     7474.547       11.902        3.399      412.410       86.014        0.043      348.980       29.069      855.517
06/10/2014  19:41:00     -246.112     -168.476        3.057      219.702      157.819       87.369    48268.920    24906.948     7633.268        8.487        4.040      298.254      101.813        0.117      348.965       29.044      855.518
06/10/2014  19:42:00     -349.719     -144.957      -11.750      143.218      133.803       61.612    20511.539    17903.194     3796.046        9.283        2.111      378.571       62.231        0.027      348.970       29.052      855.536
06/10/2014  19:43:00     -194.604     -125.626       18.781      236.406      152.648       81.534    55887.656    23301.332     6647.811        6.991        4.292      231.630      124.920        0.291      348.966       29.047      855.537
06/10/2014  19:44:00     -235.575      -65.485       -5.647      125.545      121.441       57.883    15761.524    14747.901     3350.468        4.683        1.693      244.508       61.258        0.063      348.969       29.048      855.554
06/10/2014  19:45:00     -304.175     -109.870      -18.297      180.199      134.418       71.662    32471.508    18068.234     5135.389        8.029        2.784      323.410       70.568        0.048      348.965       29.046      855.569
06/10/2014  19:46:00     -356.794      -92.173       -2.386      189.855      140.427       82.949    36044.920    19719.677     6880.470        9.921        3.132      368.507       98.154        0.071      348.913       28.953      855.574
06/10/2014  19:47:00     -295.793     -106.702       -5.714      151.569      116.618       59.658    22973.247    13599.664     3559.058        6.951        2.007      314.450       64.131        0.042      348.921       28.967      855.592
06/10/2014  19:48:00     -236.781      -41.322       13.325      153.487      113.307       79.276    23558.347    12838.474     6284.741        5.031        2.134      240.360       92.377        0.148      348.922       28.968      855.598
06/10/2014  19:49:00     -222.313      -78.974      -15.198      137.170       75.566       53.217    18815.701     5710.246     2832.049        4.162        1.368      235.923       64.279        0.074      348.905       28.938      855.624
06/10/2014  19:50:00     -129.224      -86.537       14.071      107.690       93.458       50.688    11597.123     8734.403     2569.260        2.364        1.145      155.523       51.215        0.108      348.898       28.930      855.638
06/10/2014  19:51:00     -245.596      -92.907       -6.571      116.926      116.594       61.750    13671.634    13594.058     3813.082        5.003        1.554      262.582       70.644        0.072      348.871       28.880      855.642
06/10/2014  19:52:00     -302.928      -69.174      -11.110      260.556      159.973       73.489    67889.396    25591.224     5400.647        9.776        4.944      310.726       99.588        0.103      348.843       28.832      855.648
06/10/2014  19:53:00     -439.367     -121.095      -12.544      173.038      124.189       79.359    29942.067    15422.789     6297.861       12.975        2.583      455.749       88.798        0.038      348.817       28.785      855.667
06/10/2014  19:54:00     -218.648      -55.448        5.173      139.417      131.512       67.875    19437.237    17295.322     4607.020        4.612        2.067      225.569       72.142        0.102      348.813       28.780      855.678
06/10/2014  19:55:00     -204.134     -132.159       -2.815      134.471      115.001       64.192    18082.511    13225.239     4120.674        4.728        1.771      243.180       60.403        0.062      348.788       28.736      855.699
06/10/2014  19:56:00     -290.080     -120.576       -1.473      134.451      126.588       74.240    18077.177    16024.396     5511.504        6.914        1.981      314.141       75.864        0.058      348.761       28.689      855.713
06/10/2014  19:57:00     -262.748      -38.211       -4.776      151.243      158.664       81.199    22874.531    25174.288     6593.281        6.257        2.732      265.512       85.674        0.104      348.779       28.722      855.706
06/10/2014  19:58:00     -155.117      -45.093       11.334      114.808      108.536       62.018    13180.925    11779.998     3846.201        2.751        1.440      161.539       54.138        0.112      348.711       28.606      855.736
06/10/2014  19:59:00     -135.630      -66.045       13.674      139.287      121.922       65.049    19400.907    14864.983     4231.328        3.071        1.925      150.856       75.962        0.254      348.700       28.584      855.750
06/10/2014  20:00:00     -499.402     -142.485      -29.853      201.488      163.216       88.637    40597.231    26639.481     7856.555       17.283        3.755      519.331      103.841        0.040      348.707       28.599      855.743
06/10/2014  20:01:00     -317.927      -13.865        0.007      124.091      121.858       63.811    15398.576    14849.439     4071.859        6.779        1.716      318.229       61.315        0.037      348.684       28.556      855.770
06/10/2014  20:02:00     -272.963     -130.106       -4.893      128.415      110.283       55.188    16490.454    12162.443     3045.676        6.157        1.585      302.385       51.349        0.029      348.664       28.523      855.786
06/10/2014  20:03:00     -173.789      -22.898       -2.868      179.856       98.875       63.632    32348.265     9776.176     4048.986        3.845        2.309      175.291       69.968        0.159      348.672       28.536      855.785
06/10/2014  20:04:00     -433.641      -93.227      -27.416      170.681      123.894       65.468    29132.121    15349.816     4286.071       12.312        2.438      443.549       46.933        0.011      348.673       28.538      855.814
06/10/2014  20:05:00     -197.855      -81.155       -5.024       98.642      105.698       50.233     9730.322    11172.066     2523.310        3.459        1.171      213.852       47.002        0.048      348.674       28.539      855.839
06/10/2014  20:06:00     -209.840      -79.689       13.483      188.023      108.738       76.313    35352.635    11824.040     5823.615        5.177        2.650      224.462       89.617        0.159      348.626       28.457      855.842
06/10/2014  20:07:00     -223.217        4.953      -10.507      116.096       87.895       46.892    13478.310     7725.517     2198.860        3.668        1.170      223.272       48.062        0.046      348.606       28.421      855.876
06/10/2014  20:08:00     -189.011      -68.309        1.147      123.479       77.753       46.735    15247.107     6045.471     2184.135        3.193        1.174      200.976       51.342        0.065      348.621       28.449      855.885
06/10/2014  20:09:00     -232.658      -64.849      -13.039      158.981      114.317       67.194    25275.033    13068.452     4515.063        5.067        2.143      241.527       75.448        0.098      348.584       28.383      855.912
06/10/2014  20:10:00     -178.133      -49.632        3.065       99.080      118.297       52.809     9816.771    13994.209     2788.777        3.040        1.330      184.918       53.129        0.083      348.566       28.354      855.917
06/10/2014  20:11:00     -172.015      -24.669        9.634      102.205       66.351       55.374    10445.932     4402.443     3066.302        2.410        0.896      173.775       60.439        0.121      348.528       28.287      855.943
06/10/2014  20:12:00     -180.243      -91.772        7.707       87.878       87.455       44.957     7722.465     7648.419     2021.154        2.918        0.870      202.261       40.439        0.040      348.534       28.297      855.960
06/10/2014  20:13:00     -297.668      -51.346       -6.592      118.905      107.292       56.833    14138.473    11511.560     3229.940        6.008        1.444      302.064       53.552        0.031      348.511       28.256      855.974
06/10/2014  20:14:00     -187.779      -74.224        4.690      126.140       98.524       65.918    15911.255     9707.056     4345.128        3.537        1.498      201.916       64.625        0.102      348.493       28.226      855.992
06/10/2014  20:15:00     -176.589      -71.795       -7.134      124.727      102.452       66.433    15556.843    10496.432     4413.349        3.342        1.523      190.625       79.412        0.174      348.494       28.229      856.009
06/10/2014  20:16:00     -250.009       -8.689       -7.915       99.385      122.017       61.366     9877.405    14888.153     3765.833        4.558        1.427      250.160       46.208        0.034      348.484       28.209      856.022
06/10/2014  20:17:00     -162.305     -113.752       -1.171      132.887       93.963       62.145    17658.851     8829.126     3861.956        3.481        1.517      198.198       73.142        0.136      348.473       28.191      856.034
06/10/2014  20:18:00     -252.687      -72.996       -1.750      121.010      108.715       60.775    14643.306    11818.933     3693.545        4.966        1.508      263.019       64.348        0.060      348.454       28.159      856.034
06/10/2014  20:19:00     -152.237       -5.723        7.294      111.302       75.044       56.631    12388.246     5631.627     3207.064        2.224        1.061      152.345       60.869        0.160      348.390       28.049      856.038
06/10/2014  20:20:00     -178.883      -50.438        0.618      166.576      113.207       68.254    27747.450    12815.807     4658.630        3.988        2.261      185.858       76.530        0.170      348.425       28.110      856.030
06/10/2014  20:21:00     -268.288      -48.676      -20.551      134.504       92.986       63.028    18091.437     8646.476     3972.540        5.274        1.536      272.668       57.116        0.044      348.420       28.100      856.047
06/10/2014  20:22:00     -122.730      -68.361        5.065       98.695       86.056       53.618     9740.707     7405.605     2874.919        1.989        1.001      140.484       53.293        0.144      348.380       28.032      856.052
06/10/2014  20:23:00     -324.264     -143.754      -17.072       94.705      103.989       50.326     8968.982    10813.682     2532.754        7.421        1.116      354.701       45.568        0.017      348.399       28.062      856.056
06/10/2014  20:24:00     -331.379     -163.031      -26.094      134.801      132.262       64.994    18171.280    17493.131     4224.176        8.847        1.994      369.312       57.540        0.024      348.416       28.093      856.056
06/10/2014  20:25:00     -273.132      -80.040       -9.801      152.487      113.392       67.686    23252.265    12857.791     4581.451        6.089        2.035      284.618       67.086        0.056      348.373       28.019      856.067
06/10/2014  20:26:00     -215.033     -130.125       -6.002      130.674      115.693       58.447    17075.733    13384.780     3416.093        4.854        1.694      251.340       59.287        0.056      348.354       27.987      856.083
06/10/2014  20:27:00     -192.686      -96.613       -1.544      141.686      115.081       56.676    20074.980    13243.709     3212.123        4.149        1.827      215.550       64.597        0.090      348.338       27.958      856.090
06/10/2014  20:28:00     -154.602      -89.543        1.412      117.516       82.957       56.705    13810.086     6881.810     3215.405        2.791        1.195      178.661       46.449        0.068      348.270       27.840      856.112
06/10/2014  20:29:00     -236.086     -137.699       -7.037      137.510       92.885       58.710    18909.066     8627.622     3446.818        5.286        1.549      273.309       64.499        0.056      348.309       27.907      856.117
06/10/2014  20:30:00     -254.528     -184.277      -10.515      114.558      103.523       70.917    13123.545    10716.918     5029.182        6.386        1.443      314.233       66.847        0.045      348.292       27.876      856.134
06/10/2014  20:31:00     -200.331      -83.386       -5.445      148.362       86.781       55.202    22011.255     7530.875     3047.315        3.985        1.629      216.992       68.581        0.100      348.263       27.827      856.155
06/10/2014  20:32:00     -384.763      -20.574      -13.705      233.421      157.542       78.970    54485.195    24819.522     6236.338       11.708        4.277      385.313       94.933        0.061      348.258       27.818      856.173
06/10/2014  20:33:00     -290.006     -120.062      -11.847      176.513      118.721       70.040    31156.900    14094.764     4905.599        7.440        2.508      313.876       81.368        0.067      348.242       27.790      856.195
06/10/2014  20:34:00     -249.145      -90.737        3.247      163.450       99.068       61.090    26716.022     9814.463     3731.936        5.528        2.013      265.153       65.524        0.061      348.234       27.778      856.207
06/10/2014  20:35:00     -263.996      -62.275       -2.235      128.406      114.343       58.305    16488.128    13074.290     3399.433        5.326        1.648      271.242       59.218        0.048      348.199       27.717      856.224
06/10/2014  20:36:00     -305.624     -141.384      -16.850      149.183       87.643       62.409    22255.457     7681.244     3894.835        7.375        1.692      336.742       78.006        0.054      348.215       27.744      856.239
06/10/2014  20:37:00     -226.178      -82.623       11.249      147.591       89.853       56.785    21783.165     8073.556     3224.502        4.559        1.654      240.797       68.683        0.081      348.162       27.654      856.244
06/10/2014  20:38:00     -222.100     -121.583        4.606      148.548      127.308       79.527    22066.486    16207.440     6324.586        5.436        2.230      253.201       82.051        0.105      348.159       27.648      856.239
06/10/2014  20:39:00     -293.775     -115.398      -19.553      115.738      117.090       59.546    13395.225    13710.070     3545.721        6.532        1.533      315.627       54.751        0.030      348.158       27.647      856.249
06/10/2014  20:40:00     -231.285      -74.646       -3.008      166.757      133.392       77.835    27807.800    17793.462     6058.274        5.536        2.583      243.033       95.849        0.156      348.136       27.610      856.254
06/10/2014  20:41:00     -336.709     -125.805      -18.453      144.604      129.816       74.027    20910.233    16852.299     5480.049        8.638        2.162      359.444       61.138        0.029      348.148       27.629      856.259
06/10/2014  20:42:00     -233.845     -108.858       11.109      135.074      133.882       71.471    18245.063    17924.361     5108.121        5.396        2.064      257.941       72.213        0.078      348.109       27.562      856.285
06/10/2014  20:43:00     -352.780     -180.299      -12.122      147.245      128.794       69.274    21681.021    16587.796     4798.920       10.008        2.153      396.184       64.946        0.027      348.112       27.566      856.279
06/10/2014  20:44:00     -256.396     -105.214        7.708      151.520      107.401       58.669    22958.305    11535.014     3442.085        5.740        1.897      277.144       65.560        0.056      348.058       27.472      856.296
06/10/2014  20:45:00     -156.798     -104.677        8.902      153.757      138.544       82.122    23641.188    19194.398     6744.010        4.259        2.479      188.528       90.224        0.229      348.042       27.447      856.298
06/10/2014  20:46:00     -333.925     -104.047       -9.973      162.303      143.994       78.547    26342.252    20734.366     6169.649        8.783        2.662      349.759       80.956        0.054      348.061       27.478      856.314
06/10/2014  20:47:00     -335.744     -206.225      -11.644      155.307       98.197       65.631    24120.388     9642.619     4307.387        9.672        1.904      394.021       74.640        0.036      348.055       27.467      856.327
06/10/2014  20:48:00     -219.900      -95.167      -12.069      145.435      122.369       79.966    21151.286    14974.256     6394.637        5.003        2.126      239.609       74.603        0.097      348.016       27.401      856.315
06/10/2014  20:49:00     -119.240      -61.889       35.245      146.163      126.245       79.344    21363.539    15937.812     6295.477        3.144        2.180      134.344       90.394        0.453      347.976       27.333      856.342
06/10/2014  20:50:00     -264.489     -148.967       -4.727      193.793      120.460       73.570    37555.775    14510.688     5412.506        7.481        2.874      303.555       94.874        0.098      347.999       27.372      856.349
06/10/2014  20:51:00     -325.014     -168.269      -16.282      139.823      143.408       71.605    19550.412    20565.788     5127.324        8.972        2.262      365.990       67.725        0.034      347.999       27.372      856.363
06/10/2014  20:52:00     -304.177     -127.144       -2.419      137.678      114.002       59.035    18955.224    12996.554     3485.158        7.206        1.772      329.680       62.976        0.036      347.976       27.333      856.373
06/10/2014  20:53:00     -371.656     -175.134       -3.919      233.257      139.981       96.108    54408.696    19594.635     9236.783       12.601        4.162      410.853      107.529        0.068      347.969       27.320      856.365
06/10/2014  20:54:00     -270.726     -141.089       20.433      209.205      109.640      100.799    43766.619    12020.845    10160.396        7.977        3.297      305.284      109.108        0.128      347.967       27.317      856.374
06/10/2014  20:55:00     -421.451     -120.455      -15.468      162.757      145.037       71.675    26489.737    21035.767     5137.364       12.251        2.633      438.327       75.966        0.030      347.964       27.312      856.376
06/10/2014  20:56:00     -334.595     -156.673       -3.038      199.460      132.686       80.536    39784.216    17605.530     6486.068       10.018        3.194      369.459       80.932        0.048      347.957       27.301      856.378
06/10/2014  20:57:00     -291.431     -199.879        7.556      188.439      186.102      112.737    35509.404    34634.057    12709.725       10.388        4.143      353.389      125.839        0.127      347.971       27.324      856.370
06/10/2014  20:58:00     -286.799     -134.424       -2.779      148.314      150.236       74.525    21997.114    22570.888     5553.919        7.522        2.506      316.739       85.830        0.073      347.940       27.269      856.401
06/10/2014  20:59:00     -329.987     -175.201      -14.939      172.466      134.051       87.139    29744.624    17969.793     7593.171        9.755        2.765      373.613       79.617        0.045      347.931       27.254      856.407
06/10/2014  21:00:00     -239.198      -98.394        4.538      163.321      126.095       63.671    26673.897    15900.058     4054.046        5.676        2.331      258.644       68.395        0.070      347.915       27.227      856.442
06/10/2014  21:01:00     -208.093     -143.535       -4.703      143.298      121.011       69.429    20534.279    14643.748     4820.366        5.196        2.000      252.795       79.280        0.098      347.903       27.207      856.441
06/10/2014  21:02:00     -149.608      -77.906        1.572      129.146       91.214       58.756    16678.568     8319.970     3452.255        2.845        1.423      168.677       70.308        0.174      347.881       27.169      856.473
06/10/2014  21:03:00     -244.882     -101.902       -1.307      144.523      114.188       63.177    20887.018    13038.855     3991.327        5.413        1.896      265.238       70.473        0.071      347.864       27.139      856.490
06/10/2014  21:04:00     -221.662      -83.871        3.995      126.560      150.453       64.101    16017.488    22635.979     4108.947        4.947        2.138      236.999       59.399        0.063      347.881       27.167      856.492
06/10/2014  21:05:00     -236.325      -61.771       -9.596      108.933       98.410       52.890    11866.384     9684.607     2797.347        4.205        1.217      244.265       52.935        0.047      347.845       27.106      856.506
06/10/2014  21:06:00     -198.078      -61.079       -6.181      128.124      122.220       59.922    16415.877    14937.830     3590.664        3.897        1.747      207.281       56.894        0.075      347.843       27.103      856.525
06/10/2014  21:07:00     -227.709      -47.933        0.683      146.125       82.514       56.228    21352.399     6808.550     3161.584        4.273        1.566      232.700       74.037        0.101      347.828       27.074      856.525
06/10/2014  21:08:00     -181.769      -61.971        0.818       96.407       70.663       51.276     9294.366     4993.321     2629.245        2.690        0.846      192.043       52.302        0.074      347.816       27.054      856.547
06/10/2014  21:09:00     -346.343      -70.721      -24.442      151.793      118.252       72.003    23041.059    13983.459     5184.488        8.387        2.110      353.490       74.854        0.045      347.810       27.045      856.554
06/10/2014  21:10:00     -183.621     -100.564       13.708      160.120      121.365       77.095    25638.397    14729.459     5943.642        4.516        2.316      209.356       76.509        0.134      347.766       26.969      856.569
06/10/2014  21:11:00     -254.960     -114.059       -9.713      140.609      142.855       70.163    19770.894    20407.412     4922.845        6.160        2.255      279.310       76.566        0.075      347.776       26.988      856.581
06/10/2014  21:12:00     -360.641     -106.277      -34.103      159.127      109.586       78.268    25321.547    12009.096     6125.860        9.298        2.173      375.975       84.385        0.050      347.805       27.037      856.577
06/10/2014  21:13:00     -289.316      -78.768       -8.420      175.827      164.427       73.058    30915.309    27036.127     5337.512        7.662        3.164      299.846       82.617        0.076      347.783       26.999      856.594
06/10/2014  21:14:00     -311.630      -69.723      -13.300      149.218      104.518       60.210    22265.985    10924.095     3625.194        6.948        1.841      319.335       65.734        0.042      347.776       26.987      856.596
06/10/2014  21:15:00     -225.754      -50.616        3.996       96.191      102.857       48.991     9252.726    10579.594     2400.167        3.788        1.112      231.359       33.942        0.022      347.745       26.934      856.619
06/10/2014  21:16:00     -358.424     -105.667       -8.095      177.922      134.670       77.004    31656.339    18136.125     5929.687        9.770        2.786      373.675       78.613        0.044      347.764       26.967      856.621
06/10/2014  21:17:00     -299.577      -89.918       -6.037      157.979      144.023       65.442    24957.478    20742.573     4282.695        7.392        2.499      312.780       71.662        0.052      347.771       26.978      856.618
06/10/2014  21:18:00     -414.134      -12.434        0.328      175.282      117.544       72.776    30723.701    13816.696     5296.393       11.074        2.492      414.321       75.320        0.033      347.769       26.975      856.626
06/10/2014  21:19:00     -254.609      -29.402       -4.730      139.247       97.487       58.471    19389.662     9503.677     3418.860        4.901        1.616      256.301       69.953        0.074      347.698       26.853      856.652
06/10/2014  21:20:00     -231.257      -65.851        0.486      156.737       89.905       57.722    24566.472     8082.850     3331.826        4.689        1.799      240.450       61.259        0.065      347.690       26.837      856.678
06/10/2014  21:21:00     -420.099      -21.132      -26.997      162.662       99.430       74.630    26458.811     9886.307     5569.682       10.978        2.096      420.630       86.992        0.043      347.732       26.911      856.688
06/10/2014  21:22:00     -283.073      -33.327      -19.431      112.487       74.925       57.635    12653.292     5613.829     3321.739        5.160        1.079      285.028       52.605        0.034      347.701       26.858      856.710
06/10/2014  21:23:00     -240.539      -90.974       -0.518      131.641       96.402       53.259    17329.226     9293.414     2836.520        4.779        1.473      257.168       50.168        0.038      347.656       26.779      856.719
06/10/2014  21:24:00     -306.345      -11.572       -6.049      104.944       95.032       56.001    11013.221     9031.035     3136.072        5.860        1.159      306.563       44.526        0.021      347.656       26.780      856.739
06/10/2014  21:25:00     -250.032      -78.244      -18.416       83.163       83.859       51.297     6916.002     7032.399     2631.386        4.278        0.829      261.989       36.366        0.019      347.645       26.761      856.755
06/10/2014  21:26:00     -204.666      -23.559       -3.001       97.349       84.092       58.825     9476.785     7071.473     3460.349        3.123        1.000      206.017       49.619        0.058      347.601       26.684      856.774
06/10/2014  21:27:00     -253.073      -76.665       -9.183      112.868      113.352       57.937    12739.224    12848.739     3356.681        4.947        1.447      264.431       57.125        0.047      347.636       26.745      856.793
06/10/2014  21:28:00     -176.398      -97.557       -3.367      141.162       98.203       68.897    19926.653     9643.837     4746.828        3.748        1.716      201.578       54.212        0.072      347.642       26.756      856.794
06/10/2014  21:29:00     -232.937      -56.668      -10.440      106.579      119.049       56.206    11358.998    14172.668     3159.138        4.313        1.435      239.731       49.266        0.042      347.606       26.693      856.801
06/10/2014  21:30:00     -300.183      -95.760      -22.565      120.884      111.717       53.627    14612.852    12480.628     2875.829        6.487        1.498      315.087       57.333        0.033      347.633       26.739      856.811
06/10/2014  21:31:00     -368.950      -41.610       -8.375      126.939      110.042       66.895    16113.516    12109.217     4474.954        8.531        1.635      371.289       60.680        0.027      347.608       26.699      856.838
06/10/2014  21:32:00     -296.408      -59.098      -30.735      144.286      109.207       54.261    20818.369    11926.094     2944.256        6.399        1.784      302.242       44.184        0.021      347.592       26.671      856.866
06/10/2014  21:33:00     -192.468      -37.554       -2.460      101.507       72.630       50.283    10303.657     5275.091     2528.347        2.828        0.905      196.097       43.724        0.050      347.492       26.497      856.892
06/10/2014  21:34:00     -205.031       17.045       -9.774       98.622       82.087       55.434     9726.336     6738.239     3072.958        3.098        0.977      205.738       43.322        0.044      347.523       26.550      856.902
06/10/2014  21:35:00     -292.644     -113.656      -16.333      102.680       97.393       51.012    10543.126     9485.482     2602.222        6.072        1.132      313.940       39.650        0.016      347.514       26.535      856.912
06/10/2014  21:36:00     -247.051     -106.297        4.650      125.598       88.484       51.673    15774.918     7829.395     2670.078        4.931        1.314      268.949       54.216        0.041      347.451       26.427      856.923
06/10/2014  21:37:00     -282.056      -25.550      -12.864       99.542       97.221       42.788     9908.579     9451.950     1830.827        5.078        1.060      283.211       33.089        0.014      347.451       26.424      856.935
06/10/2014  21:38:00     -305.831      -22.273      -20.492      102.642       91.397       43.130    10535.297     8353.452     1860.223        5.760        1.037      306.641       52.288        0.029      347.470       26.457      856.958
06/10/2014  21:39:00     -296.170       -6.364      -27.664      104.585      126.032       64.564    10938.061    15883.993     4168.479        5.975        1.550      296.238       62.755        0.045      347.438       26.402      856.978
06/10/2014  21:40:00     -195.595       -8.414       -7.369      103.559       81.487       43.255    10724.475     6640.154     1870.984        2.881        0.962      195.776       50.816        0.067      347.376       26.297      856.992
06/10/2014  21:41:00     -330.486      -40.967      -27.597       74.930       97.608       43.988     5614.555     9527.299     1934.949        6.437        0.854      333.016       35.717        0.012      347.415       26.363      856.992
06/10/2014  21:42:00     -209.413      -84.163       -3.960       79.051       76.397       36.458     6249.010     5836.572     1329.183        3.218        0.671      225.692       37.962        0.028      347.325       26.209      857.022
06/10/2014  21:43:00     -132.266      -41.830        6.191      152.298       73.146       59.642    23194.815     5350.312     3557.127        2.569        1.605      138.723       81.972        0.349      347.329       26.218      857.024
06/10/2014  21:44:00     -223.524      -70.909      -12.960       71.124       71.767       35.964     5058.607     5150.448     1293.435        3.333        0.575      234.502       37.266        0.025      347.304       26.176      857.036
06/10/2014  21:45:00     -202.471      -43.525      -12.445       96.045       74.669       43.870     9224.652     5575.447     1924.594        2.988        0.836      207.097       35.582        0.030      347.285       26.140      857.051
06/10/2014  21:46:00     -161.164      -39.857      -10.458       82.424       95.433       49.413     6793.795     9107.513     2441.680        2.300        0.917      166.019       51.512        0.096      347.279       26.132      857.064
06/10/2014  21:47:00     -217.614      -48.346      -14.744      121.129       92.932       46.116    14672.196     8636.425     2126.728        3.767        1.272      222.920       42.042        0.036      347.329       26.215      857.079
06/10/2014  21:48:00     -182.365      -64.081      -14.542       84.510       73.697       43.729     7141.934     5431.211     1912.209        2.603        0.724      193.296       37.517        0.038      347.268       26.111      857.095
06/10/2014  21:49:00     -200.187      -20.706      -10.386      101.927       68.272       38.000    10389.170     4661.036     1443.997        2.855        0.825      201.255       40.004        0.040      347.261       26.101      857.101
06/10/2014  21:50:00     -263.090      -21.787       -3.972      110.429       65.789       46.444    12194.490     4328.213     2157.005        4.419        0.934      263.991       43.426        0.027      347.342       26.239      857.108
06/10/2014  21:51:00     -162.562      -34.898       -5.515       96.177       82.464       41.810     9250.054     6800.375     1748.059        2.273        0.890      166.266       50.470        0.092      347.229       26.045      857.101
06/10/2014  21:52:00     -200.509      -55.769       -5.121      113.966       62.806       45.099    12988.273     3944.629     2033.946        3.115        0.948      208.121       49.392        0.056      347.255       26.088      857.105
06/10/2014  21:53:00     -171.527      -51.933       -5.365       58.649       68.949       33.662     3439.672     4753.968     1133.135        2.074        0.466      179.216       29.612        0.027      347.245       26.072      857.122
06/10/2014  21:54:00     -147.087      -38.006       -1.441      119.688      108.372       63.490    14325.306    11744.486     4031.027        2.659        1.505      151.918       57.536        0.143      347.262       26.102      857.126
06/10/2014  21:55:00     -159.832      -28.330       11.977       98.881       79.093       44.165     9777.423     6255.686     1950.543        2.223        0.899      162.323       49.575        0.093      347.246       26.074      857.144
06/10/2014  21:56:00     -234.584      -19.718        7.301      142.630       74.144       58.855    20343.271     5497.401     3463.874        4.238        1.465      235.411       70.908        0.091      347.250       26.081      857.153
06/10/2014  21:57:00     -218.249      -37.252       -5.648      110.484       64.316       52.327    12206.756     4136.493     2738.139        3.406        0.954      221.405       61.310        0.077      347.241       26.065      857.156
06/10/2014  21:58:00     -225.455      -65.779      -23.255       98.371       88.185       47.717     9676.816     7776.538     2276.924        3.771        0.987      234.855       47.865        0.042      347.256       26.090      857.172
06/10/2014  21:59:00     -269.187      -37.014       -4.799      123.960       79.572       51.048    15366.202     6331.631     2605.859        4.908        1.215      271.720       56.969        0.044      347.254       26.087      857.184
06/10/2014  22:00:00     -263.564      -63.950      -17.027       92.036       70.253       42.741     8470.538     4935.431     1826.773        4.454        0.762      271.211       49.714        0.034      347.281       26.131      857.187
06/10/2014  22:01:00     -234.124     -105.926      -12.354      106.241      102.819       49.961    11287.172    10571.649     2496.120        4.527        1.218      256.972       47.130        0.034      347.239       26.061      857.193
06/10/2014  22:02:00     -217.851      -33.367      -18.611      113.976       81.020       56.834    12990.543     6564.263     3230.112        3.585        1.139      220.392       64.523        0.086      347.257       26.092      857.192
06/10/2014  22:03:00     -193.503      -74.500       -7.525       69.651       73.619       45.523     4851.255     5419.761     2072.385        2.769        0.617      207.349       40.445        0.038      347.210       26.011      857.188
06/10/2014  22:04:00     -173.251      -79.138        7.172       81.511       68.690       46.650     6644.121     4718.288     2176.191        2.493        0.677      190.470       42.300        0.049      347.193       25.981      857.199
06/10/2014  22:05:00     -193.718      -32.516       -3.400       68.259       50.535       28.966     4659.331     2553.771      839.043        2.332        0.403      196.428       30.678        0.024      347.217       26.023      857.206
06/10/2014  22:06:00     -270.023      -76.576      -32.289       92.009       96.306       47.946     8465.726     9274.868     2298.796        4.993        1.002      280.671       39.875        0.020      347.266       26.107      857.214
06/10/2014  22:07:00     -100.689      -73.954       13.445       60.793       87.589       45.570     3695.811     7671.830     2076.597        1.461        0.672      124.930       28.893        0.053      347.155       25.918      857.224
06/10/2014  22:08:00     -157.834      -11.058       -5.187       68.561       66.133       35.688     4700.595     4373.545     1273.612        1.770        0.517      158.221       35.349        0.050      347.159       25.926      857.240
06/10/2014  22:09:00     -159.065       31.835       -9.114       44.353       35.041       28.558     1967.154     1227.868      815.555        1.520        0.201      162.219       23.140        0.020      347.114       25.849      857.265
06/10/2014  22:10:00      -73.709       23.955       -0.891       46.082       38.947       22.523     2123.559     1516.847      507.297        0.508        0.207       77.504       17.443        0.051      347.027       25.699      857.297
06/10/2014  22:11:00      -31.773       44.059      -11.935       20.745       32.815       14.193      430.367     1076.845      201.438        0.240        0.085       54.320        9.981        0.034      347.001       25.655      857.308
06/10/2014  22:12:00      -51.549       87.791      -14.688       23.978       26.607       17.726      574.934      707.912      314.198        0.609        0.080      101.807       12.255        0.014      347.065       25.763      857.323
06/10/2014  22:13:00      -96.320      151.701      -21.050       42.828       58.599       25.876     1834.238     3433.857      669.566        1.933        0.297      179.696       22.819        0.016      347.227       26.042      857.343
06/10/2014  22:14:00     -156.296       47.042      -17.006       54.799       45.524       28.091     3002.924     2072.455      789.103        1.640        0.293      163.222       17.520        0.012      347.273       26.119      857.363
06/10/2014  22:15:00     -164.477      -37.460      -26.534       42.193       33.705       26.851     1780.230     1136.032      720.977        1.640        0.182      168.689       22.482        0.018      347.319       26.202      857.366
06/10/2014  22:16:00      -81.263      -46.964        0.600       80.655       51.730       30.490     6505.244     2675.993      929.663        0.946        0.506       93.858       39.461        0.177      347.184       25.969      857.390
06/10/2014  22:17:00      -61.819       30.471      -13.745       29.847       52.665       23.197      890.860     2773.604      538.079        0.457        0.210       68.921       19.795        0.082      347.106       25.837      857.435
06/10/2014  22:18:00     -131.698       -0.387      -11.943       36.740       43.861       22.973     1349.839     1923.746      527.776        1.064        0.190      131.698       17.029        0.017      347.146       25.903      857.451
06/10/2014  22:19:00      -76.666       13.402        1.478       56.038       45.965       24.104     3140.215     2112.758      581.024        0.595        0.292       77.828       27.943        0.129      347.069       25.771      857.464
06/10/2014  22:20:00     -128.770      -49.052       -8.384       67.377       84.832       42.371     4539.669     7196.540     1795.328        1.629        0.677      137.797       35.457        0.066      347.021       25.686      857.471
06/10/2014  22:21:00      -96.942      -33.573        9.949       62.688       57.380       30.756     3929.822     3292.443      945.916        0.939        0.408      102.591       28.679        0.078      346.913       25.502      857.467
06/10/2014  22:22:00      -71.193      -34.416        9.042       49.682       52.763       26.266     2468.255     2783.907      689.904        0.614        0.297       79.075       23.362        0.087      346.877       25.442      857.457
06/10/2014  22:23:00      -57.549       12.074        3.371       52.719       35.049       20.795     2779.340     1228.423      432.438        0.395        0.222       58.802       19.740        0.113      346.817       25.338      857.484
06/10/2014  22:24:00      -80.072       14.258       -4.236       59.275       43.353       27.455     3513.555     1879.465      753.798        0.639        0.307       81.331       21.908        0.073      346.760       25.240      857.508
06/10/2014  22:25:00     -108.219       41.079      -12.782       36.091       50.310       25.943     1302.560     2531.073      673.024        0.903        0.225      115.754       21.623        0.035      346.893       25.469      857.511
06/10/2014  22:26:00     -122.389      100.035      -15.778       60.966       94.913       37.130     3716.910     9008.565     1378.657        1.967        0.705      158.070       38.085        0.058      347.006       25.661      857.507
06/10/2014  22:27:00     -113.238       51.135      -20.316       49.444      102.344       29.523     2444.729    10474.379      871.582        1.482        0.690      124.248       33.464        0.073      346.911       25.498      857.524
06/10/2014  22:28:00      -56.136       43.505        2.513       54.231       69.230       32.270     2941.015     4792.770     1041.363        0.691        0.439       71.021       27.252        0.147      346.874       25.434      857.521
06/10/2014  22:29:00      -82.773       22.350      -18.491       49.074       36.037       21.903     2408.301     1298.686      479.747        0.594        0.209       85.738       20.736        0.058      346.832       25.362      857.539
06/10/2014  22:30:00      -56.470       39.704       -1.015       34.973       41.929       25.354     1223.130     1758.003      642.824        0.419        0.181       69.031       20.753        0.090      346.835       25.369      857.557
06/10/2014  22:31:00     -116.117       59.940      -18.351       45.731       35.637       32.529     2091.344     1270.009     1058.144        1.092        0.221      130.675       26.867        0.042      347.010       25.670      857.581
06/10/2014  22:32:00      -84.912       49.536      -11.347       49.000       37.397       26.462     2400.975     1398.539      700.256        0.715        0.225       98.305       26.854        0.075      347.001       25.654      857.593
06/10/2014  22:33:00      -63.471       12.870       -2.182       48.987       37.990       30.504     2399.745     1443.258      930.518        0.449        0.239       64.763       27.715        0.183      347.070       25.774      857.588
06/10/2014  22:34:00      -58.837       21.641       -8.326       45.837       34.291       25.066     2101.040     1175.891      628.295        0.395        0.195       62.690       17.114        0.075      346.964       25.590      857.598
06/10/2014  22:35:00      -73.987       -3.463       -8.907       60.055       56.887       42.240     3606.662     3236.080     1784.214        0.709        0.431       74.068       38.663        0.272      346.903       25.484      857.603
06/10/2014  22:36:00     -115.997       29.413       -1.392       70.715       58.416       38.472     5000.554     3412.473     1480.118        1.211        0.495      119.668       25.613        0.046      346.915       25.505      857.610
06/10/2014  22:37:00     -179.081       48.999      -15.490      137.848       99.111       63.394    19002.117     9823.089     4018.844        3.377        1.642      185.663       69.297        0.139      346.881       25.444      857.616
06/10/2014  22:38:00      -97.549       79.002      -21.182       56.760       88.844       39.857     3221.658     7893.174     1588.601        1.445        0.635      125.527       29.977        0.057      346.817       25.337      857.623
06/10/2014  22:39:00     -133.789       82.356      -11.048       77.553       97.694       50.697     6014.455     9544.091     2570.210        2.146        0.906      157.105       52.629        0.112      346.768       25.251      857.629
06/10/2014  22:40:00     -200.766      100.645      -22.304       98.283       71.965       47.395     9659.531     5179.028     2246.326        3.401        0.854      224.580       39.177        0.030      346.789       25.287      857.630
06/10/2014  22:41:00     -168.939       45.106      -32.565       75.889       90.639       46.737     5759.109     8215.399     2184.348        2.389        0.808      174.857       40.650        0.054      346.787       25.283      857.621
06/10/2014  22:42:00     -128.114       35.205      -20.915       57.437       71.448       30.525     3299.057     5104.851      931.786        1.371        0.467      132.863       28.079        0.045      346.677       25.097      857.617
06/10/2014  22:43:00     -108.113      -14.014        1.630       49.575       51.830       30.273     2457.643     2686.341      916.440        0.897        0.303      109.017       24.215        0.049      346.635       25.024      857.622
06/10/2014  22:44:00     -131.631       40.008      -20.114       41.551       50.584       28.495     1726.458     2558.781      811.944        1.221        0.255      137.577       11.473        0.007      346.498       24.789      857.629
06/10/2014  22:45:00     -122.297       10.729      -11.586       72.610      104.912       49.189     5272.252    11006.428     2419.559        1.695        0.935      122.767       48.578        0.157      346.555       24.886      857.634
06/10/2014  22:46:00     -135.034       -8.247      -13.107       76.680       57.703       39.196     5879.860     3329.687     1536.362        1.461        0.537      135.286       40.850        0.091      346.521       24.827      857.652
06/10/2014  22:47:00     -111.051       41.588      -12.552       62.068       71.467       40.477     3852.464     5107.499     1638.415        1.241        0.530      118.582       24.765        0.044      346.506       24.802      857.661
06/10/2014  22:48:00     -102.807       60.495      -13.422       52.348       67.594       37.196     2740.359     4568.952     1383.551        1.155        0.435      119.285       24.419        0.042      346.503       24.797      857.673
06/10/2014  22:49:00      -91.795       13.747      -10.614       32.948       45.017       29.093     1085.543     2026.499      846.410        0.634        0.198       92.818       20.809        0.050      346.503       24.800      857.703
06/10/2014  22:50:00     -130.071       30.290      -33.998       67.177       61.104       40.604     4512.712     3733.657     1648.714        1.444        0.495      133.551       38.618        0.084      346.508       24.803      857.718
06/10/2014  22:51:00     -105.704       30.934      -20.558       40.687       48.870       26.672     1655.469     2388.293      711.394        0.865        0.238      110.137       20.956        0.036      346.513       24.814      857.723
06/10/2014  22:52:00      -86.376       69.945      -14.998       49.918       66.442       31.463     2491.775     4414.551      989.928        1.024        0.395      111.145       20.549        0.034      346.503       24.798      857.761
06/10/2014  22:53:00      -86.054       41.156       -5.311       61.888       54.304       42.047     3830.179     2948.911     1767.958        0.884        0.427       95.389       37.910        0.158      346.509       24.807      857.782
06/10/2014  22:54:00     -124.568       51.966      -19.657       74.454       51.723       28.683     5543.373     2675.278      822.689        1.382        0.452      134.973       37.944        0.079      346.581       24.930      857.784
06/10/2014  22:55:00     -115.129      129.250      -15.002      100.236      116.194       58.136    10047.257    13501.076     3379.752        2.855        1.346      173.091       57.973        0.112      346.726       25.178      857.789
06/10/2014  22:56:00     -133.517       24.575      -15.126       54.907      108.198       45.902     3014.825    11706.750     2107.009        1.774        0.841      135.759       30.038        0.049      346.704       25.142      857.810
06/10/2014  22:57:00      -52.554      176.860      -21.636       46.849       63.560       36.930     2194.858     4039.932     1363.837        2.105        0.380      184.503       25.444        0.019      346.766       25.248      857.827
06/10/2014  22:58:00      -71.485      103.511      -14.274       45.651       71.207       28.300     2084.034     5070.368      800.882        1.199        0.398      125.796       23.238        0.034      346.741       25.206      857.836
06/10/2014  22:59:00      -80.247      153.532      -20.181       50.003       46.950       32.706     2500.294     2204.313     1069.712        1.810        0.289      173.239       25.879        0.022      346.651       25.051      857.843
06/10/2014  23:00:00      -70.062      146.626       -9.108       52.691       63.169       32.229     2776.355     3990.273     1038.701        1.715        0.390      162.504       28.674        0.031      346.582       24.932      857.859
06/10/2014  23:01:00     -141.626       76.900      -26.637       43.754       72.388       33.080     1914.413     5240.037     1094.319        1.746        0.412      161.157       25.861        0.026      346.674       25.091      857.866
06/10/2014  23:02:00      -99.958       50.725      -11.470       54.063       42.909       21.741     2922.765     1841.150      472.652        0.897        0.262      112.092       22.797        0.041      346.584       24.936      857.871
06/10/2014  23:03:00      -95.183       76.681       -7.627       50.505       66.659       36.522     2550.706     4443.451     1333.846        1.166        0.416      122.228       35.672        0.085      346.564       24.902      857.893
06/10/2014  23:04:00     -136.445      126.924      -12.953       61.212       79.364       45.914     3746.959     6298.683     2108.099        2.352        0.608      186.352       41.274        0.049      346.565       24.901      857.899
06/10/2014  23:05:00     -142.550      105.550      -19.582      114.379       67.124       44.883    13082.550     4505.649     2014.449        2.572        0.980      177.373       45.647        0.066      346.564       24.898      857.905
06/10/2014  23:06:00     -134.058      111.065      -22.240       73.707      110.414       41.117     5432.679    12191.267     1690.580        2.505        0.966      174.089       49.503        0.081      346.562       24.896      857.911
06/10/2014  23:07:00     -164.806       53.188      -16.871       86.531       75.272       42.236     7487.601     5665.836     1783.883        2.260        0.747      173.176       40.978        0.056      346.557       24.886      857.927
06/10/2014  23:08:00     -107.817       33.289       -1.141       56.039       92.195       34.905     3140.334     8499.980     1218.362        1.279        0.643      112.839       37.855        0.113      346.476       24.749      857.944
06/10/2014  23:09:00     -162.852      118.372      -32.632       64.282       73.000       39.178     4132.153     5329.020     1534.954        2.630        0.550      201.328       30.579        0.023      346.494       24.779      857.950
06/10/2014  23:10:00     -170.537       76.846      -21.347       85.368       47.406       48.766     7287.748     2247.350     2378.134        2.368        0.596      187.051       38.804        0.043      346.491       24.775      857.949
06/10/2014  23:11:00     -159.579       66.671      -28.453      119.622       84.560       48.592    14309.327     7150.327     2361.175        2.727        1.191      172.946       40.263        0.054      346.514       24.814      857.957
06/10/2014  23:12:00     -208.205      120.894      -28.297      112.904       92.790       50.732    12747.319     8609.946     2573.752        4.134        1.197      240.759       52.433        0.047      346.472       24.741      857.952
06/10/2014  23:13:00     -133.036       15.583       -6.736       60.681       88.028       41.243     3682.210     7748.885     1700.997        1.556        0.657      133.946       32.802        0.060      346.431       24.672      857.928
06/10/2014  23:14:00     -154.924       62.311      -30.795       67.550       64.184       30.247     4563.053     4119.546      914.887        1.921        0.480      166.986       30.020        0.032      346.383       24.591      857.949
06/10/2014  23:15:00     -243.122      164.228      -43.961      103.978      101.346       53.122    10811.346    10271.089     2821.898        5.595        1.195      293.393       45.932        0.025      346.433       24.672      857.952
06/10/2014  23:16:00     -157.554        1.022      -11.186       73.509       90.812       53.688     5403.535     8246.771     2882.448        2.074        0.827      157.558       26.588        0.028      346.363       24.556      857.941
06/10/2014  23:17:00     -281.995      116.883      -36.914      139.003       72.441       46.577    19321.717     5247.654     2169.424        6.064        1.337      305.259       52.361        0.029      346.343       24.519      857.955
06/10/2014  23:18:00     -199.901       83.460      -40.779      111.732       86.601       45.270    12484.136     7499.775     2049.400        3.531        1.102      216.624       55.925        0.067      346.312       24.466      857.955
06/10/2014  23:19:00     -220.259      -11.520      -32.170      110.317       88.604       49.652    12169.928     7850.592     2465.293        3.608        1.124      220.560       50.356        0.052      346.304       24.453      857.944
06/10/2014  23:20:00     -203.043       85.413      -30.172      102.668      113.860       55.455    10540.814    12964.139     3075.284        3.800        1.329      220.277       65.101        0.087      346.270       24.395      857.943
06/10/2014  23:21:00     -117.473       -3.149      -14.899       64.341       57.211       45.253     4139.789     3273.056     2047.879        1.174        0.473      117.515       27.248        0.054      346.192       24.261      857.943
06/10/2014  23:22:00     -138.116      -58.553      -15.176       58.105       51.544       34.788     3376.162     2656.734     1210.179        1.499        0.362      150.015       19.899        0.018      346.189       24.256      857.930
06/10/2014  23:23:00     -142.490      -25.500      -23.628       88.107       69.393       45.421     7762.852     4815.355     2063.096        1.807        0.732      144.754       46.421        0.103      346.164       24.213      857.935
06/10/2014  23:24:00     -148.622       60.622      -29.800       70.840       51.204       34.555     5018.344     2621.884     1194.080        1.774        0.442      160.510       15.693        0.010      346.142       24.173      857.925
06/10/2014  23:25:00     -185.121      -31.191      -16.125       87.905       77.846       52.858     7727.270     6060.032     2793.929        2.604        0.829      187.730       53.934        0.083      346.085       24.075      857.921
06/10/2014  23:26:00     -142.219       -8.261      -15.546       71.796       77.437       41.608     5154.614     5996.505     1731.192        1.671        0.644      142.458       35.804        0.063      346.020       23.966      857.924
06/10/2014  23:27:00     -164.881       -9.191      -26.413       70.574       74.565       35.932     4980.622     5559.902     1291.129        1.990        0.592      165.137       23.007        0.019      346.028       23.979      857.915
06/10/2014  23:28:00     -191.441      -19.680      -20.856       95.333       78.349       43.934     9088.355     6138.580     1930.205        2.731        0.858      192.450       48.918        0.065      345.995       23.922      857.906
06/10/2014  23:29:00     -140.743       32.922      -23.974       74.696       54.234       44.465     5579.430     2941.358     1977.104        1.598        0.525      144.542       44.487        0.095      345.995       23.922      857.918
06/10/2014  23:30:00     -119.547       35.222      -19.025       56.955       81.847       46.037     3243.924     6698.940     2119.424        1.398        0.603      124.627       36.671        0.087      345.962       23.868      857.917
06/10/2014  23:31:00     -122.384       -3.926       -6.735       54.957       58.153       33.245     3020.219     3381.762     1105.222        1.127        0.375      122.447       27.364        0.050      345.914       23.785      857.921
06/10/2014  23:32:00      -81.379       29.076       -6.604       59.785       70.578       37.364     3574.285     4981.316     1396.042        0.873        0.498       86.417       26.929        0.097      345.967       23.876      857.941
06/10/2014  23:33:00      -66.651      124.571       -3.786       47.352       51.799       42.030     2242.259     2683.141     1766.521        1.333        0.335      141.281       33.415        0.056      345.951       23.849      857.934
06/10/2014  23:34:00      -52.579      165.631      -11.931       79.908       57.471       40.915     6385.363     3302.875     1674.053        2.085        0.568      173.777       41.289        0.056      346.008       23.945      857.958
06/10/2014  23:35:00       -3.835       44.172       10.221       21.386       36.911       25.750      457.374     1362.447      663.045        0.228        0.124       44.338       21.351        0.232      345.938       23.827      857.968
06/10/2014  23:36:00      -14.482       65.557       -4.300       48.404       39.615       27.882     2342.900     1569.342      777.380        0.461        0.234       67.137       15.456        0.053      346.036       23.995      857.971
06/10/2014  23:37:00      -18.847      181.849      -26.779       53.024       67.457       27.966     2811.571     4550.481      782.106        2.114        0.407      182.823       26.579        0.021      346.064       24.040      857.980
06/10/2014  23:38:00     -102.105      177.323      -16.134       68.535       89.109       43.785     4696.993     7940.492     1917.084        2.834        0.728      204.619       47.039        0.053      346.065       24.041      857.992
06/10/2014  23:39:00      -99.145      144.098      -15.498       74.900       70.699       47.184     5609.985     4998.312     2226.319        2.183        0.642      174.911       38.498        0.048      346.157       24.200      858.002
06/10/2014  23:40:00      -59.563      177.431      -15.568       45.926       75.857       34.526     2109.233     5754.313     1192.037        2.216        0.453      187.162       31.494        0.028      346.083       24.074      858.011
06/10/2014  23:41:00      -49.873      222.311      -22.050       50.640       95.889       37.005     2564.393     9194.699     1369.360        3.276        0.656      227.836       36.461        0.026      346.103       24.107      858.012
06/10/2014  23:42:00      -32.033      230.221      -37.053       53.197       69.544       26.285     2829.923     4836.300      690.901        3.188        0.418      232.439       28.241        0.015      346.075       24.059      858.028
06/10/2014  23:43:00       -5.369      215.914      -27.663       40.758       71.796       27.675     1661.200     5154.611      765.932        2.750        0.379      215.980       29.553        0.019      346.030       23.982      858.049
06/10/2014  23:44:00      -23.957      159.415      -15.839       55.628       72.073       31.240     3094.430     5194.564      975.967        1.775        0.463      161.205       26.140        0.026      345.969       23.879      858.052
06/10/2014  23:45:00      -56.798      191.968      -25.288       49.710       86.947       36.306     2471.089     7559.725     1318.161        2.603        0.567      200.194       42.376        0.045      345.960       23.863      858.074
06/10/2014  23:46:00      -63.702      202.545      -26.805       63.194       62.796       33.295     3993.486     3943.327     1108.535        2.742        0.452      212.326       31.703        0.022      345.992       23.916      858.078
06/10/2014  23:47:00     -134.260      235.948      -34.630       72.384       68.448       41.764     5239.448     4685.074     1744.204        4.328        0.583      271.473       35.720        0.017      346.015       23.955      858.090
06/10/2014  23:48:00      -58.707      160.248      -31.558       51.004      100.728       36.132     2601.410    10146.092     1305.556        2.209        0.703      170.663       39.256        0.053      346.033       23.986      858.105
06/10/2014  23:49:00      -76.551      189.918      -35.247       70.922       80.615       42.228     5029.887     6498.851     1783.219        2.824        0.666      204.765       38.538        0.035      345.991       23.913      858.110
06/10/2014  23:50:00      -86.386      206.714      -29.462       44.454       82.019       42.022     1976.155     6727.161     1765.872        3.076        0.523      224.038       46.817        0.044      345.995       23.920      858.120
06/10/2014  23:51:00      -79.493      219.237      -25.118       62.499       59.849       36.708     3906.091     3581.917     1347.469        3.192        0.442      233.203       30.508        0.017      345.937       23.823      858.128
06/10/2014  23:52:00     -108.383      274.768      -38.349       47.629       81.100       37.349     2268.521     6577.261     1394.965        4.948        0.512      295.371       29.203        0.010      345.969       23.876      858.147
06/10/2014  23:53:00     -108.493      243.736      -35.629       58.906       86.743       33.786     3469.898     7524.363     1141.511        4.229        0.607      266.792       28.914        0.012      345.934       23.815      858.148
06/10/2014  23:54:00     -179.602      205.457      -38.939       86.376       95.476       54.301     7460.873     9115.624     2948.604        4.775        0.976      272.891       54.869        0.040      345.932       23.812      858.147
06/10/2014  23:55:00      -88.855      145.968      -23.033       63.558       70.265       35.636     4039.599     4937.224     1269.958        1.999        0.512      170.886       37.619        0.048      345.823       23.627      858.144
06/10/2014  23:56:00     -115.872      210.974      -28.202       85.033      127.173       54.151     7230.548    16172.945     2932.319        4.253        1.317      240.699       65.702        0.075      345.848       23.670      858.151
06/10/2014  23:57:00     -147.736      187.883      -28.252       69.921       92.326       42.213     4888.994     8524.099     1781.918        3.656        0.760      239.010       46.708        0.038      345.832       23.641      858.143
06/10/2014  23:58:00     -128.587      130.532      -24.655       54.915       82.099       44.653     3015.637     6740.320     1993.917        2.296        0.587      183.230       43.993        0.058      345.799       23.586      858.126
06/10/2014  23:59:00     -177.381      192.763      -33.389       87.470       81.899       45.721     7650.945     6707.455     2090.384        4.309        0.822      261.957       42.384        0.026      345.787       23.563      858.120
